[[{"header":{"parameterUnit":"m.s-1","parameterCategory":1,"la1":31.0,"la2":29.5877,"lo1":-88.7671,"lo2":-86.6584,"dy":0.0162,"dx":0.0185,"nx":115,"ny":88,"refTime":"2024-08-03T18:00:00:Z","depth":0,"parameterNumber":2,"parameterNumberName":"U-component_of_WINDS"},"data":[0.0,0.0,0.0,0.0,0.0,0.0,0.0,0.0,0.0,0.0,0.0,0.0,0.0,0.0,0.0,0.0,0.0,0.0,0.0,0.0,0.0,0.0,0.0,0.0,0.0,0.0,0.0,0.0,0.0,0.0,0.0,0.0,0.0,0.0,0.0,0.0,0.0,0.0,0.0,0.0,0.0,0.0,0.0,0.0,0.0,0.0,0.0,0.0,0.0,0.0,0.0,0.0,0.0,0.0,0.0,0.0,0.0,0.0,0.0,0.0,0.0,0.0,0.0,0.0,0.0,0.0,0.0,0.0,0.0,0.0,0.0,0.0,0.0,0.0,0.0,0.0,0.0,0.0,0.0,0.0,0.0,0.0,0.0,0.0,0.0,0.0,0.0,0.0,0.0,0.0,0.0,0.0,0.0,0.0,0.0,0.0,0.0,0.0,0.0,0.0,0.0,0.0,0.0,0.0,0.0,0.0,0.0,0.0,0.0,0.0,0.0,0.0,0.0,0.0,0.0,0.0,0.0,0.0,0.0,0.0,0.0,0.0,0.0,0.0,0.0,0.0,0.0,0.0,0.0,0.0,0.0,0.0,0.0,0.0,0.0,0.0,0.0,0.0,0.0,0.0,0.0,0.0,0.0,0.0,0.0,0.0,0.0,0.0,0.0,0.0,0.0,0.0,0.0,0.0,0.0,0.0,0.0,0.0,0.0,0.0,0.0,0.0,0.0,0.0,0.0,0.0,0.0,0.0,0.0,0.0,0.0,0.0,0.0,0.0,0.0,0.0,0.0,0.0,0.0,0.0,0.0,0.0,0.0,0.0,0.0,0.0,0.0,0.0,0.0,0.0,0.0,0.0,0.0,0.0,0.0,0.0,0.0,0.0,0.0,0.0,0.0,0.0,0.0,0.0,0.0,0.0,0.0,0.0,0.0,0.0,0.0,0.0,0.0,0.0,0.0,0.0,0.0,0.0,0.0,0.0,0.0,0.0,0.0,0.0,0.0,0.0,0.0,0.0,0.0,0.0,0.0,0.0,0.0,0.0,0.0,0.0,0.0,0.0,0.0,0.0,0.0,0.0,0.0,0.0,0.0,0.0,0.0,0.0,0.0,0.0,0.0,0.0,0.0,0.0,0.0,0.0,0.0,0.0,0.0,0.0,0.0,0.0,0.0,0.0,0.0,0.0,0.0,0.0,0.0,0.0,0.0,0.0,0.0,0.0,0.0,0.0,0.0,0.0,0.0,0.0,0.0,0.0,0.0,0.0,0.0,0.0,0.0,0.0,0.0,0.0,0.0,0.0,0.0,0.0,0.0,0.0,0.0,0.0,0.0,0.0,0.0,0.0,0.0,0.0,0.0,0.0,0.0,0.0,0.0,0.0,0.0,0.0,0.0,0.0,0.0,0.0,0.0,0.0,0.0,0.0,0.0,0.0,0.0,0.0,0.0,0.0,0.0,0.0,0.0,0.0,0.0,0.0,0.0,0.0,0.0,0.0,0.0,0.0,0.0,0.0,0.0,0.0,0.0,0.0,0.0,0.0,0.0,0.0,0.0,0.0,0.0,0.0,0.0,0.0,0.0,0.0,0.0,0.0,0.0,0.0,0.0,0.0,0.0,0.0,0.0,0.0,0.0,0.0,0.0,0.0,0.0,0.0,0.0,0.0,0.0,0.0,0.0,0.0,0.0,0.0,0.0,0.0,0.0,0.0,0.0,0.0,0.0,0.0,0.0,0.0,0.0,0.0,0.0,0.0,0.0,0.0,0.0,0.0,0.0,0.0,0.0,0.0,0.0,0.0,0.0,0.0,0.0,0.0,0.0,0.0,0.0,0.0,0.0,0.0,0.0,0.0,0.0,0.0,0.0,0.0,0.0,0.0,0.0,0.0,0.0,0.0,0.0,0.0,0.0,0.0,0.0,0.0,0.0,0.0,0.0,0.0,0.0,0.0,0.0,0.0,0.0,0.0,0.0,0.0,0.0,0.0,0.0,0.0,0.0,0.0,0.0,0.0,0.0,0.0,0.0,0.0,0.0,0.0,0.0,0.0,0.0,0.0,0.0,0.0,0.0,0.0,0.0,0.0,0.0,0.0,0.0,0.0,0.0,0.0,0.0,0.0,0.0,0.0,0.0,0.0,0.0,0.0,0.0,0.0,0.0,0.0,0.0,0.0,0.0,0.0,0.0,0.0,0.0,0.0,0.0,0.0,0.0,0.0,0.0,0.0,0.0,0.0,0.0,0.0,0.0,0.0,0.0,0.0,0.0,0.0,0.0,0.0,0.0,0.0,0.0,0.0,0.0,0.0,0.0,0.0,0.0,0.0,0.0,0.0,0.0,0.0,0.0,0.0,0.0,0.0,0.0,0.0,0.0,0.0,0.0,0.0,0.0,0.0,0.0,0.0,0.0,0.0,0.0,0.0,0.0,0.0,0.0,0.0,0.0,0.0,0.0,0.0,0.0,0.0,0.0,0.0,0.0,0.0,0.0,0.0,0.0,0.0,0.0,0.0,0.0,0.0,0.0,0.0,0.0,0.0,0.0,0.0,0.0,0.0,0.0,0.0,0.0,0.0,0.0,0.0,0.0,0.0,0.0,0.0,0.0,0.0,0.0,0.0,0.0,0.0,0.0,0.0,0.0,0.0,0.0,0.0,0.0,0.0,0.0,0.0,0.0,0.0,0.0,0.0,0.0,0.0,0.0,0.0,0.0,0.0,0.0,0.0,0.0,0.0,0.0,0.0,0.0,0.0,0.0,0.0,0.0,0.0,0.0,0.0,0.0,0.0,0.0,0.0,0.0,0.0,0.0,0.0,0.0,0.0,0.0,0.0,0.0,0.0,0.0,0.0,0.0,0.0,0.0,0.0,0.0,0.0,0.0,0.0,0.0,0.0,0.0,0.0,0.0,0.0,0.0,0.0,0.0,0.0,0.0,0.0,0.0,0.0,0.0,0.0,0.0,0.0,0.0,0.0,0.0,0.0,0.0,0.0,0.0,0.0,0.0,0.0,0.0,0.0,0.0,0.0,0.0,0.0,0.0,0.0,0.0,0.0,0.0,0.0,0.0,0.0,0.0,0.0,0.0,0.0,0.0,0.0,0.0,0.0,0.0,0.0,0.0,0.0,0.0,0.0,0.0,0.0,0.0,0.0,0.0,0.0,0.0,0.0,0.0,0.0,0.0,0.0,0.0,0.0,0.0,0.0,0.0,0.0,0.0,0.0,0.0,0.0,0.0,0.0,0.0,0.0,0.0,0.0,0.0,0.0,0.0,0.0,0.0,0.0,0.0,0.0,0.0,0.0,0.0,0.0,0.0,0.0,0.0,0.0,0.0,0.0,0.0,0.0,0.0,0.0,0.0,0.0,0.0,0.0,0.0,0.0,0.0,0.0,0.0,0.0,0.0,0.0,0.0,0.0,0.0,0.0,0.0,0.0,0.0,0.0,0.0,0.0,0.0,0.0,0.0,0.0,0.0,0.0,0.0,0.0,0.0,0.0,0.0,0.0,0.0,0.0,0.0,0.0,0.0,0.0,0.0,0.0,0.0,0.0,0.0,0.0,0.0,0.0,0.0,0.0,0.0,0.0,0.0,0.0,0.0,0.0,0.0,0.0,0.0,0.0,0.0,0.0,0.0,0.0,0.0,0.0,0.0,0.0,0.0,0.0,0.0,0.0,0.0,0.0,0.0,0.0,0.0,0.0,0.0,0.0,0.0,0.0,0.0,0.0,0.0,0.0,0.0,0.0,0.0,0.0,0.0,0.0,0.0,0.0,0.0,0.0,0.0,0.0,0.0,0.0,0.0,0.0,0.0,0.0,0.0,0.0,0.0,0.0,0.0,0.0,0.0,0.0,0.0,0.0,0.0,0.0,0.0,0.0,0.0,0.0,0.0,0.0,0.0,0.0,0.0,0.0,0.0,0.0,0.0,0.0,0.0,0.0,0.0,0.0,0.0,0.0,0.0,0.0,0.0,0.0,0.0,0.0,0.0,0.0,0.0,0.0,0.0,0.0,0.0,0.0,0.0,0.0,0.0,0.0,0.0,0.0,0.0,0.0,0.0,0.0,0.0,0.0,0.0,0.0,0.0,0.0,0.0,0.0,0.0,0.0,0.0,0.0,0.0,0.0,0.0,0.0,0.0,0.0,0.0,0.0,0.0,0.0,0.0,0.0,0.0,0.0,0.0,0.0,0.0,0.0,0.0,0.0,0.0,0.0,0.0,0.0,0.0,0.0,0.0,0.0,0.0,0.0,0.0,0.0,0.0,0.0,0.0,0.0,0.0,0.0,0.0,0.0,1.2054,0.0,0.0,0.0,0.0,0.0,0.0,0.0,0.0,0.0,0.0,0.0,0.0,0.0,0.0,0.0,0.0,0.0,0.0,0.0,0.0,0.0,0.0,0.0,0.0,0.0,0.0,0.0,0.0,0.0,0.0,0.0,0.0,0.0,0.0,0.0,0.0,0.0,0.0,0.0,0.0,0.0,0.0,0.0,0.0,0.0,0.0,0.0,0.0,0.0,0.0,0.0,0.0,0.0,0.0,0.0,0.0,0.0,0.0,0.0,0.0,0.0,0.0,0.0,0.0,0.0,0.0,0.0,0.0,0.0,0.0,0.0,0.0,0.0,0.0,0.0,0.0,0.0,0.0,0.0,0.0,0.0,0.0,0.0,0.0,0.0,0.0,0.0,0.0,0.0,0.0,0.0,0.0,0.0,0.0,0.0,0.0,0.0,0.0,0.0,0.0,0.0,0.0,0.0,0.0,0.0,0.0,0.0,0.0,0.0,0.0,0.9894,0.9961,1.049,1.0997,1.1506,0.0,0.0,0.0,0.0,0.0,0.0,0.0,0.0,0.0,0.0,0.0,0.0,0.0,0.0,0.0,0.0,0.0,0.0,0.0,0.0,0.0,0.0,0.0,0.0,0.0,0.0,0.0,0.0,0.0,0.0,0.0,0.0,0.0,0.0,0.0,0.0,0.0,0.0,0.0,0.0,0.0,0.0,0.0,0.0,0.0,0.0,0.0,0.0,0.0,0.0,0.0,0.0,0.0,0.0,0.0,0.0,0.0,0.0,0.0,0.0,0.0,0.0,0.0,0.0,0.0,0.0,0.0,0.0,0.0,0.0,0.0,0.0,0.0,0.0,0.0,0.0,0.0,0.0,0.0,0.0,0.0,0.0,0.0,0.0,0.0,0.0,0.0,0.0,0.0,0.0,0.0,0.0,0.0,0.0,0.0,0.0,0.0,0.0,0.0,0.0,0.0,0.0,0.0,0.0,0.0,0.0,0.0,0.0,0.0,0.0,0.0,0.0,0.9452,1.0245,1.1004,0.0,0.0,0.0,0.0,0.0,0.0,0.0,0.0,0.0,0.0,0.0,0.0,0.0,0.0,0.0,0.0,0.0,0.0,0.0,0.0,0.0,0.0,0.0,0.0,0.0,0.0,0.0,0.0,0.0,0.0,0.0,0.0,0.0,0.0,0.0,0.0,0.0,0.0,0.0,0.0,0.0,0.0,0.0,0.0,0.0,0.0,0.0,0.0,0.0,0.0,0.0,0.0,0.0,0.0,0.0,0.0,0.0,0.0,0.0,0.0,0.0,0.0,0.0,0.0,0.0,0.0,0.0,0.0,0.0,0.0,0.0,0.0,0.0,0.0,0.0,0.0,0.0,0.0,0.0,0.0,0.0,0.0,0.0,0.0,0.0,0.0,0.0,0.0,0.0,0.0,0.0,0.0,0.0,0.0,0.0,0.0,0.0,0.0,0.0,0.0,0.0,0.0,0.0,0.0,0.0,0.0,0.0,0.0,0.0,0.0,0.7486,0.7066,0.8594,0.0,1.0217,0.0,0.0,0.0,0.0,0.0,0.0,0.0,0.0,0.0,0.0,0.0,0.0,0.0,0.0,0.0,0.0,0.0,0.0,0.0,0.0,0.0,0.0,0.0,0.0,0.0,0.0,0.0,0.0,0.0,0.0,0.0,0.0,0.0,0.0,0.0,0.0,0.0,0.0,0.0,0.0,0.0,0.0,0.0,0.0,0.0,0.0,0.0,0.0,0.0,0.0,0.0,0.0,0.0,0.0,0.0,0.0,0.0,0.0,0.0,0.0,0.0,0.0,0.0,0.0,0.0,0.0,0.0,0.0,0.0,0.0,0.0,0.0,0.0,0.0,0.0,0.0,0.0,0.0,0.0,0.0,0.0,0.0,0.0,0.0,0.0,0.0,0.0,0.0,0.0,0.0,0.0,0.0,0.0,0.0,0.0,0.0,0.0,0.0,0.0,0.0,0.0,0.0,0.0,0.0,0.0,0.0,0.0,0.0,0.0,0.0,0.0,0.6824,0.8096,0.8818,0.0,0.0,0.0,0.0,0.0,0.0,0.0,0.0,0.0,0.0,0.0,0.0,0.0,0.0,0.0,0.0,0.0,0.0,0.0,0.0,0.0,0.0,0.0,0.0,0.0,0.0,0.0,0.0,0.0,0.0,0.0,0.0,0.0,0.0,0.0,0.0,0.0,0.0,0.0,0.0,0.0,0.0,0.0,0.0,0.0,0.0,0.0,0.0,0.0,0.0,0.0,0.0,0.0,0.0,0.0,0.0,0.0,0.0,0.0,0.0,0.0,0.0,0.0,0.0,0.0,0.0,0.0,0.0,0.0,0.0,0.0,0.0,0.0,0.0,0.0,0.0,0.0,0.0,0.0,0.0,0.0,0.0,0.0,0.0,0.0,0.0,0.0,0.0,0.0,0.0,0.0,0.0,0.0,0.0,0.0,0.0,0.0,0.0,0.0,0.0,0.0,0.0,0.0,0.0,0.0,0.0,0.0,0.0,0.0,0.0,0.6245,0.0,0.6829,0.755,0.7846,0.7567,0.0,0.0,0.0,0.0,0.0,0.0,0.0,0.0,0.0,0.0,0.0,0.0,0.0,0.0,0.0,0.0,0.0,0.0,0.0,0.0,0.0,0.0,0.0,0.0,0.0,0.0,0.0,0.0,0.0,0.0,0.0,0.0,0.0,0.0,0.0,0.0,0.0,0.0,0.0,0.0,0.0,0.0,0.0,0.0,0.0,0.0,0.0,0.0,0.0,0.0,0.0,0.0,0.0,0.0,0.0,0.0,0.0,0.0,0.0,0.0,0.0,0.0,0.0,0.0,0.0,0.0,0.0,0.0,0.0,0.0,0.0,0.0,0.0,0.0,0.0,0.0,0.0,0.0,0.0,0.0,0.0,0.0,0.0,0.0,0.0,0.0,0.0,0.0,0.0,0.0,0.0,0.0,0.0,0.0,0.0,0.0,0.0,0.0,0.0,0.0,0.0,0.0,0.0,0.0,0.0,0.0,0.0,0.0,0.0,0.5534,0.6186,0.6874,0.6812,0.6807,0.0,0.0,0.0,0.0,0.0,0.0,0.0,0.0,0.0,0.0,0.0,0.0,0.0,0.0,0.0,0.0,0.0,0.0,0.0,0.0,0.0,0.0,0.0,0.0,0.0,0.0,0.0,0.0,0.0,0.0,0.0,0.0,0.0,0.0,0.0,0.0,0.0,0.0,0.0,0.0,0.0,0.0,0.0,0.0,0.0,0.0,0.0,0.0,0.0,0.0,0.0,0.0,0.0,0.0,0.0,0.0,0.0,0.0,0.0,0.0,0.0,0.0,0.0,0.0,0.0,0.0,0.0,0.0,0.0,0.0,0.0,0.0,0.0,0.0,0.0,0.0,0.0,0.0,0.0,0.0,0.0,0.0,0.0,0.0,0.0,0.0,0.0,0.0,0.0,0.0,0.0,0.0,0.0,0.0,0.0,0.0,0.0,0.0,0.0,0.0,0.0,0.0,0.0,0.0,0.0,0.0,0.0,0.0,0.0,0.4634,0.5408,0.6057,0.6576,0.6475,0.6272,0.0,0.0,0.0,0.0,0.0,0.0,0.0,0.0,0.0,0.0,0.0,0.0,0.0,0.0,0.0,0.0,0.0,0.0,0.0,0.0,0.0,0.0,0.0,0.0,0.0,0.0,0.0,0.0,0.0,0.0,0.0,0.0,0.0,0.0,0.0,0.0,0.0,0.0,0.0,0.0,0.0,0.0,0.0,0.0,0.0,0.0,0.0,0.0,0.0,0.0,0.0,0.0,0.0,0.0,0.0,0.0,0.0,0.0,0.0,0.0,0.0,0.0,0.0,0.0,0.0,0.0,0.0,0.0,0.0,0.0,0.0,0.0,0.0,0.0,0.0,0.0,0.0,0.0,0.0,0.0,0.0,0.0,0.0,0.0,0.0,0.0,0.0,0.0,0.0,0.0,0.0,0.0,0.0,0.0,0.0,0.0,0.0,0.0,0.0,0.0,0.0,0.0,0.0,0.0,0.0,0.0,0.0,0.0,0.0,0.4866,0.0,0.5777,0.0,0.6098,0.5748,0.0,0.0,0.0,0.0,0.0,0.0,0.0,0.0,0.0,0.0,0.0,0.0,0.0,0.0,0.0,0.0,0.0,0.0,0.0,0.0,0.0,0.0,0.0,0.0,0.0,0.0,0.0,0.0,0.0,0.0,0.0,0.0,0.0,0.0,0.0,0.0,0.0,0.0,0.0,0.0,0.0,0.0,0.0,0.0,0.0,0.0,0.0,0.0,0.0,0.0,0.0,0.0,0.0,0.0,0.0,0.0,0.0,0.0,0.0,0.0,0.0,0.0,0.0,0.0,0.0,0.0,0.0,0.0,0.0,0.0,0.0,0.0,0.0,0.0,0.0,0.0,0.0,0.0,0.0,0.0,0.0,0.0,0.0,0.0,0.0,0.0,0.0,0.0,0.0,0.0,0.0,0.0,0.0,0.0,0.0,0.0,0.0,0.0,0.0,0.0,0.0,0.0,0.0,0.0,0.0,0.0,0.0,0.0,0.449,0.549,0.5162,0.5278,0.5599,0.5544,0.498,0.0,0.0,0.0,0.0,0.0,0.0,0.0,0.0,0.0,0.0,0.0,0.0,0.0,0.0,0.0,0.0,0.0,0.0,0.0,0.0,0.0,0.0,0.0,0.0,0.0,0.0,0.0,0.0,0.0,0.0,0.0,0.0,0.0,0.0,0.0,0.0,0.0,0.0,0.0,0.0,0.0,0.0,0.0,0.0,0.0,0.0,0.0,0.0,0.0,0.0,0.0,0.0,0.0,0.0,0.0,0.0,0.0,0.0,0.0,0.0,0.0,0.0,0.0,0.0,0.0,0.0,0.0,0.0,0.0,0.0,0.0,0.0,0.0,0.0,0.0,0.0,0.0,0.0,0.0,0.0,0.0,0.0,0.0,0.0,0.0,0.0,0.0,0.0,0.0,0.0,0.0,0.0,0.0,0.0,0.0,0.0,0.0,0.0,0.0,0.0,0.0,0.0,0.0,0.0,0.0,0.0,0.0,0.0,0.0,0.4669,0.5151,0.5455,0.5507,0.4675,0.4288,0.0,0.0,0.0,0.0,0.0,0.0,0.0,0.0,0.0,0.0,0.0,0.0,0.0,0.0,0.0,0.0,0.0,0.0,0.0,0.0,0.0,0.0,0.0,0.0,0.0,0.0,0.0,0.0,0.0,0.0,0.0,0.0,0.0,0.0,0.0,0.0,0.0,0.0,0.0,0.0,0.0,0.0,0.0,0.0,0.0,0.0,0.0,0.0,0.0,0.0,0.0,0.0,0.0,0.0,0.0,0.0,0.0,0.0,0.0,0.0,0.0,0.0,0.0,0.0,0.0,0.0,0.0,0.0,0.0,0.0,0.0,0.0,0.0,0.0,0.0,0.0,0.0,0.0,0.0,0.0,0.0,0.0,0.0,0.0,0.0,0.0,0.0,0.0,0.0,0.0,0.0,0.0,0.0,0.0,0.0,0.0,0.0,0.0,0.0,0.0,0.0,0.0,0.0,0.0,0.0,0.0,0.0,0.0,0.0,0.3304,0.3692,0.4101,0.4706,0.4522,0.4417,0.4307,0.0,0.0,0.0,0.0,0.0,0.0,0.0,0.0,0.0,0.0,0.0,0.0,0.0,0.0,0.0,0.0,0.0,0.0,0.0,0.0,0.0,0.0,0.0,0.0,0.0,0.0,0.0,0.0,0.0,0.0,0.0,0.0,0.0,0.0,0.0,0.0,0.0,0.0,0.0,0.0,0.0,0.0,0.0,0.0,0.0,0.0,0.0,0.0,0.0,0.0,0.0,0.0,0.0,0.0,0.0,0.0,0.0,0.0,0.0,0.0,0.0,0.0,0.0,0.0,0.0,0.0,0.0,0.0,0.0,0.0,0.0,0.0,0.0,0.0,0.0,0.0,0.0,0.0,0.0,0.0,0.0,0.0,0.0,0.0,0.0,0.0,0.0,0.0,0.0,0.0,0.0,0.0,0.0,0.0,0.0,0.0,0.0,0.0,0.0,0.0,0.0,0.0,0.0,0.0,0.0,0.0,0.0,0.0,0.157,0.1097,0.1602,0.3181,0.4905,0.5111,0.0,0.0,0.0,0.0,0.0,0.0,0.0,0.0,0.0,0.0,0.0,0.0,0.0,0.0,0.0,0.0,0.0,0.0,0.0,0.0,0.0,0.0,0.0,0.0,0.0,0.0,0.0,0.0,0.0,0.0,0.0,0.0,0.0,0.0,0.0,0.0,0.0,0.0,0.0,0.0,0.0,0.0,0.0,0.0,0.0,0.0,0.0,0.0,0.0,0.0,0.0,0.0,0.0,0.0,0.0,0.0,0.0,0.0,0.0,0.0,0.0,0.0,0.0,0.0,0.0,0.0,0.0,0.0,0.0,0.0,0.0,0.0,0.0,0.0,0.0,0.0,0.0,0.0,0.0,0.0,0.0,0.0,0.0,0.0,0.0,0.0,0.0,0.0,0.0,0.0,0.0,0.0,0.0,0.0,0.0,0.0,0.0,0.0,0.0,0.0,0.0,0.0,0.0,0.0,0.0,0.0,0.0,0.0,0.0,0.0189,-0.0619,-0.0,0.23,0.416,0.4189,0.0,0.0,0.0,0.0,0.0,0.0,0.0,0.0,0.0,0.0,0.0,0.0,0.0,0.0,0.0,0.0,0.0,0.0,0.0,0.0,0.0,0.0,0.0,0.0,0.0,0.0,0.0,0.0,0.0,0.0,0.0,0.0,0.0,0.0,0.0,0.0,0.0,0.0,0.0,0.0,0.0,0.0,0.0,0.0,0.0,0.0,0.0,0.0,0.0,0.0,0.0,0.0,0.0,0.0,0.0,0.0,0.0,0.0,0.0,0.0,0.0,0.0,0.0,0.0,0.0,0.0,0.0,0.0,0.0,0.0,0.0,0.0,0.0,0.0,0.0,0.0,0.0,0.0,0.0,0.0,0.0,0.0,0.0,0.0,0.0,0.0,0.0,0.0,0.0,0.0,0.0,0.0,0.0,0.0,0.0,0.0,0.0,0.0,0.0,0.0,0.0,0.0,0.0,0.0,0.0,0.0,0.0,0.0,-0.1293,-0.1112,-0.1609,-0.1105,0.0441,0.1511,0.1833,0.0,0.0,0.0,0.0,0.0,0.0,0.0,0.0,0.0,0.0,0.0,0.0,0.0,0.0,0.0,0.0,0.0,0.0,0.0,0.0,0.0,0.0,0.0,0.0,0.0,0.0,0.0,0.0,0.0,0.0,0.0,0.0,0.0,0.0,0.0,0.0,0.0,0.0,0.0,0.0,0.0,0.0,0.0,0.0,0.0,0.0,0.0,0.0,0.0,0.0,0.0,0.0,0.0,0.0,0.0,0.0,0.0,0.0,0.0,0.0,0.0,0.0,0.0,0.0,0.0,0.0,0.0,0.0,0.0,0.0,0.0,0.0,0.0,0.0,0.0,0.0,0.0,0.0,0.0,0.0,0.0,0.0,0.0,0.0,0.0,0.0,0.0,0.0,0.0,0.0,0.0,0.0,0.0,0.0,0.0,0.0,0.0,0.0,0.0,0.0,0.0,0.0,0.0,0.0,0.0,0.0,0.0,0.0,-0.1742,-0.2176,-0.2,-0.1909,-0.1797,-0.1711,-0.0886,0.0,0.0,0.0,0.0,0.0,0.0,0.0,0.0,0.0,0.0,0.0,0.0,0.0,0.0,0.0,0.0,0.0,0.0,0.0,0.0,0.0,0.0,0.0,0.0,0.0,0.0,0.0,0.0,0.0,0.0,0.0,0.0,0.0,0.0,0.0,0.0,0.0,0.0,0.0,0.0,0.0,0.0,0.0,0.0,0.0,0.0,0.0,0.0,0.0,0.0,0.0,0.0,0.0,0.0,0.0,0.0,0.0,0.0,0.0,0.0,0.0,0.0,0.0,0.0,0.0,0.0,0.0,0.0,0.0,0.0,0.0,0.0,0.0,0.0,0.0,0.0,0.0,0.0,0.0,0.0,0.0,0.0,0.0,0.0,0.0,0.0,0.0,0.0,0.0,0.0,0.0,0.0,0.0,0.0,0.0,0.0,0.0,0.0,0.0,0.0,0.0,0.0,0.0,0.0,0.0,0.0,0.0,0.0,-0.2127,-0.2461,-0.221,-0.2145,-0.2174,-0.1851,-0.139,0.0,0.0,0.0,0.0,0.0,0.0,0.0,0.0,0.0,0.0,0.0,0.0,0.0,0.0,0.0,0.0,0.0,0.0,0.0,0.0,0.0,0.0,0.0,0.0,0.0,0.0,0.0,0.0,0.0,0.0,0.0,0.0,0.0,0.0,0.0,0.0,0.0,0.0,0.0,0.0,0.0,0.0,0.0,0.0,0.0,0.0,0.0,0.0,2.0024,0.0,0.0,0.0,0.0,0.0,0.0,0.0,0.0,0.0,0.0,0.0,0.0,0.0,0.0,0.0,0.0,0.0,0.0,0.0,0.0,0.0,0.0,0.0,0.0,0.0,0.0,0.0,0.0,0.0,0.0,0.0,0.0,0.0,0.0,0.0,0.0,0.0,0.0,0.0,0.0,0.0,0.0,0.0,0.0,0.0,0.0,0.0,0.0,0.0,0.0,0.0,0.0,0.0,0.0,0.0,0.0,0.0,0.0,0.0,-0.2382,-0.2617,-0.2335,-0.2246,-0.2246,-0.1969,-0.1626,0.0,0.0,0.0,0.0,0.0,0.0,0.0,0.0,0.0,0.0,0.0,0.0,0.0,0.0,0.0,0.0,0.0,0.0,0.0,0.0,0.0,0.0,0.0,0.0,0.0,0.0,0.0,0.0,0.0,0.0,0.0,0.0,0.0,0.0,0.0,0.0,0.0,0.0,0.0,0.0,0.0,0.0,0.0,0.0,0.0,0.0,0.0,0.0,0.0,0.0,0.0,0.0,0.0,0.0,0.0,0.0,0.0,0.0,0.0,0.0,0.0,0.0,0.0,0.0,0.0,0.0,0.0,0.0,0.0,0.0,0.0,0.0,0.0,0.0,0.0,0.0,0.0,0.0,0.0,0.0,0.0,0.0,0.0,0.0,0.0,0.0,0.0,0.0,0.0,0.0,0.0,0.0,0.0,0.0,0.0,0.0,0.0,0.0,0.0,0.0,0.0,0.0,0.0,0.0,0.0,0.0,0.0,-0.2314,-0.2611,-0.2692,-0.2464,-0.2335,-0.2306,-0.2069,-0.1758,-0.158,0.0,0.0,0.0,0.0,0.0,0.0,0.0,0.0,0.0,0.0,0.0,0.0,0.0,0.0,0.0,0.0,0.0,0.0,0.0,0.0,0.0,0.0,0.0,0.0,0.0,0.0,0.0,0.0,0.0,0.0,0.0,0.0,0.0,0.0,0.0,0.0,0.0,0.0,1.4648,1.599,0.0,0.0,0.0,0.0,0.0,0.0,0.0,0.0,2.0716,0.0,0.0,0.0,0.0,0.0,0.0,0.0,0.0,0.0,0.0,0.0,0.0,0.0,0.0,0.0,0.0,0.0,0.0,0.0,0.0,0.0,0.0,0.0,0.0,0.0,0.0,0.0,0.0,0.0,0.0,0.0,0.0,0.0,0.0,0.0,0.0,0.0,0.0,0.0,0.0,0.0,0.0,0.0,0.0,0.0,0.0,0.0,0.0,0.0,0.0,0.0,0.0,0.0,0.0,0.0,0.0,-0.24,-0.2445,-0.2801,-0.3537,-0.3122,-0.2983,-0.3008,-0.257,-0.2219,-0.1859,0.0,0.0,0.0,0.0,0.0,0.0,0.0,0.0,0.0,0.0,0.0,0.0,0.0,0.0,0.0,0.0,0.0,0.0,0.0,0.0,0.0,0.0,0.0,0.0,0.0,0.0,0.0,0.0,0.0,0.0,0.0,0.0,0.0,0.0,0.0,0.0,0.0,0.0,0.0,1.5528,1.6097,0.0,0.0,0.0,0.0,0.0,0.0,0.0,0.0,2.0219,0.0,0.0,0.0,0.0,0.0,0.0,0.0,0.0,0.0,0.0,0.0,0.0,0.0,0.0,0.0,0.0,0.0,0.0,0.0,0.0,0.0,0.0,0.0,0.0,0.0,0.0,0.0,0.0,0.0,0.0,0.0,0.0,0.0,0.0,0.0,0.0,0.0,0.0,0.0,0.0,0.0,0.0,0.0,0.0,0.0,0.0,0.0,0.0,0.0,0.0,0.0,0.0,0.0,0.0,0.0,-0.2145,-0.2661,-0.3048,-0.339,-0.3296,-0.3268,-0.3093,-0.248,-0.2129,0.0,0.0,0.0,0.0,0.0,0.0,0.0,0.0,0.0,0.0,0.0,0.0,0.0,0.0,0.0,0.0,0.0,0.0,0.0,0.0,0.0,0.0,0.0,0.0,0.0,0.0,0.0,0.0,0.0,0.0,0.0,0.0,0.0,0.0,0.0,0.0,0.0,0.0,0.0,0.0,1.5264,1.5923,1.697,0.0,0.0,0.0,0.0,0.0,0.0,1.8627,1.9346,0.0,0.0,0.0,0.0,0.0,0.0,0.0,0.0,0.0,0.0,0.0,0.0,0.0,0.0,0.0,0.0,0.0,0.0,0.0,0.0,0.0,0.0,0.0,0.0,0.0,0.0,0.0,0.0,0.0,0.0,0.0,0.0,0.0,0.0,0.0,0.0,0.0,0.0,0.0,0.0,0.0,0.0,0.0,0.0,0.0,0.0,0.0,0.0,0.0,0.0,0.0,0.0,0.0,0.0,0.0,-0.196,-0.2735,-0.3148,-0.3206,-0.3353,-0.3436,-0.3151,-0.253,-0.2086,0.0,0.0,0.0,0.0,0.0,0.0,0.0,0.0,0.0,0.0,0.0,0.0,0.0,0.0,0.0,0.0,0.0,0.0,0.0,0.0,0.0,0.0,0.0,0.0,0.0,0.0,0.0,0.0,0.0,0.0,0.0,0.0,0.0,0.0,0.0,0.0,0.0,0.0,0.0,0.0,0.0,1.6089,1.727,1.6745,0.0,0.0,0.0,0.0,1.6814,1.7842,0.0,0.0,0.0,0.0,0.0,0.0,0.0,0.0,0.0,0.0,0.0,0.0,0.0,0.0,0.0,0.0,0.0,0.0,0.0,0.0,0.0,0.0,0.0,0.0,0.0,0.0,0.0,0.0,0.0,0.0,0.0,0.0,0.0,0.0,0.0,0.0,0.0,0.0,0.0,0.0,0.0,0.0,0.0,0.0,0.0,0.0,0.0,0.0,0.0,0.0,0.0,0.0,0.0,0.0,0.0,0.0,-0.2174,-0.2516,-0.2895,-0.331,-0.3526,-0.3524,-0.3422,-0.3231,-0.2862,0.0,0.0,0.0,0.0,0.0,0.0,0.0,0.0,0.0,0.0,0.0,0.0,0.0,0.0,0.0,0.0,0.0,0.0,0.0,0.0,0.0,0.0,0.0,0.0,0.0,0.0,0.0,0.0,0.0,0.0,0.0,0.0,0.0,0.0,0.0,0.0,0.0,0.0,0.0,0.0,0.0,1.6486,1.6215,1.6246,1.6313,0.0,0.0,1.5967,1.6017,1.7272,0.0,0.0,0.0,0.0,0.0,0.0,0.0,0.0,0.0,0.0,0.0,0.0,0.0,0.0,0.0,0.0,0.0,0.0,0.0,0.0,0.0,0.0,0.0,0.0,0.0,0.0,0.0,0.0,0.0,0.0,0.0,0.0,0.0,0.0,0.0,0.0,0.0,0.0,0.0,0.0,0.0,0.0,0.0,0.0,0.0,0.0,0.0,0.0,0.0,0.0,0.0,0.0,0.0,0.0,0.0,-0.2048,-0.2346,-0.2774,-0.3081,-0.3452,-0.3431,-0.3428,-0.3247,-0.2937,-0.2553,0.0,0.0,0.0,0.0,0.0,0.0,0.0,0.0,0.0,0.0,0.0,0.0,0.0,0.0,0.0,0.0,0.0,0.0,0.0,0.0,0.0,0.0,0.0,0.0,0.0,0.0,0.0,0.0,0.0,0.0,0.0,0.0,0.0,0.0,0.0,0.0,0.0,0.0,0.0,0.0,0.0,0.0,1.6586,1.651,0.0,0.0,0.0,1.6164,1.6355,0.0,0.0,0.0,0.0,0.0,0.0,0.0,0.0,0.0,0.0,0.0,0.0,0.0,0.0,0.0,0.0,0.0,0.0,0.0,0.0,0.0,0.0,0.0,0.0,0.0,0.0,0.0,0.0,0.0,0.0,0.0,0.0,0.0,0.0,0.0,0.0,0.0,0.0,0.0,0.0,0.0,0.0,0.0,0.0,0.0,0.0,0.0,0.0,0.0,0.0,0.0,0.0,0.0,0.0,0.0,0.0,0.0,-0.2416,-0.2933,-0.3258,-0.345,-0.3441,-0.3334,-0.3127,-0.2807,0.0,0.0,0.0,0.0,0.0,0.0,0.0,0.0,0.0,0.0,0.0,0.0,0.0,0.0,0.0,0.0,0.0,0.0,0.0,0.0,0.0,0.0,0.0,0.0,0.0,0.0,0.0,0.4755,0.0,0.0,0.0,0.0,0.0,0.0,0.0,0.0,0.0,0.0,0.0,0.0,0.0,0.0,1.6484,1.6574,1.6845,1.7022,0.0,0.0,1.6474,1.6624,1.6411,1.6278,0.0,0.0,0.0,0.0,0.0,0.0,0.0,0.0,0.0,0.0,0.0,0.0,0.0,0.0,0.0,0.0,0.0,0.0,0.0,0.0,0.0,0.0,0.0,0.0,0.0,0.0,0.0,0.0,0.0,0.0,0.0,0.0,0.0,0.0,0.0,0.0,0.0,0.0,0.0,0.0,0.0,0.0,0.0,0.0,0.0,0.0,0.0,0.0,0.0,0.0,0.0,0.0,0.0,0.0,0.0,-0.2199,-0.2915,-0.3327,-0.3546,-0.3546,-0.3441,-0.3338,-0.3365,-0.2966,0.0,0.0,0.0,0.0,0.0,0.0,0.0,0.0,0.0,0.0,0.0,0.0,0.0,0.0,0.0,0.0,0.0,0.0,0.0,0.0,0.0,0.0,0.0,0.0,0.0,0.0,0.0,0.0,0.0,0.0,0.0,0.0,0.0,0.0,0.0,0.0,0.0,0.0,0.0,0.0,0.0,1.655,1.5251,1.667,1.7578,0.0,0.0,1.6858,1.6405,1.6758,1.6551,1.5369,0.0,0.0,0.0,0.0,0.0,0.0,0.0,0.0,0.0,0.0,0.0,0.0,0.0,0.0,0.0,0.0,0.0,0.0,0.0,0.0,0.0,0.0,0.0,0.0,0.0,0.0,0.0,0.0,0.0,0.0,0.0,0.0,0.0,0.0,0.0,0.0,0.0,0.0,0.0,0.0,0.0,0.0,0.0,0.0,0.0,0.0,0.0,0.0,0.0,0.0,0.0,0.0,0.0,-0.2346,-0.2406,-0.2865,-0.3287,-0.3538,-0.3619,-0.3403,-0.2898,-0.2854,-0.2598,0.0,0.0,0.0,0.0,0.0,0.0,0.0,0.0,0.0,0.0,0.0,0.0,0.0,0.0,0.0,0.0,0.0,0.0,0.0,0.0,0.0,0.0,0.0,0.0,0.0,0.0,0.0,0.0,0.5873,0.6179,0.6641,0.0,0.0,0.0,0.0,0.0,0.0,0.0,0.0,0.0,0.0,1.46,1.43,1.4841,0.0,0.0,1.6272,1.6306,1.7158,1.6774,1.6113,1.5652,1.5214,0.0,0.0,0.0,0.0,0.0,0.0,0.0,0.0,0.0,0.0,0.0,0.0,0.0,0.0,0.0,0.0,0.0,0.0,0.0,0.0,0.0,0.0,0.0,0.0,0.0,0.0,0.0,0.0,0.0,0.0,0.0,0.0,0.0,0.0,0.0,0.0,0.0,0.0,0.0,0.0,0.0,0.0,0.0,0.0,0.0,0.0,0.0,0.0,0.0,0.0,0.0,0.0,-0.3033,-0.3332,-0.3302,-0.354,-0.4259,-0.3778,-0.3337,-0.2843,-0.2762,-0.2427,0.0,0.0,0.0,0.0,0.0,0.0,0.0,0.0,0.0,0.0,0.0,0.0,0.0,0.0,0.0,0.0,0.0,0.0,0.0,0.0,0.0,0.0,0.0,0.0,0.0,0.0,0.0,0.0,0.6009,0.6261,0.659,0.0,0.0,0.0,0.0,0.0,0.0,0.0,0.0,0.0,0.0,1.3203,1.3305,1.3523,1.4203,1.5732,1.5504,1.5661,1.7279,1.6668,1.5981,1.5861,0.0,0.0,0.0,0.0,0.0,0.0,0.0,0.0,0.0,0.0,0.0,0.0,0.0,0.0,0.0,0.0,0.0,0.0,0.0,0.0,0.0,0.0,0.0,0.0,0.0,0.0,0.0,0.0,0.0,0.0,-0.1742,0.0,0.0,0.0,0.0,0.0,0.0,0.0,0.0,0.0,0.0,0.0,0.0,0.0,0.0,0.0,0.0,0.0,0.0,0.0,0.0,0.0,0.0,-0.4522,-0.528,-0.4117,-0.4279,-0.5895,-0.4443,-0.3559,-0.3499,-0.3117,-0.2783,-0.2389,0.0,0.0,0.0,0.0,0.0,0.0,0.0,0.0,0.0,0.0,0.0,0.0,0.0,0.0,0.0,0.0,0.0,0.0,0.0,0.0,0.0,0.0,0.0,0.0,0.0,0.0,0.5912,0.6147,0.6184,0.0,0.0,0.0,0.0,0.0,0.0,0.0,0.0,0.0,0.0,1.2132,1.2785,1.1972,1.2648,1.3788,1.5219,1.5112,1.5124,1.625,1.6408,1.6355,0.0,0.0,0.0,0.0,0.0,0.0,0.0,0.0,0.0,0.0,0.0,0.0,0.0,0.0,0.0,0.0,0.0,0.0,0.0,0.0,0.0,0.0,0.0,0.0,0.0,0.0,0.0,-0.2521,-0.224,0.0,0.0,0.0,0.0,0.0,0.0,0.0,0.0,0.0,0.0,0.0,-0.5349,-0.5661,0.0,0.0,0.0,0.0,0.0,0.0,0.0,0.0,0.0,0.0,0.0,0.0,-0.5526,-0.671,-0.6715,-0.6674,-0.6748,-0.5691,-0.4689,-0.3658,-0.306,-0.24,-0.1818,0.0,0.0,0.0,0.0,0.0,0.0,0.0,0.0,0.0,0.0,0.0,0.0,0.0,0.0,0.0,0.0,0.0,0.0,0.0,0.0,0.0,0.0,0.0,0.0,0.0,0.5547,0.0,0.0,0.0,0.0,0.0,0.0,0.0,0.0,0.0,0.0,0.0,1.0428,1.0347,1.0414,1.0489,1.0256,1.0664,1.141,0.0,0.0,0.0,0.0,0.0,0.0,0.0,0.0,0.0,0.0,0.0,0.0,0.0,0.0,1.6064,1.5455,1.5125,1.5047,1.5541,0.0,0.0,0.0,0.0,0.0,0.0,0.0,0.0,0.0,0.0,0.0,0.0,0.0,0.0,-0.3059,0.0,-0.2548,0.0,0.0,0.0,0.0,0.0,0.0,0.0,0.0,-0.5909,-0.6487,-0.7576,-0.7505,-0.7446,0.0,-0.8024,-0.7709,0.0,0.0,0.0,0.0,0.0,0.0,0.0,0.0,-0.675,-0.7753,-0.8515,-0.8474,-0.7569,-0.7038,-0.6038,-0.446,-0.3853,-0.3173,-0.2361,-0.1774,-0.1524,0.0,0.0,0.0,0.0,0.0,0.0,0.0,0.0,0.0,0.0,0.0,0.0,0.0,0.0,0.0,0.0,0.0,0.0,0.0,0.0,0.0,0.0,0.0,0.5709,0.0,0.0,0.0,0.0,0.0,0.0,0.0,0.0,0.0,0.9085,0.9432,0.9758,1.0134,0.9557,0.9181,0.9312,0.0,0.0,0.0,0.0,0.0,0.0,0.0,1.3358,1.2598,1.31,1.327,1.2507,1.2921,1.3203,1.2824,0.0,0.0,1.5529,1.5726,1.616,1.6646,1.6762,1.7008,1.7517,1.7958,1.8208,0.0,0.0,0.0,0.0,0.0,0.0,0.0,0.0,-0.3748,-0.3745,0.0,-0.3191,0.0,0.0,0.0,0.0,0.0,0.0,0.0,0.0,-0.7143,-0.8141,-0.8843,-0.8142,-0.8249,-0.9264,-0.9363,-0.9595,-0.9742,-0.7994,0.0,0.0,0.0,0.0,0.0,0.0,-0.8067,-0.8443,-0.9661,-0.9667,-0.8459,-0.8374,-0.7593,-0.601,-0.5604,-0.4828,-0.3836,-0.2404,-0.1547,-0.1486,-0.1346,0.0,0.0,0.0,0.0,0.0,0.0,0.0,0.0,0.0,0.0,0.0,0.0,0.0,0.0,0.0,0.0,0.0,0.0,0.0,0.0,0.5536,0.0,0.0,0.0,0.0,0.0,0.0,0.0,0.0,0.0,0.0,0.8594,0.8799,0.9148,0.9642,0.0,0.0,0.0,0.0,0.9319,1.067,1.0664,1.1063,1.2396,1.2649,1.2649,1.2665,0.0,0.0,1.2515,1.2744,1.287,1.2531,1.2909,1.3858,1.5428,1.6765,1.7877,1.8222,1.8097,1.8075,1.8433,1.9055,1.9687,-0.3488,0.0,0.0,0.0,0.0,-0.2976,-0.3752,-0.5256,-0.6526,-0.6795,-0.6353,-0.6246,0.0,0.0,0.0,0.0,0.0,0.0,-0.8307,-0.8876,-0.903,-0.9634,-1.0654,-1.065,-1.0642,-1.0872,-1.0872,-1.0874,-1.0655,-1.0144,-0.906,-0.7761,0.0,0.0,0.0,0.0,-0.9052,-0.9666,-1.0087,-1.0309,-1.0021,-0.9147,-0.7919,-0.6246,-0.6483,-0.5638,-0.3653,-0.242,-0.174,-0.1579,-0.1495,0.0,0.0,0.0,0.0,0.0,0.0,0.0,0.0,0.0,0.0,0.0,0.0,0.0,0.0,0.0,0.0,0.0,0.0,0.0,0.3238,0.4989,0.6244,0.0,0.0,0.0,0.0,0.0,0.0,0.0,0.0,0.0,0.8839,0.9105,0.9186,0.0,0.0,0.8999,0.9032,0.8899,0.9038,0.9446,0.0,0.0,0.0,1.0723,1.0995,1.024,1.0327,1.0486,1.051,1.0572,1.0602,1.0517,1.1471,1.2561,1.3077,1.4938,1.6945,1.8386,1.8899,1.8999,1.9367,1.9899,2.0117,-0.4416,-0.4868,-0.3853,-0.3847,-0.4432,-0.3659,-0.4725,-0.7069,-0.9211,-0.9284,-0.8026,-0.7904,-0.7645,-0.7418,-0.8213,0.0,0.0,0.0,-1.0152,-1.0632,-1.068,-1.111,-1.1696,-1.1857,-1.1825,-1.1711,-1.1638,-1.1459,-1.1175,-1.1175,-1.0526,-0.9275,0.0,0.0,-0.9315,-0.9583,-0.9981,-1.0469,-1.0655,-1.0761,-1.0683,-0.9949,-0.914,-0.8134,-0.8131,-0.7191,-0.5222,-0.2981,-0.1876,-0.2245,-0.1761,-0.1474,0.0,0.0,0.0,0.0,0.0,0.0,0.0,0.0,0.0,0.0,0.0,-0.0851,0.0,0.0,0.0,0.0,0.0932,0.146,0.1547,0.2807,0.0,0.0,0.0,0.0,0.0,0.0,0.0,0.8263,0.8677,0.8997,0.9144,0.928,0.9433,0.9226,0.9155,0.909,0.909,0.0,0.9144,0.9101,0.9177,0.9237,0.9237,0.9883,1.0025,0.9468,0.9459,0.9574,0.965,0.9666,0.9666,0.9822,1.0451,1.1227,1.1971,1.3496,1.5113,1.6711,1.7211,1.7309,1.7599,1.7915,1.8518,-0.5664,-0.7326,-0.5143,-0.5033,-0.606,-0.4787,-0.5846,-0.8705,-1.1549,-1.124,-0.873,-0.8609,-0.8553,-0.8426,-0.9354,0.0,-1.0026,-1.1295,-1.1638,-1.1286,-1.1964,-1.2304,-1.2296,-1.2134,-1.2052,-1.2044,-1.1898,-1.1736,-1.1573,-1.1549,-1.1289,-1.0802,-1.0623,-1.0517,-1.0469,-1.0623,-1.0802,-1.0988,-1.1143,-1.1028,-1.0755,-1.0691,-1.0602,-1.0578,-1.0116,-0.9154,-0.7696,-0.4211,-0.2589,-0.3207,-0.2271,-0.1602,-0.1444,0.0,0.0,0.0,0.0,0.0,0.0,0.0,0.0,0.0,0.0,0.0,0.0,0.0,0.0,0.0,-0.0,0.0,-0.0,-0.0,0.0,0.0,0.0,0.8127,0.8144,0.8448,0.8736,0.897,0.0,0.0,0.9514,0.0,0.9699,0.9699,0.9487,0.9334,0.9334,0.9427,0.9459,0.9345,0.9519,0.9661,0.9617,0.9772,0.9772,0.9655,0.9682,0.9688,0.9709,0.9709,0.9704,0.9709,0.9791,1.0326,1.1841,1.2253,1.2587,1.3664,1.4175,1.4456,1.4637,1.5069,1.594,-0.7597,-0.8254,-0.7987,-0.7894,-0.7842,-0.7478,-0.8458,-1.028,-1.2042,-1.2378,-1.1585,-1.1547,-1.1419,-1.1355,-1.1526,-1.1634,-1.1681,-1.2017,-1.2073,-1.2113,-1.2154,-1.2439,-1.2699,-1.2389,-1.2239,-1.2239,-1.2199,-1.2158,-1.2109,-1.1971,-1.1841,-1.1711,-1.1541,-1.1183,-1.0664,-1.081,-1.0988,-1.1159,-1.12,-1.12,-1.1044,-1.0416,-1.0047,-1.0036,-1.0341,-0.9326,-0.7046,-0.6674,-0.5561,-0.342,-0.3071,-0.2483,-0.1508,-0.1404,0.0,0.0,0.0,0.0,0.0,0.0,0.0,0.0,0.0,-0.1389,-0.1205,0.0,-0.051,0.0,-0.0,-0.0,-0.0,-0.0,0.0,0.0,0.5202,0.7979,0.8568,0.8834,0.8939,0.9362,0.9612,0.9769,0.9753,0.9862,0.9938,0.9932,0.9731,0.9584,0.9584,0.9606,0.9617,0.9595,0.9633,0.9666,0.9677,0.9666,0.9704,0.9786,0.9796,0.9829,0.9921,0.9938,0.9938,0.9943,1.0036,1.0263,1.0739,1.0843,1.1066,1.147,1.3162,1.4702,1.4822,1.5049,1.5277,-0.8706,-1.0041,-0.9902,-0.999,-1.0313,-0.8984,-0.9689,-1.1637,-1.246,-1.28,-1.2686,-1.2686,-1.2629,-1.2548,-1.254,-1.254,-1.254,-1.254,-1.254,-1.2548,-1.254,-1.2677,-1.2805,-1.2586,-1.2418,-1.2418,-1.2345,-1.2304,-1.2296,-1.2199,-1.215,-1.215,-1.1979,-1.1687,-1.1305,-1.1313,-1.1378,-1.1468,-1.1511,-1.1462,-1.1338,-1.0744,-1.0316,-1.0036,-1.0109,-0.936,-0.7657,-0.7871,-0.6981,-0.481,-0.3783,-0.2927,-0.2251,-0.1771,-0.1437,0.0,0.0,0.0,0.0,0.0,0.0,0.0,0.0,0.0,0.0,0.0,-0.0992,0.0,-0.0,-0.0,-0.0,-0.0,-0.0,-0.0,0.2518,0.4843,0.6647,0.7001,0.7211,0.7448,0.8942,0.9954,0.9932,0.9987,1.003,1.0019,0.9911,0.9807,0.9764,0.9791,0.9807,0.9753,0.9791,0.9824,0.9829,0.9824,0.9845,0.99,0.9916,0.9943,1.0008,1.0068,1.0101,1.0106,1.0199,1.0286,1.0291,1.0335,1.0384,1.0689,1.1702,1.2732,1.2944,1.2965,1.3158,-0.9775,-1.1909,-1.1365,-1.1769,-1.2568,-1.0141,-1.0545,-1.2832,-1.2832,-1.2832,-1.2832,-1.2832,-1.2832,-1.2832,-1.2832,-1.2832,-1.2832,-1.2832,-1.2832,-1.2832,-1.2832,-1.2832,-1.2824,-1.267,-1.2596,-1.2596,-1.245,-1.2377,-1.2369,-1.2353,-1.2337,-1.2328,-1.2158,-1.2069,-1.206,-1.1922,-1.1825,-1.1776,-1.186,-1.1777,-1.1533,-1.1208,-1.0715,-1.0295,-0.966,-0.9089,-0.8692,-0.7975,-0.731,-0.6491,-0.4579,-0.3366,-0.3256,-0.2367,-0.1742,0.0,-0.1549,0.0,0.0,0.0,0.0,0.0,0.0,0.0,0.0,-0.1974,-0.155,-0.0244,-0.0127,-0.0133,-0.0138,-0.0,-0.0,-0.0,-0.0,0.1061,0.3489,0.3984,0.4183,0.439,0.6919,0.8821,0.9144,0.962,0.9933,1.009,1.0085,1.0041,0.9943,0.997,0.9965,0.9873,0.9949,0.9992,1.0003,1.0025,1.0036,1.0041,1.0068,1.0063,1.0079,1.0161,1.0226,1.0237,1.0324,1.0405,1.0405,1.0422,1.0438,1.0449,1.06,1.0745,1.0728,1.0728,1.089,-1.2561,-1.3104,-1.3227,-1.3087,-1.27,-1.2165,-1.2297,-1.2832,-1.2832,-1.2832,-1.2832,-1.2832,-1.2832,-1.2832,-1.2832,-1.2832,-1.2832,-1.2832,-1.2832,-1.2832,-1.2832,-1.2832,-1.2832,-1.28,-1.2783,-1.2783,-1.2751,-1.2735,-1.2735,-1.2588,-1.2515,-1.2507,-1.2337,-1.2255,-1.2255,0.0,0.0,0.0,-1.1864,-1.1727,-1.1719,-1.0799,-1.0308,-1.0122,-0.9173,0.0,-0.8289,-0.6588,-0.5998,-0.673,-0.5616,0.0,0.0,0.0,0.0,0.0,0.0,0.0,0.0,0.0,0.0,0.0,-0.1943,-0.1926,-0.1911,-0.2045,-0.1861,-0.1057,-0.095,-0.0979,-0.1008,-0.0436,-0.0,-0.0,-0.0,0.0308,0.0778,0.0937,0.0942,0.0952,0.1589,0.303,0.5626,0.8232,1.0019,1.0003,1.018,1.0324,1.028,1.0128,1.0019,0.9992,1.0025,1.0025,1.0019,1.0106,1.0166,1.0177,1.0259,1.0302,1.0307,1.0324,1.0351,1.0356,1.0443,1.0525,1.0525,1.0601,1.0655,1.0672,1.0666,1.0639,1.0547,1.0525,1.0716,-1.3311,0.0,-1.3494,-1.3178,0.0,-1.2832,-1.2832,-1.2832,-1.2832,-1.2832,-1.2832,-1.2832,-1.2832,-1.2832,-1.2832,-1.2832,-1.2832,-1.2832,-1.2832,-1.2832,-1.2832,-1.2832,-1.2832,-1.2832,-1.2832,-1.2832,-1.2832,-1.2832,-1.2832,-1.2743,-1.2702,-1.2694,-1.2523,-1.2434,-1.2434,-1.2345,-1.2174,-1.1906,-1.1825,-1.1776,-1.1768,-1.0994,-1.0427,-1.0181,0.0,0.0,0.0,0.0,0.0,0.0,0.0,0.0,0.0,0.0,0.0,-0.2896,-0.2341,-0.1895,-0.1926,-0.197,-0.2022,-0.208,-0.2127,-0.2128,-0.2068,-0.2162,-0.2083,-0.1806,-0.1839,-0.1735,-0.1779,-0.1495,-0.1061,-0.0775,-0.0934,-0.1092,-0.0628,-0.0316,-0.0159,-0.0638,-0.1124,-0.0161,0.2918,0.5358,0.7151,0.8122,0.943,1.0416,1.0394,1.0291,1.0204,1.0204,1.0204,1.0199,1.0204,1.0248,1.0297,1.0302,1.0346,1.0378,1.0384,1.0433,1.0471,1.0481,1.0568,1.0645,1.065,1.0693,1.0737,1.0742,1.0786,1.0808,1.0748,1.0737,1.077,-1.3551,-1.3823,-1.341,-1.3059,-1.2929,-1.2897,-1.2865,-1.2832,0.0,0.0,0.0,-1.2832,-1.2832,-1.2832,-1.2832,-1.2832,-1.2832,-1.2832,-1.2832,-1.2832,-1.2832,-1.2832,-1.2832,-1.2832,-1.2832,-1.2832,-1.2832,-1.2832,-1.2832,-1.2832,-1.2832,-1.2824,-1.2686,-1.2613,-1.2605,-1.2434,-1.228,-1.2125,-1.1955,-1.1874,-1.1866,-1.1358,-1.0955,-1.0435,-1.0054,-0.9557,-0.9069,-0.9084,-0.8641,-0.7511,-0.6517,-0.5796,-0.5696,-0.382,-0.3043,-0.3655,-0.2696,-0.2075,-0.208,-0.2131,-0.2168,-0.2177,-0.2248,-0.227,-0.2219,-0.2244,-0.2274,-0.2304,-0.2328,-0.2368,-0.2425,-0.2454,-0.217,-0.1412,-0.2043,-0.2201,-0.1576,-0.0954,-0.0641,-0.1126,-0.1949,-0.1797,0.0491,0.18,0.3431,0.5389,0.8521,1.0481,1.0471,1.0416,1.0362,1.0362,1.0351,1.0373,1.0384,1.0405,1.0416,1.0416,1.0438,1.0449,1.046,1.0525,1.0579,1.059,1.0688,1.0759,1.077,1.0797,1.0802,1.0802,1.0884,1.096,1.0976,1.0982,1.1003,-1.4574,-1.442,-1.4011,-1.3593,-1.3287,-1.3124,-1.297,-1.284,-1.284,-1.284,-1.2832,-1.2832,-1.2832,-1.2832,-1.2832,-1.2832,-1.2832,-1.2832,-1.2832,0.0,-1.2832,-1.2832,-1.2832,-1.2832,-1.2832,-1.2832,-1.2832,-1.2832,-1.2832,-1.2832,-1.2832,-1.2832,-1.2808,-1.2791,-1.2783,-1.2621,-1.2515,-1.2483,-1.232,-1.2231,-1.2231,-1.1831,-1.1479,-1.0942,-1.0179,-0.9673,-0.9523,-0.9919,-0.9868,-0.9466,-0.8453,-0.7286,-0.6106,-0.567,-0.4588,-0.2571,-0.2216,-0.2114,-0.214,-0.2174,-0.2217,-0.2266,-0.2283,-0.2286,-0.2281,-0.2304,-0.2333,-0.2363,-0.2369,-0.2397,-0.2454,-0.2467,-0.2327,-0.1725,-0.22,-0.2523,-0.2389,-0.2238,-0.1612,-0.0492,-0.1651,-0.2654,-0.2003,-0.1673,-0.0,0.3679,0.7179,1.0398,1.0164,1.0525,1.04,1.0384,1.0384,1.0384,1.0416,1.0476,1.0525,1.053,1.0612,1.0661,1.0655,1.0688,1.071,1.071,1.0813,1.0884,1.0895,1.0987,1.102,1.1025,1.1052,1.1101,1.1177,1.1199,1.1194,-1.4849,-1.4622,-1.4069,-1.3604,-1.3368,-1.3134,-1.3054,-1.3133,-1.3124,-1.3019,-1.284,-1.2832,-1.2832,-1.2832,-1.2832,-1.2832,-1.2832,-1.2832,-1.2832,-1.2832,-1.2832,-1.2832,-1.2832,-1.2832,-1.2832,-1.2832,-1.2832,-1.2832,-1.2832,-1.2832,-1.2832,-1.2832,-1.2832,-1.2832,-1.2832,-1.2751,-1.2718,-1.2702,-1.2442,-1.2304,-1.2304,-1.1799,-1.1381,-1.118,-1.0468,-1.0039,-0.9978,-1.0301,-1.0086,-0.9062,-0.8546,-0.797,-0.7463,-0.6735,-0.5743,-0.4475,-0.3713,-0.295,-0.2313,-0.2223,-0.226,-0.2288,-0.2305,-0.2313,-0.2313,-0.2326,-0.2345,-0.2376,-0.2393,-0.2421,-0.2465,-0.2484,-0.2343,-0.2199,-0.2357,-0.2526,-0.2555,-0.2577,-0.2276,-0.1651,-0.2163,-0.2679,-0.2692,-0.2694,-0.202,0.0841,0.3868,0.6053,0.7052,0.7821,0.8921,1.0245,1.0574,1.0579,1.0574,1.0612,1.065,1.065,1.0699,1.0732,1.0742,1.078,1.0829,1.0846,1.0938,1.1009,1.102,1.1063,1.1096,1.1112,1.1161,1.1215,1.1264,1.1319,1.1351,-1.4956,-1.4824,-1.4123,-1.3735,-1.3433,-1.3141,-1.3125,-1.3376,-1.3505,-1.3349,-1.2978,-1.2913,-1.2873,-1.284,-1.2832,-1.2832,-1.2832,-1.2832,-1.2832,-1.2832,-1.2832,-1.2832,-1.2832,-1.2832,-1.2832,-1.2832,-1.2832,-1.2832,-1.2832,-1.2832,-1.2832,-1.2832,-1.2832,-1.2832,-1.2832,-1.2832,-1.2832,-1.2816,-1.2564,-1.2426,-1.2426,-1.1788,-1.1532,-1.1404,-1.0891,-1.0513,-1.0378,-1.0642,-1.0121,-0.8951,-0.8822,-0.8733,-0.8557,-0.7515,-0.6762,-0.6293,-0.5117,-0.3675,-0.2358,-0.2264,-0.2293,-0.23,-0.232,-0.2333,-0.2333,-0.2339,-0.2356,-0.2386,-0.2409,-0.2438,-0.2474,-0.25,-0.2514,-0.2514,-0.2521,-0.2538,-0.2566,-0.2596,-0.2626,-0.2654,-0.2679,-0.2691,-0.2692,-0.2692,-0.2355,-0.1682,-0.0336,0.1344,0.3189,0.4698,0.654,0.8553,0.9898,1.0565,1.0581,1.0737,1.0737,1.0742,1.0737,1.0753,1.078,1.0862,1.0927,1.096,1.1058,1.1128,1.1145,1.1177,1.1194,1.121,1.127,1.1313,1.1324,1.1384,1.1449,-1.531,-1.4884,-1.4583,-1.4065,-1.3628,-1.376,-1.3678,-1.3401,-1.3667,-1.3651,-1.3303,-1.3141,-1.2986,-1.2848,-1.284,-1.2832,-1.2832,-1.2832,-1.2832,-1.2832,-1.2832,-1.2832,-1.2832,-1.2832,-1.2832,-1.2832,-1.2832,-1.2832,-1.2832,-1.2832,-1.2832,-1.2832,-1.2832,-1.2832,-1.2832,-1.2832,-1.2832,-1.2832,-1.2808,-1.2783,-1.2791,-1.2397,-1.2003,-1.1739,-1.1468,-1.108,-1.0663,-1.0683,-1.0677,-1.0545,-1.0399,-0.9877,-0.8823,-0.8424,-0.7759,-0.6439,-0.5163,-0.3742,-0.2558,-0.2288,-0.2303,-0.2326,-0.2331,-0.2334,-0.2335,-0.2358,-0.2386,-0.2413,-0.2423,-0.245,-0.2502,-0.2512,-0.2515,-0.2519,-0.2538,-0.2567,-0.2594,-0.2624,-0.2654,-0.2684,-0.269,-0.2692,-0.2692,-0.2692,-0.2692,-0.2524,-0.2187,-0.1009,0.1178,0.2184,0.2859,0.487,0.7391,0.9593,1.0111,1.0608,1.0283,1.044,1.0759,1.0634,1.0709,1.0922,1.0949,1.1079,1.1177,1.1253,1.1281,1.134,1.1406,1.1373,1.14,1.1433,1.1438,1.1444,1.1455,-1.5328,-1.491,-1.4617,-1.4148,-1.3798,-1.3798,-1.3758,-1.3685,-1.3833,-1.3776,-1.353,-1.3449,-1.3262,-1.2986,-1.2889,-1.2832,-1.2832,-1.2832,-1.2832,-1.2832,-1.2832,-1.2832,-1.2832,-1.2832,-1.2832,-1.2832,-1.2832,-1.2832,-1.2832,-1.2832,-1.2832,-1.2832,-1.2832,-1.2832,-1.2832,-1.2832,-1.2832,-1.2832,-1.2832,-1.2832,-1.27,-1.2312,-1.1916,-1.1776,-1.1247,-1.0857,-1.0717,-1.0717,-1.0717,-1.0717,-1.0717,-1.0452,-0.9915,-0.9782,-0.9279,-0.7868,-0.5684,-0.4233,-0.3712,-0.288,-0.232,-0.2333,-0.2349,-0.236,-0.2361,-0.2388,-0.2417,-0.2444,-0.2451,-0.2469,-0.2507,-0.2514,-0.2521,-0.2537,-0.2553,-0.2578,-0.2624,-0.2639,-0.2658,-0.2687,-0.2692,-0.2692,-0.2692,-0.2692,-0.2692,-0.2692,-0.2692,-0.2024,-0.0847,-0.0,0.0338,0.0512,0.2555,0.492,0.645,0.7847,0.8203,0.8552,0.9588,1.0475,1.0667,1.0923,1.115,1.1199,1.1297,1.1368,1.1384,1.1411,1.1455,1.1455,1.1455,1.1455,1.1455,1.1455,1.1455,-1.5453,-1.5123,-1.45,-1.4189,-1.3904,-1.3904,-1.3904,-1.3904,-1.3904,-1.3831,-1.3717,-1.3669,-1.3498,-1.3238,-1.3011,-1.2905,-1.2905,-1.2856,-1.2832,-1.2832,-1.2832,-1.2832,-1.2832,-1.2832,-1.2832,-1.2832,-1.2832,-1.2832,-1.2832,-1.2832,-1.2832,-1.2832,-1.2832,-1.2832,-1.2832,-1.2832,-1.2832,-1.2832,-1.2832,-1.2832,-1.2708,-1.218,-1.1784,-1.1784,-1.1115,-1.0717,-1.0717,-1.0717,-1.0717,-1.0717,-1.0717,-1.0738,-1.0778,-1.0785,-1.0187,-0.8982,-0.7047,-0.5428,-0.4732,-0.3622,-0.2773,-0.2346,-0.2367,-0.2382,-0.2394,-0.2418,-0.2444,-0.2465,-0.2476,-0.2492,-0.251,-0.2522,-0.2537,-0.2557,-0.2571,-0.2602,-0.2641,-0.2653,-0.2669,-0.2688,-0.2692,-0.2692,-0.2692,-0.2692,-0.2692,-0.2692,-0.2701,-0.271,-0.2561,-0.1533,-0.1366,-0.2602,-0.121,0.0345,0.1889,0.3958,0.5196,0.6759,0.8137,0.953,1.0096,1.0878,1.1302,1.1308,1.1406,1.1444,1.1433,1.1449,1.1455,1.1455,1.1455,1.1455,1.1455,1.1455,1.1455,-1.5922,-1.5298,-1.4407,-1.392,-1.3904,-1.3912,-1.3904,-1.3904,-1.3904,-1.3896,-1.3855,-1.3725,-1.3636,-1.3587,-1.3254,-1.3084,-1.3059,-1.2929,-1.2865,-1.2856,-1.2848,-1.284,-1.2832,-1.2832,-1.2832,-1.2832,-1.2832,-1.2832,-1.2832,-1.2832,-1.2832,-1.2832,-1.2832,-1.2832,-1.2832,-1.2832,-1.2832,-1.2832,-1.2832,-1.2832,-1.27,-1.2173,-1.1784,-1.1791,-1.1115,-1.0717,-1.0717,-1.0717,-1.0717,-1.0717,-1.0724,-1.0792,-1.0914,-1.0941,-1.0378,-0.9333,-0.8959,-0.7589,-0.5364,-0.4657,-0.3953,-0.2813,-0.2529,-0.2393,-0.242,-0.2448,-0.2467,-0.247,-0.2495,-0.2511,-0.2519,-0.254,-0.2556,-0.2568,-0.2611,-0.2638,-0.2647,-0.2672,-0.2688,-0.2691,-0.2692,-0.2692,-0.2692,-0.2692,-0.2694,-0.2699,-0.2717,-0.2737,-0.2747,-0.2589,-0.2602,-0.2616,-0.2628,-0.2461,-0.2265,0.0523,0.3133,0.4529,0.6115,0.7838,0.9463,1.076,1.0993,1.1218,1.1433,1.1455,1.1455,1.1455,1.1455,1.1455,1.1455,1.1455,1.1455,1.1455,1.1455,-1.6177,-1.5518,-1.4562,-1.418,-1.4083,-1.393,-1.3858,-1.3904,-1.3904,-1.3904,-1.3896,-1.3831,-1.3807,-1.3798,-1.3555,-1.3384,-1.3271,-1.3206,-1.3116,-1.3011,-1.3003,-1.2946,-1.284,-1.2832,-1.2832,-1.2832,-1.2832,-1.2832,-1.2832,-1.2832,-1.2832,-1.2832,-1.2832,-1.2832,-1.2832,-1.2832,-1.2832,-1.284,-1.2832,-1.2832,-1.2716,-1.2312,-1.1969,-1.1926,-1.1171,-1.0717,-1.0717,-1.0717,-1.0717,-1.0717,-1.0812,-1.0894,-1.0955,-1.1131,-1.0994,-1.0524,-0.9752,-0.8811,-0.7697,-0.6735,-0.5602,-0.4157,-0.3918,-0.3501,-0.276,-0.248,-0.2497,-0.25,-0.2506,-0.2521,-0.2541,-0.2553,-0.2575,-0.2611,-0.2634,-0.2656,-0.2672,-0.2686,-0.2692,-0.2692,-0.2692,-0.2692,-0.2692,-0.2692,-0.2701,-0.2718,-0.2731,-0.2754,-0.2784,-0.2791,-0.2797,-0.2829,-0.2834,-0.2831,-0.2845,-0.0887,0.1241,0.248,0.39,0.6024,0.7825,0.9777,1.0352,1.089,1.1271,1.1455,1.1455,1.1455,1.1455,1.1455,1.1455,1.1455,1.1455,1.1455,1.1455,-1.586,-1.5266,-1.4605,-1.4367,-1.4261,-1.3953,-1.3889,-1.4066,-1.401,-1.3985,-1.3977,-1.3928,-1.3904,-1.388,-1.3782,-1.3669,-1.353,-1.3433,-1.3303,-1.3189,-1.3181,-1.3124,-1.3027,-1.3011,-1.3011,-1.2994,-1.2938,-1.2921,-1.2913,-1.2865,-1.2897,-1.3003,-1.2954,-1.2954,-1.2994,-1.3011,-1.3011,-1.3003,-1.2869,-1.2877,-1.2869,-1.2476,-1.2127,-1.1939,-1.1319,-1.086,-1.0867,-1.086,-1.086,-1.0873,-1.0968,-1.1043,-1.1104,-1.1328,-1.1463,-1.1335,-1.0544,-0.9746,-0.9351,-0.8543,-0.6985,-0.5104,-0.4875,-0.4316,-0.2793,-0.2503,-0.2512,-0.2514,-0.2514,-0.2527,-0.2563,-0.2574,-0.2593,-0.2638,-0.2656,-0.2669,-0.269,-0.2691,-0.2692,-0.2692,-0.2692,-0.2692,-0.2694,-0.2702,-0.2717,-0.2736,-0.2752,-0.2787,-0.2815,-0.2823,-0.2823,-0.2863,-0.2855,-0.2855,-0.286,-0.1787,-0.0357,0.0893,0.1784,0.3934,0.6445,0.8413,0.9847,1.0382,1.0921,1.1277,1.1455,1.1455,1.1455,1.1455,1.1455,1.1455,1.1455,1.1455,1.1455,-1.5152,-1.4834,-1.4513,-1.4456,-1.444,-1.4128,-1.412,-1.4367,-1.4091,-1.4027,-1.4156,-1.3993,-1.3928,-1.3912,-1.3888,-1.388,-1.3807,-1.3555,-1.3409,-1.3376,-1.3368,-1.336,-1.3319,-1.3175,-1.3175,-1.3311,-1.3173,-1.31,-1.3092,-1.2978,-1.3043,-1.3271,-1.3165,-1.3165,-1.3352,-1.3319,-1.3336,-1.3183,-1.3166,-1.3191,-1.3086,-1.2643,-1.2376,-1.2268,-1.1565,-1.1151,-1.1165,-1.1151,-1.1124,-1.1138,-1.1151,-1.1233,-1.1369,-1.1518,-1.1613,-1.1619,-1.1482,-1.0819,-0.9753,-0.9639,-0.8258,-0.6101,-0.5228,-0.4647,-0.3128,-0.2668,-0.2514,-0.2514,-0.2519,-0.2538,-0.2586,-0.2601,-0.2615,-0.2645,-0.2672,-0.2688,-0.2691,-0.2692,-0.2692,-0.2695,-0.2698,-0.2694,-0.2701,-0.2721,-0.2742,-0.2757,-0.2788,-0.2822,-0.2834,-0.2849,-0.2868,-0.2872,-0.2868,-0.2868,-0.2871,-0.2694,-0.1615,-0.0538,0.0179,0.1792,0.4655,0.6981,0.8773,0.9665,1.0921,1.1277,1.1455,1.1455,1.1455,1.1455,1.1455,1.1455,1.1455,1.1455,1.1455,-1.565,-1.5336,-1.4982,-1.4732,-1.4627,-1.4619,-1.4562,-1.4432,-1.4523,-1.4506,-1.4326,-1.4172,-1.4091,-1.4058,-1.3961,-1.3904,-1.3888,-1.3774,-1.3677,-1.3571,-1.3563,-1.349,-1.3401,-1.3376,-1.3368,-1.336,-1.3311,-1.3287,-1.3271,-1.3222,-1.3271,-1.3336,-1.3319,-1.3311,-1.3384,-1.3368,-1.3368,-1.3223,-1.3231,-1.3368,-1.3368,-1.2964,-1.2612,-1.2425,-1.1741,-1.1369,-1.1463,-1.128,-1.1172,-1.1172,-1.1267,-1.1389,-1.1525,-1.1592,-1.166,-1.1755,-1.1762,-1.1683,-1.1379,-1.1326,-1.0498,-0.8602,-0.7277,-0.5923,-0.4388,-0.314,-0.2514,-0.2518,-0.2533,-0.2563,-0.2594,-0.2622,-0.2643,-0.2675,-0.2687,-0.2692,-0.2692,-0.2692,-0.2703,-0.272,-0.2724,-0.2732,-0.2748,-0.2766,-0.2776,-0.2793,-0.2816,-0.2836,-0.2856,-0.2866,-0.2874,-0.2874,-0.2874,-0.2874,-0.2874,-0.2874,-0.2334,-0.1615,-0.0897,0.0359,0.3045,0.573,0.752,0.9308,1.056,1.1099,1.1455,1.1455,1.1455,1.1455,1.1455,1.1455,1.1455,1.1455,1.1455,-1.5744,-1.5275,-1.5122,-1.4911,-1.4806,-1.4966,-1.49,-1.4627,-1.4877,-1.4844,-1.4505,-1.4351,-1.427,-1.4237,-1.4083,-1.401,-1.3993,-1.3937,-1.3847,-1.375,-1.3742,-1.3669,-1.3571,-1.3571,-1.3522,-1.3482,-1.3474,-1.3474,-1.3465,-1.3409,-1.3433,-1.3539,-1.3506,-1.3514,-1.3563,-1.3571,-1.3563,-1.3424,-1.3579,-1.3432,-1.3292,-1.2882,-1.2662,-1.2313,-1.1754,-1.1525,-1.1599,-1.143,-1.1335,-1.1355,-1.147,-1.1599,-1.1694,-1.1755,-1.1823,-1.1891,-1.1925,-1.1986,-1.2128,-1.2223,-1.1549,-1.0048,-0.8411,-0.6733,-0.517,-0.3452,-0.2517,-0.2533,-0.2548,-0.2575,-0.2612,-0.2634,-0.266,-0.2688,-0.2691,-0.2692,-0.2694,-0.2703,-0.2716,-0.2733,-0.2747,-0.2763,-0.2777,-0.2797,-0.2806,-0.2826,-0.2838,-0.2849,-0.2868,-0.2874,-0.2874,-0.2874,-0.2874,-0.2874,-0.2874,-0.2874,-0.2874,-0.2334,-0.1975,-0.0359,0.1792,0.4657,0.6984,0.9308,1.0921,1.1277,1.1455,1.1455,1.1455,1.1455,1.1455,1.1455,1.1455,1.1455,1.1455,-1.5429,-1.4968,-1.4968,-1.496,-1.4952,-1.4952,-1.4935,-1.4927,-1.4957,-1.4875,-1.4684,-1.4529,-1.4448,-1.4408,-1.427,-1.418,-1.4148,-1.401,-1.392,-1.3888,-1.388,-1.3855,-1.3839,-1.3831,-1.3766,-1.3677,-1.3652,-1.3652,-1.3644,-1.3522,-1.3563,-1.3815,-1.3725,-1.3725,-1.3823,-1.3888,-1.3855,-1.3847,-1.3872,-1.3579,-1.2993,-1.2738,-1.2632,-1.2201,-1.177,-1.1647,-1.1674,-1.166,-1.1633,-1.1647,-1.1748,-1.183,-1.187,-1.1986,-1.2033,-1.2067,-1.2074,-1.2155,-1.2264,-1.2318,-1.1747,-1.0446,-0.8905,-0.6896,-0.5495,-0.4093,-0.2849,-0.2559,-0.2568,-0.259,-0.2632,-0.2652,-0.2667,-0.269,-0.2701,-0.2699,-0.2698,-0.2722,-0.2743,-0.2751,-0.2769,-0.2788,-0.2795,-0.2818,-0.2829,-0.2838,-0.2855,-0.2868,-0.2872,-0.2874,-0.2874,-0.2874,-0.2874,-0.2874,-0.2874,-0.2874,-0.2874,-0.2694,-0.2334,-0.0897,0.1434,0.4299,0.7167,0.9491,1.1099,1.1277,1.1455,1.1455,1.1455,1.1455,1.1455,1.1455,1.1455,1.1455,1.1455,-1.5582,-1.4968,-1.4968,-1.4968,-1.4968,-1.4968,-1.4968,-1.496,-1.5072,-1.504,-1.4854,-1.4708,-1.4635,-1.4611,-1.4448,-1.4302,-1.4205,-1.4131,-1.4018,-1.3912,-1.3904,-1.3904,-1.3904,-1.3904,-1.388,-1.3831,-1.3815,-1.3831,-1.3831,-1.3758,-1.3798,-1.3896,-1.3855,-1.3847,-1.3896,-1.3904,-1.3904,-1.3904,-1.3904,-1.3626,-1.3047,-1.2323,-1.2086,-1.2351,-1.1921,-1.183,-1.1925,-1.1945,-1.1884,-1.1796,-1.1918,-1.1999,-1.2006,-1.2054,-1.2128,-1.221,-1.2237,-1.2291,-1.2406,-1.2447,-1.2159,-1.1869,-1.0186,-0.8636,-0.7129,-0.5396,-0.3995,-0.3071,-0.2609,-0.2628,-0.2647,-0.2668,-0.2694,-0.272,-0.2727,-0.2728,-0.2731,-0.2752,-0.2778,-0.28,-0.281,-0.2825,-0.2841,-0.2852,-0.2859,-0.2861,-0.2867,-0.2874,-0.2874,-0.2874,-0.2874,-0.2874,-0.2874,-0.2874,-0.2874,-0.2874,-0.2874,-0.2874,-0.2334,-0.1436,0.1613,0.5194,0.7885,1.058,1.1109,1.146,1.146,1.1455,1.1455,1.1455,1.1455,1.1455,1.1455,1.1455,1.1455,-1.5735,-1.4968,-1.4968,-1.4968,-1.4968,-1.4968,-1.4968,-1.4968,-1.4968,-1.4968,-1.4944,-1.4862,-1.4814,-1.4797,-1.4627,-1.4497,-1.4399,-1.4318,-1.4229,-1.414,-1.4058,-1.3985,-1.392,-1.3904,-1.3904,-1.3904,-1.3904,-1.3896,-1.3896,-1.3904,-1.3904,-1.3904,-1.3904,-1.3904,-1.3896,-1.3904,-1.3945,-1.4002,-1.4026,-1.3762,-1.3099,-1.251,-1.2115,-1.2206,-1.1925,-1.1979,-1.206,-1.2115,-1.2088,-1.1993,-1.2067,-1.2155,-1.2162,-1.2216,-1.2284,-1.2379,-1.2379,-1.242,-1.2494,-1.2556,-1.2596,-1.2298,-1.1065,-0.9545,-0.7848,-0.6101,-0.4524,-0.2944,-0.2638,-0.2652,-0.2669,-0.2694,-0.2717,-0.2736,-0.2761,-0.2769,-0.2759,-0.2784,-0.2807,-0.2826,-0.284,-0.2852,-0.2872,-0.2874,-0.2874,-0.2874,-0.2872,-0.2874,-0.2874,-0.2874,-0.2874,-0.2874,-0.2874,-0.2874,-0.2874,-0.2874,-0.2874,-0.2874,-0.2515,-0.1615,0.0717,0.4478,0.6984,0.9139,1.057,1.1465,1.146,1.1455,1.1455,1.1455,1.1455,1.1455,1.1455,1.1455,1.1455,-1.5735,-1.4968,-1.4968,-1.4968,-1.4968,-1.4968,-1.4968,-1.4968,-1.4968,-1.4968,-1.496,-1.4968,-1.4944,-1.4952,-1.4797,-1.4716,-1.4684,-1.4521,-1.4448,-1.4359,-1.4261,-1.414,-1.4018,-1.3928,-1.3904,-1.3904,-1.3904,-1.3904,-1.3904,-1.3904,-1.3904,-1.3912,-1.392,-1.3937,-1.3977,-1.3969,-1.4058,-1.4326,-1.4359,-1.3976,-1.3473,-1.3052,-1.2621,-1.2074,-1.2121,-1.2128,-1.2176,-1.2237,-1.225,-1.2115,-1.2237,-1.2305,-1.2325,-1.2433,-1.2481,-1.2481,-1.2481,-1.2494,-1.2542,-1.2657,-1.2739,-1.2443,-1.158,-1.0045,-0.8433,-0.6823,-0.5066,-0.3474,-0.2817,-0.2669,-0.2694,-0.2722,-0.2742,-0.2758,-0.28,-0.281,-0.2806,-0.2816,-0.2833,-0.2834,-0.2859,-0.2871,-0.2874,-0.2874,-0.2874,-0.2874,-0.2874,-0.2874,-0.2874,-0.2874,-0.2874,-0.2874,-0.2874,-0.2874,-0.2874,-0.2874,-0.2874,-0.2874,-0.2515,-0.1795,-0.0897,0.2149,0.4834,0.716,0.9669,1.0926,1.146,1.1455,1.1455,1.1455,1.1455,1.1455,1.1455,1.1455,1.1455,-1.5429,-1.4968,-1.4968,-1.4968,-1.4968,-1.4968,-1.4968,-1.4968,-1.4968,-1.4968,-1.4968,-1.4968,-1.4968,-1.496,-1.4911,-1.4838,-1.4732,-1.4659,-1.4578,-1.4432,-1.4408,-1.4367,-1.4245,-1.4066,-1.392,-1.392,-1.3912,-1.3912,-1.3912,-1.3945,-1.3904,-1.3937,-1.4066,-1.4123,-1.4131,-1.4221,-1.4326,-1.4375,-1.4531,-1.412,-1.3572,-1.314,-1.2742,-1.223,-1.2332,-1.2393,-1.2406,-1.244,-1.244,-1.2427,-1.2427,-1.244,-1.2447,-1.2474,-1.2501,-1.2501,-1.2515,-1.2556,-1.2664,-1.2725,-1.2786,-1.2901,-1.2481,-1.1708,-1.0003,-0.8212,-0.6608,-0.5005,-0.3519,-0.2861,-0.272,-0.2732,-0.2761,-0.2796,-0.2819,-0.2837,-0.2851,-0.2859,-0.286,-0.2864,-0.2868,-0.2874,-0.2874,-0.2874,-0.2874,-0.2874,-0.2874,-0.2874,-0.2874,-0.2874,-0.2874,-0.2874,-0.2874,-0.2874,-0.2874,-0.2874,-0.2874,-0.2874,-0.2515,-0.1976,-0.1077,-0.0,0.2866,0.6085,0.9317,1.0392,1.1465,1.1455,1.1455,1.1455,1.1455,1.1455,1.1455,1.1455,1.1455,-1.5429,-1.4968,-1.4968,-1.4968,-1.4968,-1.4968,-1.4968,-1.4968,-1.4968,-1.4968,-1.4968,-1.4968,-1.4968,-1.4968,-1.496,-1.4903,-1.4854,-1.483,-1.4781,-1.4684,-1.4619,-1.4562,-1.4513,-1.431,-1.4148,-1.4148,-1.4156,-1.4148,-1.4148,-1.414,-1.4172,-1.4148,-1.4253,-1.4294,-1.4294,-1.4391,-1.4464,-1.4546,-1.4562,-1.4461,-1.4247,-1.3642,-1.3051,-1.2532,-1.2461,-1.2501,-1.2494,-1.2494,-1.2501,-1.2501,-1.2501,-1.2501,-1.2501,-1.2501,-1.2501,-1.2508,-1.2583,-1.263,-1.2725,-1.2861,-1.2976,-1.3051,-1.3119,-1.2206,-1.0941,-0.9633,-0.7995,-0.6028,-0.4537,-0.3715,-0.2906,-0.2772,-0.2799,-0.2819,-0.2842,-0.2857,-0.287,-0.2874,-0.2874,-0.2874,-0.2874,-0.2874,-0.2874,-0.2874,-0.2874,-0.2874,-0.2874,-0.2874,-0.2874,-0.2874,-0.2874,-0.2874,-0.2874,-0.2874,-0.2874,-0.2874,-0.2874,-0.2874,-0.2874,-0.2156,-0.1436,-0.0359,0.0717,0.3939,0.7163,1.058,1.1476,1.1465,1.146,1.1455,1.1455,1.1455,1.1455,1.1455,1.1455,-1.5275,-1.4968,-1.4968,-1.4968,-1.4968,-1.4968,-1.4968,-1.4968,-1.4968,-1.4968,-1.4968,-1.4968,-1.4968,-1.4968,-1.4968,-1.4968,-1.496,-1.496,-1.4911,-1.4895,-1.4797,-1.4757,-1.47,-1.4594,-1.4513,-1.4513,-1.4416,-1.4399,-1.4399,-1.4432,-1.4367,-1.4416,-1.4464,-1.4473,-1.4473,-1.4521,-1.4611,-1.4732,-1.4597,-1.4662,-1.4637,-1.4022,-1.3091,-1.2635,-1.2494,-1.2501,-1.2501,-1.2501,-1.2515,-1.2535,-1.2535,-1.2549,-1.2562,-1.2542,-1.2535,-1.2549,-1.2684,-1.2786,-1.2868,-1.3017,-1.3159,-1.32,-1.3308,-1.2714,-1.1552,-1.0704,-0.9207,-0.7379,-0.5723,-0.4409,-0.3093,-0.2789,-0.2822,-0.284,-0.286,-0.2872,-0.2874,-0.2874,-0.2874,-0.2874,-0.2874,-0.2874,-0.2874,-0.2874,-0.2874,-0.2874,-0.2874,-0.2874,-0.2874,-0.2874,-0.2874,-0.2874,-0.2874,-0.2874,-0.2874,-0.2874,-0.2874,-0.2874,-0.2874,-0.2335,-0.1616,-0.0538,0.0538,0.1791,0.4834,0.8242,1.112,1.1465,1.146,1.146,1.1455,1.1455,1.1455,1.1455,1.1455,-1.5122,-1.4968,-1.4968,-1.4968,-1.4968,-1.4968,-1.4968,-1.4968,-1.4968,-1.4968,-1.4968,-1.4968,-1.4968,-1.4968,-1.4968,-1.4968,-1.4968,-1.4968,-1.4968,-1.4968,-1.4911,-1.4903,-1.4879,-1.4846,-1.4838,-1.4789,-1.4627,-1.4481,-1.4464,-1.4432,-1.4497,-1.4481,-1.4586,-1.4659,-1.47,-1.4789,-1.4838,-1.4879,-1.4742,-1.4645,-1.453,-1.3752,-1.2965,-1.2501,-1.2501,-1.2501,-1.2501,-1.2508,-1.2556,-1.2678,-1.2691,-1.2759,-1.2807,-1.2752,-1.2712,-1.2725,-1.2834,-1.2956,-1.3051,-1.3125,-1.3247,-1.3329,-1.3383,-1.3397,-1.2561,-1.157,-1.0414,-0.8932,-0.6789,-0.4636,-0.2982,-0.2825,-0.2841,-0.2859,-0.2868,-0.2874,-0.2874,-0.2874,-0.2874,-0.2874,-0.2874,-0.2874,-0.2874,-0.2874,-0.2874,-0.2874,-0.2874,-0.2874,-0.2874,-0.2874,-0.2874,-0.2874,-0.2874,-0.2874,-0.2874,-0.2874,-0.2874,-0.2874,-0.2874,-0.2515,-0.1796,-0.0718,-0.0,-0.0,-0.0,0.6803,0.913,1.0926,1.146,1.146,1.1455,1.1455,1.1455,1.1455,1.1455,-1.4968,-1.4968,-1.4968,-1.4968,-1.4968,-1.4968,-1.4968,-1.4968,-1.4968,-1.4968,-1.4968,-1.4968,-1.4968,-1.4968,-1.4968,-1.4968,-1.4968,-1.4968,-1.4968,-1.4968,-1.4968,-1.4968,-1.4968,-1.4968,-1.4968,-1.4919,-1.4781,-1.4692,-1.4708,-1.4716,-1.4692,-1.4732,-1.4806,-1.4838,-1.4854,-1.4911,-1.4968,-1.4968,-1.4822,-1.4523,-1.4222,-1.3281,-1.2656,-1.2501,-1.2501,-1.2501,-1.2515,-1.2596,-1.2651,-1.2725,-1.2807,-1.2881,-1.2935,-1.2969,-1.2929,-1.2895,-1.299,-1.3091,-1.318,-1.3234,-1.3329,-1.3383,-1.3403,-1.3397,-1.3258,-1.2624,-1.1177,-0.9215,-0.741,-0.4881,-0.3,-0.2841,-0.2859,-0.287,-0.2874,-0.2874,-0.2874,-0.2874,-0.2874,-0.2874,-0.2874,-0.2874,-0.2874,-0.2874,-0.2874,-0.2874,-0.2874,-0.2874,-0.2874,-0.2874,-0.2874,-0.2874,-0.2874,-0.2874,-0.2874,-0.2874,-0.2874,-0.2874,-0.2874,-0.2515,-0.1976,-0.1077,-0.0,-0.0,-0.0,-0.0,0.896,1.1303,1.1471,1.146,1.1455,1.1455,1.1455,1.1455,1.146,-1.4968,-1.4968,-1.4968,-1.4968,-1.4968,-1.4968,-1.4968,-1.4968,-1.4968,-1.4968,-1.4968,-1.4968,-1.4968,-1.4968,-1.4968,-1.4968,-1.4968,-1.4968,-1.4968,-1.4968,-1.4968,-1.4968,-1.4968,-1.4968,-1.4968,-1.496,-1.4935,-1.4968,-1.4919,-1.4919,-1.4952,-1.4927,-1.4952,-1.4968,-1.496,-1.496,-1.4968,-1.4968,-1.4814,-1.4507,-1.3583,-1.2965,-1.2501,-1.2515,-1.2528,-1.2556,-1.2576,-1.2705,-1.2793,-1.2861,-1.2942,-1.3024,-1.3064,-1.3159,-1.3159,-1.3091,-1.3166,-1.3207,-1.3254,-1.3315,-1.3383,-1.3397,-1.3098,-1.2938,-1.2643,-1.1896,-1.0811,-0.8161,-0.6651,-0.4765,-0.3196,-0.286,-0.2871,-0.2874,-0.2874,-0.2874,-0.2874,-0.2874,-0.2874,-0.2874,-0.2874,-0.2874,-0.2874,-0.2874,-0.2874,-0.2874,-0.2874,-0.2874,-0.2874,-0.2874,-0.2874,-0.2874,-0.2874,-0.2874,-0.2874,-0.2874,-0.2874,-0.2874,-0.2874,-0.2694,-0.2335,-0.1796,-0.0,-0.0,-0.0,-0.0,-0.0,1.113,1.1476,1.146,1.146,1.1455,1.1455,1.1465,1.1476,-1.4968,-1.4968,-1.4968,-1.4968,-1.4968,-1.4968,-1.4968,-1.4968,-1.4968,-1.4968,-1.4968,-1.4968,-1.4968,-1.4968,-1.4968,-1.4968,-1.4968,-1.4968,-1.4968,-1.4968,-1.4968,-1.4968,-1.4968,-1.4968,-1.4968,-1.4968,-1.4968,-1.4968,-1.4968,-1.4968,-1.4968,-1.4968,-1.4968,-1.4968,-1.4968,-1.4968,-1.4968,-1.4968,-1.4669,-1.4053,-1.3288,-1.2831,-1.2522,-1.2556,-1.2474,-1.2541,-1.2725,-1.2847,-1.2809,-1.3085,-1.3119,-1.3214,-1.3322,-1.3356,-1.337,-1.3356,-1.337,-1.337,-1.337,-1.3403,-1.3431,-1.3118,-1.234,-1.1379,-1.1097,-0.9963,-0.8507,-0.615,-0.5646,-0.4786,-0.3393,-0.287,-0.2874,-0.2874,-0.2874,-0.2874,-0.2874,-0.2874,-0.2874,-0.2874,-0.2874,-0.2874,-0.2874,-0.2874,-0.2874,-0.2874,-0.2874,-0.2874,-0.2874,-0.2874,-0.2874,-0.2874,-0.2874,-0.2874,-0.2874,-0.2874,-0.2874,-0.2874,-0.2694,-0.2694,-0.2515,-0.1976,-0.0,-0.0,-0.0,-0.0,-0.0,0.806,1.0392,1.1471,1.1465,1.1465,1.1455,1.1471,1.1509,-1.4968,-1.4968,-1.4968,-1.4968,-1.4968,-1.4968,-1.4968,-1.4968,-1.4968,-1.4968,-1.4968,-1.4968,-1.4968,-1.4968,-1.4968,-1.4968,-1.4968,-1.4968,-1.4968,-1.4968,-1.4968,-1.4968,-1.4968,-1.4968,-1.4968,-1.4968,-1.4968,-1.4968,-1.4968,-1.4968,-1.4968,-1.4968,-1.4968,-1.4968,-1.4968,-1.4968,-1.4968,-1.4814,-1.4523,-1.4114,-1.3545,-1.3106,-1.2671,-1.2752,-1.2661,-1.2688,-1.2895,-1.2996,-1.3098,-1.3186,-1.3241,-1.3322,-1.3383,-1.3397,-1.3397,-1.3403,-1.3485,-1.3485,-1.3424,-1.3485,-1.3519,-1.3392,-1.2809,-1.2228,-1.109,-0.9234,-0.7377,-0.5867,-0.5695,-0.4642,-0.3406,-0.2874,-0.2874,-0.2874,-0.2874,-0.2874,-0.2874,-0.2874,-0.2874,-0.2874,-0.2874,-0.2874,-0.2874,-0.2874,-0.2874,-0.2874,-0.2874,-0.2874,-0.2874,-0.2874,-0.2874,-0.2874,-0.2874,-0.2874,-0.2874,-0.2874,-0.2874,-0.2694,-0.1976,-0.2156,-0.2515,-0.1976,-0.0,-0.0,-0.0,-0.0,-0.0,0.6091,0.9688,1.0763,1.1476,1.1293,1.1115,1.1558,1.1618,-1.4968,-1.4968,-1.4968,-1.4968,-1.4968,-1.4968,-1.4968,-1.4968,-1.4968,-1.4968,-1.4968,-1.4968,-1.4968,-1.4968,-1.4968,-1.4968,-1.4968,-1.4968,-1.4968,-1.4968,-1.4968,-1.4968,-1.4968,-1.4968,-1.4968,-1.4968,-1.4968,-1.4968,-1.4968,-1.4968,-1.4968,-1.4968,-1.4968,-1.4968,-1.4968,-1.4976,-1.4984,-1.5057,-1.4601,-1.422,-1.3863,-1.3418,-1.3006,-1.2922,-1.2983,-1.2849,-1.303,-1.3152,-1.3227,-1.3261,-1.3329,-1.3383,-1.3397,-1.3397,-1.3397,-1.3431,-1.3526,-1.3566,-1.3546,-1.3587,-1.3661,-1.3383,-1.2435,-1.0993,-0.9513,-0.8132,-0.6735,-0.4834,-0.4836,-0.4122,-0.3412,-0.2874,-0.2874,-0.2874,-0.2874,-0.2874,-0.2874,-0.2874,-0.2874,-0.2874,-0.2874,-0.2874,-0.2874,-0.2874,-0.2874,-0.2874,-0.2874,-0.2874,-0.2874,-0.2874,-0.2874,-0.2874,-0.2874,-0.2874,-0.2874,-0.2874,-0.2874,-0.2694,-0.1976,-0.1436,-0.1616,-0.0,-0.0,-0.0,-0.0,-0.0,-0.0,-0.0,0.8986,0.879,0.9134,1.0397,1.0784,1.1241,1.1726,-1.4968,-1.4968,-1.4968,-1.4968,-1.4968,-1.4968,-1.4968,-1.4968,-1.4968,-1.4968,-1.4968,-1.4968,-1.4968,-1.4968,-1.4968,-1.4968,-1.4968,-1.4968,-1.4968,-1.4968,-1.4968,-1.4968,-1.4968,-1.4968,-1.4968,-1.4968,-1.4968,-1.4968,-1.4968,-1.4968,-1.4968,-1.4968,-1.4976,-1.4968,-1.4984,-1.5,-1.5098,-1.5023,-1.4751,-1.4373,-1.4169,-1.3735,-1.3283,-1.3003,-1.3091,-1.2996,-1.3166,-1.3288,-1.3356,-1.3356,-1.3383,-1.3397,-1.3397,-1.3397,-1.3403,-1.3471,-1.358,-1.3641,-1.3682,-1.3749,-1.3817,-1.2834,-1.1177,-0.9,-0.7655,-0.4832,-0.3411,-0.3409,-0.359,-0.3411,-0.3053,-0.2874,-0.2874,-0.2874,-0.2874,-0.2874,-0.2874,-0.2874,-0.2874,-0.2874,-0.2874,-0.2874,-0.2874,-0.2874,-0.2874,-0.2874,-0.2874,-0.2874,-0.2874,-0.2874,-0.2874,-0.2874,-0.2874,-0.2874,-0.2874,-0.2874,-0.2874,-0.2515,-0.1976,-0.1077,-0.0539,-0.0,-0.0,-0.0,-0.0,-0.0,-0.0,-0.0,-0.0,-0.0,0.6448,0.7717,0.9955,1.1528,1.183,-1.4968,-1.4968,-1.4968,-1.4968,-1.4968,-1.4968,-1.4968,-1.4968,-1.4968,-1.4968,-1.4968,-1.4968,-1.4968,-1.4968,-1.4968,-1.4968,-1.4968,-1.4968,-1.4968,-1.4968,-1.4968,-1.4968,-1.4968,-1.4968,-1.4968,-1.4968,-1.4968,-1.4968,-1.4968,-1.5,-1.5065,-1.5074,-1.5041,-1.4976,-1.4984,-1.5098,-1.5236,-1.52,-1.4781,-1.4373,-1.4348,-1.3746,-1.3295,-1.3241,-1.3261,-1.3308,-1.3322,-1.3363,-1.339,-1.3397,-1.3397,-1.3403,-1.3417,-1.341,-1.3458,-1.3539,-1.3682,-1.3783,-1.3871,-1.3953,-1.4014,-1.341,-1.0817,-0.8195,-0.716,-0.4841,-0.3233,-0.2874,-0.2874,-0.2874,-0.2874,-0.2874,-0.2874,-0.2874,-0.2874,-0.2874,-0.2874,-0.2874,-0.2874,-0.2874,-0.2874,-0.2874,-0.2874,-0.2874,-0.2874,-0.2874,-0.2874,-0.2874,-0.2874,-0.2874,-0.2874,-0.2874,-0.2874,-0.2874,-0.2874,-0.2874,-0.2874,-0.2515,-0.2156,-0.1257,-0.0,-0.0,-0.0,-0.0,-0.0,-0.0,-0.0,-0.0,-0.0,-0.0,-0.0,0.4861,0.7642,1.0886,1.1933,-1.4968,-1.4968,-1.4968,-1.4968,-1.4968,-1.4968,-1.4968,-1.4968,-1.4968,-1.4968,-1.4968,-1.4968,-1.4968,-1.4968,-1.4968,-1.4968,-1.4968,-1.4968,-1.4968,-1.4968,-1.4968,-1.4968,-1.4968,-1.4968,-1.4968,-1.4976,-1.5187,-1.5212,-1.5074,-1.5106,-1.5212,-1.5252,-1.5204,-1.5163,-1.5179,-1.5252,-1.5415,-1.5385,-1.5121,-1.4547,-1.4527,-1.4066,-1.3432,-1.3535,-1.3383,-1.3383,-1.3383,-1.3397,-1.3397,-1.3397,-1.3403,-1.3431,-1.3451,-1.3492,-1.3553,-1.3682,-1.3824,-1.396,-1.4041,-1.4136,-1.4183,-1.3716,-1.1594,-0.9651,-0.7874,-0.5557,-0.3947,-0.2874,-0.2874,-0.2874,-0.2874,-0.2874,-0.2874,-0.2874,-0.2874,-0.2874,-0.2874,-0.2874,-0.2874,-0.2874,-0.2874,-0.2874,-0.2874,-0.2874,-0.2874,-0.2874,-0.2874,-0.2874,-0.2874,-0.2874,-0.2874,-0.2874,-0.2874,-0.2874,-0.2874,-0.2874,-0.2874,-0.2874,-0.2335,-0.1436,-0.0,-0.0,-0.0,-0.0,-0.0,-0.0,-0.0,-0.0,-0.0,-0.0,-0.0,-0.0,0.4942,0.797,1.1253,-1.4968,-1.4968,-1.4968,-1.4968,-1.4968,-1.4968,-1.4968,-1.4968,-1.4968,-1.4968,-1.4968,-1.4968,-1.4968,-1.4968,-1.4968,-1.4968,-1.4968,-1.4968,-1.4968,-1.4968,-1.4968,-1.4968,-1.4968,-1.4968,-1.4968,-1.5017,-1.5228,-1.5302,-1.5212,-1.5293,-1.5407,-1.5512,-1.5496,-1.548,-1.5504,-1.5504,-1.5601,-1.574,-1.5602,-1.5217,-1.481,-1.4511,-1.4038,-1.3556,-1.3397,-1.3397,-1.3397,-1.3397,-1.3397,-1.3397,-1.3431,-1.3485,-1.3573,-1.3607,-1.3695,-1.3831,-1.3966,-1.4055,-1.4089,-1.4217,-1.4278,-1.4115,-1.1976,-1.0367,-0.8587,-0.6627,-0.4485,-0.3233,-0.2874,-0.2874,-0.2874,-0.2874,-0.2874,-0.2874,-0.2874,-0.2874,-0.2874,-0.2874,-0.2874,-0.2874,-0.2874,-0.2874,-0.2874,-0.2874,-0.2874,-0.2874,-0.2874,-0.2874,-0.2874,-0.2874,-0.2874,-0.2874,-0.2874,-0.2874,-0.2874,-0.2874,-0.2874,-0.2874,-0.2515,-0.1616,-0.0,-0.0,-0.0,-0.0,-0.0,-0.0,-0.0,-0.0,-0.0,-0.0,-0.0,-0.0,-0.0,0.5587,0.9044,-1.4968,-1.4968,-1.4968,-1.4968,-1.4968,-1.4968,-1.4968,-1.4968,-1.4968,-1.4968,-1.4968,-1.4968,-1.4968,-1.4968,-1.4968,-1.4968,-1.4968,-1.4968,-1.4968,-1.4968,-1.4968,-1.4968,-1.4968,-1.4968,-1.4968,-1.4984,-1.5212,-1.5335,-1.5228,-1.5382,-1.5528,-1.5626,-1.5764,-1.5788,-1.5715,-1.5699,-1.5772,-1.5918,-1.5631,-1.5326,-1.4713,-1.439,-1.4059,-1.3397,-1.3397,-1.3397,-1.3397,-1.3397,-1.3397,-1.3417,-1.3458,-1.3573,-1.3654,-1.3695,-1.3844,-1.3953,-1.4075,-1.4122,-1.419,-1.4285,-1.4292,-1.3761,-1.2692,-1.0728,-0.8765,-0.6806,-0.4841,-0.3411,-0.2874,-0.2874,-0.2874,-0.2874,-0.2874,-0.2874,-0.2874,-0.2874,-0.2874,-0.2874,-0.2874,-0.2874,-0.2874,-0.2874,-0.2874,-0.2874,-0.2874,-0.2874,-0.2874,-0.2874,-0.2874,-0.2874,-0.2874,-0.2874,-0.2874,-0.2874,-0.2874,-0.2874,-0.2694,-0.2335,-0.2335,-0.1976,-0.0,-0.0,-0.0,-0.0,-0.0,-0.0,-0.0,-0.0,-0.0,-0.0,-0.0,-0.0,-0.0,0.4301,0.7953,-1.4968,-1.4968,-1.4968,-1.4968,-1.4968,-1.4968,-1.4968,-1.4968,-1.4968,-1.4968,-1.4968,-1.4968,-1.4968,-1.4968,-1.4968,-1.4968,-1.4968,-1.4968,-1.4968,-1.4968,-1.4968,-1.4968,-1.4968,-1.4968,-1.4968,-1.4992,-1.5114,-1.5244,-1.5366,-1.5472,-1.5658,-1.5853,-1.5983,-1.5943,-1.5886,-1.5886,-1.591,-1.5843,-1.5695,-1.5365,-1.4886,-1.439,-1.4059,-1.3562,-1.3397,-1.3397,-1.3397,-1.3397,-1.3403,-1.3444,-1.3532,-1.3654,-1.3722,-1.3844,-1.3987,-1.4102,-1.4163,-1.4211,-1.4272,-1.4292,-1.4299,-1.4122,-1.3046,-1.1261,-0.9121,-0.7517,-0.5378,-0.3949,-0.3053,-0.2874,-0.2874,-0.2874,-0.2874,-0.2874,-0.2874,-0.2874,-0.2874,-0.2874,-0.2874,-0.2874,-0.2874,-0.2874,-0.2874,-0.2874,-0.2874,-0.2874,-0.2874,-0.2874,-0.2874,-0.2874,-0.2874,-0.2874,-0.2874,-0.2874,-0.2874,-0.2874,-0.2515,-0.1976,-0.0,-0.0,-0.0,-0.0,-0.0,-0.0,-0.0,-0.0,-0.0,-0.0,-0.0,-0.0,-0.0,-0.0,-0.0,0.2438,0.5887,-1.4968,-1.4968,-1.4968,-1.4968,-1.4968,-1.4968,-1.4968,-1.4968,-1.4968,-1.4968,-1.4968,-1.4968,-1.4968,-1.4968,-1.4968,-1.4968,-1.4968,-1.4968,-1.4968,-1.4968,-1.4968,-1.4968,-1.4968,-1.4968,-1.4968,-1.5082,-1.5228,-1.5366,-1.5536,-1.5756,-1.5943,-1.6008,-1.6024,-1.6016,-1.6008,-1.6008,-1.6016,-1.604,-1.5875,-1.5546,-1.4886,-1.4713,-1.4225,-1.3728,-1.3397,-1.3397,-1.341,-1.3424,-1.3431,-1.3485,-1.358,-1.3715,-1.3851,-1.3994,-1.415,-1.4245,-1.4278,-1.4292,-1.4292,-1.4299,-1.4299,-1.4299,-1.4122,-1.1976,-1.0011,-0.8409,-0.6448,-0.4485,-0.3233,-0.3053,-0.2874,-0.2874,-0.2874,-0.2874,-0.2874,-0.2874,-0.2874,-0.2874,-0.2874,-0.2874,-0.2874,-0.2874,-0.2874,-0.2874,-0.2874,-0.2874,-0.2874,-0.2874,-0.2874,-0.2874,-0.2874,-0.2874,-0.2874,-0.2874,-0.2874,-0.2694,-0.2335,-0.1796,-0.0,-0.0,-0.0,-0.0,-0.0,-0.0,-0.0,-0.0,-0.0,-0.0,-0.0,-0.0,-0.0,-0.0,-0.0,-0.0,0.3041,-1.4968,-1.4968,-1.4968,-1.4968,-1.4968,-1.4968,-1.4968,-1.4968,-1.4968,-1.4968,-1.4968,-1.4968,-1.4968,-1.4968,-1.4968,-1.4968,-1.4968,-1.4968,-1.4968,-1.4968,-1.4968,-1.4968,-1.4968,-1.4968,-1.4968,-1.5049,-1.536,-1.5431,-1.5569,-1.5869,-1.604,-1.604,-1.6048,-1.6048,-1.6048,-1.6048,-1.6048,-1.6048,-1.6048,-1.5554,-1.5051,-1.4878,-1.4225,-1.3728,-1.3397,-1.3403,-1.3424,-1.3512,-1.3539,-1.3593,-1.381,-1.3973,-1.4,-1.4143,-1.4278,-1.4285,-1.4299,-1.4299,-1.4299,-1.4299,-1.4299,-1.4299,-1.4299,-1.3046,-1.1083,-0.9299,-0.7517,-0.5378,-0.3411,-0.3053,-0.2874,-0.2874,-0.2874,-0.2874,-0.2874,-0.2874,-0.2874,-0.2874,-0.2874,-0.2874,-0.2874,-0.2874,-0.2874,-0.2874,-0.2874,-0.2874,-0.2874,-0.2874,-0.2874,-0.2874,-0.2874,-0.2874,-0.2874,-0.2874,-0.2515,-0.2515,-0.1976,-0.0,-0.0,-0.0,-0.0,-0.0,-0.0,-0.0,-0.0,-0.0,-0.0,-0.0,-0.0,-0.0,-0.0,-0.0,-0.0,-0.0,-0.0,-1.4968,-1.4968,-1.4968,-1.4968,-1.4968,-1.4968,-1.4968,-1.4968,-1.4968,-1.4968,-1.4968,-1.4968,-1.4968,-1.4968,-1.4968,-1.4968,-1.4968,-1.4968,-1.4968,-1.4968,-1.4968,-1.4968,-1.4968,-1.4968,-1.4968,-1.5204,-1.5368,-1.5447,-1.5601,-1.5845,-1.6048,-1.6048,-1.6048,-1.6048,-1.6048,-1.6048,-1.6048,-1.6048,-1.5883,-1.5719,-1.5216,-1.4886,-1.4225,-1.3562,-1.3397,-1.3424,-1.3485,-1.3768,-1.3648,-1.3722,-1.3966,-1.4068,-1.4095,-1.4204,-1.4292,-1.4299,-1.4299,-1.4299,-1.4299,-1.4299,-1.4299,-1.4299,-1.4299,-1.3761,-1.2154,-1.0189,-0.8052,-0.5733,-0.4126,-0.2874,-0.2874,-0.2874,-0.2874,-0.2874,-0.2874,-0.2874,-0.2874,-0.2874,-0.2874,-0.2874,-0.2874,-0.2874,-0.2874,-0.2874,-0.2874,-0.2874,-0.2874,-0.2874,-0.2874,-0.2874,-0.2874,-0.2874,-0.2874,-0.2874,-0.2515,-0.2335,-0.1976,-0.1436,-0.0,-0.0,-0.0,-0.0,-0.0,-0.0,-0.0,-0.0,-0.0,-0.0,-0.0,-0.0,-0.0,-0.0,-0.0,-0.0,-0.0,-1.4968,-1.4968,-1.4968,-1.4968,-1.4968,-1.4968,-1.4968,-1.4968,-1.4968,-1.4968,-1.4968,-1.4968,-1.4968,-1.4968,-1.4968,-1.4968,-1.4968,-1.4968,-1.4968,-1.4968,-1.4968,-1.4968,-1.4968,-1.4968,-1.4968,-1.509,-1.5293,-1.5536,-1.565,-1.5869,-1.6048,-1.6048,-1.6048,-1.6048,-1.6048,-1.6048,-1.6048,-1.6048,-1.5883,-1.5719,-1.5224,-1.4721,-1.4225,-1.3562,-1.3417,-1.3458,-1.358,-1.3661,-1.3715,-1.3858,-1.3994,-1.4095,-1.4156,-1.4217,-1.4278,-1.4299,-1.4299,-1.4299,-1.4299,-1.4299,-1.4299,-1.4299,-1.4299,-1.4122,-1.2869,-1.0367,-0.7874,-0.6448,-0.4843,-0.3233,-0.2874,-0.2874,-0.2874,-0.2874,-0.2874,-0.2874,-0.2874,-0.2874,-0.2874,-0.2874,-0.2874,-0.2874,-0.2874,-0.2874,-0.2874,-0.2874,-0.2874,-0.2874,-0.2874,-0.2874,-0.2874,-0.2874,-0.2874,-0.2874,-0.2874,-0.2515,-0.1976,-0.1257,-0.0359,-0.0,-0.0,-0.0,-0.0,-0.0,-0.0,-0.0,-0.0,-0.0,-0.0,-0.0,-0.0,-0.0,-0.0,-0.0,-0.0,-1.4968,-1.4968,-1.4968,-1.4968,-1.4968,-1.4968,-1.4968,-1.4968,-1.4968,-1.4968,-1.4968,-1.4968,-1.4968,-1.4968,-1.4968,-1.4968,-1.4968,-1.4968,-1.4968,-1.4968,-1.4968,-1.4968,-1.4968,-1.4968,-1.4968,-1.509,-1.5317,-1.5642,-1.5829,-1.5975,-1.6048,-1.6048,-1.6048,-1.6048,-1.6048,-1.6048,-1.6048,-1.6048,-1.5891,-1.5389,-1.4721,-1.4397,-1.3901,-1.3569,-1.3417,-1.3492,-1.3614,-1.3743,-1.3858,-1.4014,-1.4163,-1.4231,-1.4251,-1.4285,-1.4292,-1.4299,-1.4299,-1.4299,-1.4299,-1.4299,-1.4299,-1.4299,-1.4299,-1.4299,-1.3046,-1.0189,-0.823,-0.6984,-0.5378,-0.3949,-0.2874,-0.2874,-0.2874,-0.2874,-0.2874,-0.2874,-0.2874,-0.2874,-0.2874,-0.2874,-0.2874,-0.2874,-0.2874,-0.2874,-0.2874,-0.2874,-0.2874,-0.2874,-0.2874,-0.2874,-0.2874,-0.2874,-0.2874,-0.2874,-0.2874,-0.2694,-0.2156,-0.1436,-0.0718,-0.0,-0.0,-0.0,-0.0,-0.0,-0.0,-0.0,-0.0,-0.0,-0.0,-0.0,-0.0,-0.0,-0.0,-0.0,-0.0,-1.4968,-1.4968,-1.4968,-1.4968,-1.4968,-1.4968,-1.4968,-1.4968,-1.4968,-1.4968,-1.4968,-1.4968,-1.4968,-1.4968,-1.4968,-1.4968,-1.4968,-1.4968,-1.4968,-1.4968,-1.4968,-1.4968,-1.4968,-1.4968,-1.4968,-1.5065,-1.5358,-1.5658,-1.591,-1.6024,-1.6048,-1.6048,-1.6048,-1.6048,-1.6048,-1.6048,-1.6048,-1.6056,-1.5891,-1.5058,-1.4383,-1.4059,-1.3901,-1.3569,-1.3424,-1.3519,-1.3682,-1.3824,-1.396,-1.4109,-1.4258,-1.4278,-1.4285,-1.4292,-1.4299,-1.4299,-1.4299,-1.4299,-1.4299,-1.4299,-1.4299,-1.4299,-1.4299,-1.4299,-1.3584,-1.1083,-0.8765,-0.7338,-0.4664,-0.3053,-0.2874,-0.2874,-0.2874,-0.2874,-0.2874,-0.2874,-0.2874,-0.2874,-0.2874,-0.2874,-0.2874,-0.2874,-0.2874,-0.2874,-0.2874,-0.2874,-0.2874,-0.2874,-0.2874,-0.2874,-0.2874,-0.2874,-0.2874,-0.2515,-0.2156,-0.2156,-0.2335,-0.1616,-0.0,-0.0,-0.0,-0.0,-0.0,-0.0,-0.0,-0.0,-0.0,-0.0,-0.0,-0.0,-0.0,-0.0,-0.0,-0.0,-0.0,-1.4968,-1.4968,-1.4968,-1.4968,-1.4968,-1.4968,-1.4968,-1.4968,-1.4968,-1.4968,-1.4968,-1.4968,-1.4968,-1.4968,-1.4968,-1.4968,-1.4968,-1.4968,-1.4968,-1.4968,-1.4968,-1.4968,-1.4968,-1.4968,-1.4992,-1.5122,-1.5374,-1.5585,-1.5804,-1.5943,-1.6048,-1.6048,-1.6048,-1.6048,-1.6048,-1.6048,-1.6048,-1.5891,-1.5396,-1.4563,-1.4225,-1.3894,-1.3735,-1.3569,-1.3444,-1.358,-1.3749,-1.3905,-1.4034,-1.4163,-1.4292,-1.4292,-1.4299,-1.4299,-1.4299,-1.4299,-1.4299,-1.4299,-1.4299,-1.4299,-1.4299,-1.4299,-1.4299,-1.3938,-1.323,-1.1444,-0.9299,-0.6981,-0.4305,-0.3053,-0.2874,-0.2874,-0.2874,-0.2874,-0.2874,-0.2874,-0.2874,-0.2874,-0.2874,-0.2874,-0.2874,-0.2874,-0.2874,-0.2874,-0.2874,-0.2874,-0.2874,-0.2874,-0.2874,-0.2874,-0.2874,-0.2874,-0.2874,-0.2335,-0.1617,-0.0,-0.0,-0.0,-0.0,-0.0,-0.0,-0.0,-0.0,-0.0,-0.0,-0.0,-0.0,-0.0,-0.0,-0.0,-0.0,-0.0,-0.0,-0.0,-0.0,-1.4968,-1.4968,-1.4968,-1.4968,-1.4968,-1.4968,-1.4968,-1.4968,-1.4968,-1.4968,-1.4968,-1.4968,-1.4968,-1.4968,-1.4968,-1.4968,-1.4968,-1.4968,-1.4968,-1.4968,-1.4968,-1.4968,-1.4968,-1.4976,-1.5065,-1.5204,-1.5382,-1.5585,-1.5748,-1.5926,-1.6048,-1.6048,-1.6048,-1.6048,-1.6048,-1.6048,-1.5883,-1.5727,-1.5231,-1.4555,-1.4066,-1.3901,-1.3569,-1.3444,-1.3526,-1.3668,-1.3824,-1.396,-1.4116,-1.4238,-1.4299,-1.4299,-1.4299,-1.4299,-1.4299,-1.4299,-1.4299,-1.4299,-1.4299,-1.4299,-1.4299,-1.4299,-1.4122,-1.3584,-1.2331,-1.0372,-0.823,-0.6448,-0.4305,-0.3233,-0.2874,-0.2874,-0.2874,-0.2874,-0.2874,-0.2874,-0.2874,-0.2874,-0.2874,-0.2874,-0.2874,-0.2874,-0.2874,-0.2874,-0.2874,-0.2874,-0.2874,-0.2874,-0.2874,-0.2874,-0.2874,-0.2874,-0.2874,-0.2335,-0.0,-0.0,-0.0,-0.0,-0.0,-0.0,-0.0,-0.0,-0.0,-0.0,-0.0,-0.0,-0.0,-0.0,-0.0,-0.0,-0.0,-0.0,-0.0,-0.0,-0.0]},{"header":{"parameterUnit":"m.s-1","parameterCategory":1,"la1":31.0,"la2":29.5877,"lo1":-88.7671,"lo2":-86.6584,"dy":0.0162,"dx":0.0185,"nx":115,"ny":88,"refTime":"2024-08-03T18:00:00:Z","depth":0,"parameterNumber":3,"parameterNumberName":"V-component_of_WINDS"},"data":[0.0,0.0,0.0,0.0,0.0,0.0,0.0,0.0,0.0,0.0,0.0,0.0,0.0,0.0,0.0,0.0,0.0,0.0,0.0,0.0,0.0,0.0,0.0,0.0,0.0,0.0,0.0,0.0,0.0,0.0,0.0,0.0,0.0,0.0,0.0,0.0,0.0,0.0,0.0,0.0,0.0,0.0,0.0,0.0,0.0,0.0,0.0,0.0,0.0,0.0,0.0,0.0,0.0,0.0,0.0,0.0,0.0,0.0,0.0,0.0,0.0,0.0,0.0,0.0,0.0,0.0,0.0,0.0,0.0,0.0,0.0,0.0,0.0,0.0,0.0,0.0,0.0,0.0,0.0,0.0,0.0,0.0,0.0,0.0,0.0,0.0,0.0,0.0,0.0,0.0,0.0,0.0,0.0,0.0,0.0,0.0,0.0,0.0,0.0,0.0,0.0,0.0,0.0,0.0,0.0,0.0,0.0,0.0,0.0,0.0,0.0,0.0,0.0,0.0,0.0,0.0,0.0,0.0,0.0,0.0,0.0,0.0,0.0,0.0,0.0,0.0,0.0,0.0,0.0,0.0,0.0,0.0,0.0,0.0,0.0,0.0,0.0,0.0,0.0,0.0,0.0,0.0,0.0,0.0,0.0,0.0,0.0,0.0,0.0,0.0,0.0,0.0,0.0,0.0,0.0,0.0,0.0,0.0,0.0,0.0,0.0,0.0,0.0,0.0,0.0,0.0,0.0,0.0,0.0,0.0,0.0,0.0,0.0,0.0,0.0,0.0,0.0,0.0,0.0,0.0,0.0,0.0,0.0,0.0,0.0,0.0,0.0,0.0,0.0,0.0,0.0,0.0,0.0,0.0,0.0,0.0,0.0,0.0,0.0,0.0,0.0,0.0,0.0,0.0,0.0,0.0,0.0,0.0,0.0,0.0,0.0,0.0,0.0,0.0,0.0,0.0,0.0,0.0,0.0,0.0,0.0,0.0,0.0,0.0,0.0,0.0,0.0,0.0,0.0,0.0,0.0,0.0,0.0,0.0,0.0,0.0,0.0,0.0,0.0,0.0,0.0,0.0,0.0,0.0,0.0,0.0,0.0,0.0,0.0,0.0,0.0,0.0,0.0,0.0,0.0,0.0,0.0,0.0,0.0,0.0,0.0,0.0,0.0,0.0,0.0,0.0,0.0,0.0,0.0,0.0,0.0,0.0,0.0,0.0,0.0,0.0,0.0,0.0,0.0,0.0,0.0,0.0,0.0,0.0,0.0,0.0,0.0,0.0,0.0,0.0,0.0,0.0,0.0,0.0,0.0,0.0,0.0,0.0,0.0,0.0,0.0,0.0,0.0,0.0,0.0,0.0,0.0,0.0,0.0,0.0,0.0,0.0,0.0,0.0,0.0,0.0,0.0,0.0,0.0,0.0,0.0,0.0,0.0,0.0,0.0,0.0,0.0,0.0,0.0,0.0,0.0,0.0,0.0,0.0,0.0,0.0,0.0,0.0,0.0,0.0,0.0,0.0,0.0,0.0,0.0,0.0,0.0,0.0,0.0,0.0,0.0,0.0,0.0,0.0,0.0,0.0,0.0,0.0,0.0,0.0,0.0,0.0,0.0,0.0,0.0,0.0,0.0,0.0,0.0,0.0,0.0,0.0,0.0,0.0,0.0,0.0,0.0,0.0,0.0,0.0,0.0,0.0,0.0,0.0,0.0,0.0,0.0,0.0,0.0,0.0,0.0,0.0,0.0,0.0,0.0,0.0,0.0,0.0,0.0,0.0,0.0,0.0,0.0,0.0,0.0,0.0,0.0,0.0,0.0,0.0,0.0,0.0,0.0,0.0,0.0,0.0,0.0,0.0,0.0,0.0,0.0,0.0,0.0,0.0,0.0,0.0,0.0,0.0,0.0,0.0,0.0,0.0,0.0,0.0,0.0,0.0,0.0,0.0,0.0,0.0,0.0,0.0,0.0,0.0,0.0,0.0,0.0,0.0,0.0,0.0,0.0,0.0,0.0,0.0,0.0,0.0,0.0,0.0,0.0,0.0,0.0,0.0,0.0,0.0,0.0,0.0,0.0,0.0,0.0,0.0,0.0,0.0,0.0,0.0,0.0,0.0,0.0,0.0,0.0,0.0,0.0,0.0,0.0,0.0,0.0,0.0,0.0,0.0,0.0,0.0,0.0,0.0,0.0,0.0,0.0,0.0,0.0,0.0,0.0,0.0,0.0,0.0,0.0,0.0,0.0,0.0,0.0,0.0,0.0,0.0,0.0,0.0,0.0,0.0,0.0,0.0,0.0,0.0,0.0,0.0,0.0,0.0,0.0,0.0,0.0,0.0,0.0,0.0,0.0,0.0,0.0,0.0,0.0,0.0,0.0,0.0,0.0,0.0,0.0,0.0,0.0,0.0,0.0,0.0,0.0,0.0,0.0,0.0,0.0,0.0,0.0,0.0,0.0,0.0,0.0,0.0,0.0,0.0,0.0,0.0,0.0,0.0,0.0,0.0,0.0,0.0,0.0,0.0,0.0,0.0,0.0,0.0,0.0,0.0,0.0,0.0,0.0,0.0,0.0,0.0,0.0,0.0,0.0,0.0,0.0,0.0,0.0,0.0,0.0,0.0,0.0,0.0,0.0,0.0,0.0,0.0,0.0,0.0,0.0,0.0,0.0,0.0,0.0,0.0,0.0,0.0,0.0,0.0,0.0,0.0,0.0,0.0,0.0,0.0,0.0,0.0,0.0,0.0,0.0,0.0,0.0,0.0,0.0,0.0,0.0,0.0,0.0,0.0,0.0,0.0,0.0,0.0,0.0,0.0,0.0,0.0,0.0,0.0,0.0,0.0,0.0,0.0,0.0,0.0,0.0,0.0,0.0,0.0,0.0,0.0,0.0,0.0,0.0,0.0,0.0,0.0,0.0,0.0,0.0,0.0,0.0,0.0,0.0,0.0,0.0,0.0,0.0,0.0,0.0,0.0,0.0,0.0,0.0,0.0,0.0,0.0,0.0,0.0,0.0,0.0,0.0,0.0,0.0,0.0,0.0,0.0,0.0,0.0,0.0,0.0,0.0,0.0,0.0,0.0,0.0,0.0,0.0,0.0,0.0,0.0,0.0,0.0,0.0,0.0,0.0,0.0,0.0,0.0,0.0,0.0,0.0,0.0,0.0,0.0,0.0,0.0,0.0,0.0,0.0,0.0,0.0,0.0,0.0,0.0,0.0,0.0,0.0,0.0,0.0,0.0,0.0,0.0,0.0,0.0,0.0,0.0,0.0,0.0,0.0,0.0,0.0,0.0,0.0,0.0,0.0,0.0,0.0,0.0,0.0,0.0,0.0,0.0,0.0,0.0,0.0,0.0,0.0,0.0,0.0,0.0,0.0,0.0,0.0,0.0,0.0,0.0,0.0,0.0,0.0,0.0,0.0,0.0,0.0,0.0,0.0,0.0,0.0,0.0,0.0,0.0,0.0,0.0,0.0,0.0,0.0,0.0,0.0,0.0,0.0,0.0,0.0,0.0,0.0,0.0,0.0,0.0,0.0,0.0,0.0,0.0,0.0,0.0,0.0,0.0,0.0,0.0,0.0,0.0,0.0,0.0,0.0,0.0,0.0,0.0,0.0,0.0,0.0,0.0,0.0,0.0,0.0,0.0,0.0,0.0,0.0,0.0,0.0,0.0,0.0,0.0,0.0,0.0,0.0,0.0,0.0,0.0,0.0,0.0,0.0,0.0,0.0,0.0,0.0,0.0,0.0,0.0,0.0,0.0,0.0,0.0,0.0,0.0,0.0,0.0,0.0,0.0,0.0,0.0,0.0,0.0,0.0,0.0,0.0,0.0,0.0,0.0,0.0,0.0,0.0,0.0,0.0,0.0,0.0,0.0,0.0,0.0,0.0,0.0,0.0,0.0,0.0,0.0,0.0,0.0,0.0,0.0,0.0,0.0,0.0,0.0,0.0,0.0,0.0,0.0,0.0,0.0,0.0,0.0,0.0,0.0,0.0,0.0,0.0,0.0,0.0,0.0,0.0,0.0,0.0,0.0,0.0,0.0,0.0,0.0,0.0,0.0,0.0,0.0,0.0,0.0,0.0,0.0,0.0,0.0,0.0,0.0,0.0,0.0,0.0,0.0,0.0,0.0,0.0,0.0,0.0,0.0,0.0,0.0,0.0,0.0,0.0,0.0,0.0,0.0,0.0,0.0,0.0,0.0,0.0,0.0,0.0,0.0,0.0,0.0,0.0,0.0,0.0,0.0,0.0,0.0,0.0,0.0,0.0,0.0,0.0,0.0,-2.279,0.0,0.0,0.0,0.0,0.0,0.0,0.0,0.0,0.0,0.0,0.0,0.0,0.0,0.0,0.0,0.0,0.0,0.0,0.0,0.0,0.0,0.0,0.0,0.0,0.0,0.0,0.0,0.0,0.0,0.0,0.0,0.0,0.0,0.0,0.0,0.0,0.0,0.0,0.0,0.0,0.0,0.0,0.0,0.0,0.0,0.0,0.0,0.0,0.0,0.0,0.0,0.0,0.0,0.0,0.0,0.0,0.0,0.0,0.0,0.0,0.0,0.0,0.0,0.0,0.0,0.0,0.0,0.0,0.0,0.0,0.0,0.0,0.0,0.0,0.0,0.0,0.0,0.0,0.0,0.0,0.0,0.0,0.0,0.0,0.0,0.0,0.0,0.0,0.0,0.0,0.0,0.0,0.0,0.0,0.0,0.0,0.0,0.0,0.0,0.0,0.0,0.0,0.0,0.0,0.0,0.0,0.0,0.0,0.0,0.0,-2.3595,-2.361,-2.3422,-2.3318,-2.3333,0.0,0.0,0.0,0.0,0.0,0.0,0.0,0.0,0.0,0.0,0.0,0.0,0.0,0.0,0.0,0.0,0.0,0.0,0.0,0.0,0.0,0.0,0.0,0.0,0.0,0.0,0.0,0.0,0.0,0.0,0.0,0.0,0.0,0.0,0.0,0.0,0.0,0.0,0.0,0.0,0.0,0.0,0.0,0.0,0.0,0.0,0.0,0.0,0.0,0.0,0.0,0.0,0.0,0.0,0.0,0.0,0.0,0.0,0.0,0.0,0.0,0.0,0.0,0.0,0.0,0.0,0.0,0.0,0.0,0.0,0.0,0.0,0.0,0.0,0.0,0.0,0.0,0.0,0.0,0.0,0.0,0.0,0.0,0.0,0.0,0.0,0.0,0.0,0.0,0.0,0.0,0.0,0.0,0.0,0.0,0.0,0.0,0.0,0.0,0.0,0.0,0.0,0.0,0.0,0.0,0.0,0.0,0.0,0.0,0.0,0.0,0.0,-2.4949,-2.4888,-2.4861,0.0,0.0,0.0,0.0,0.0,0.0,0.0,0.0,0.0,0.0,0.0,0.0,0.0,0.0,0.0,0.0,0.0,0.0,0.0,0.0,0.0,0.0,0.0,0.0,0.0,0.0,0.0,0.0,0.0,0.0,0.0,0.0,0.0,0.0,0.0,0.0,0.0,0.0,0.0,0.0,0.0,0.0,0.0,0.0,0.0,0.0,0.0,0.0,0.0,0.0,0.0,0.0,0.0,0.0,0.0,0.0,0.0,0.0,0.0,0.0,0.0,0.0,0.0,0.0,0.0,0.0,0.0,0.0,0.0,0.0,0.0,0.0,0.0,0.0,0.0,0.0,0.0,0.0,0.0,0.0,0.0,0.0,0.0,0.0,0.0,0.0,0.0,0.0,0.0,0.0,0.0,0.0,0.0,0.0,0.0,0.0,0.0,0.0,0.0,0.0,0.0,0.0,0.0,0.0,0.0,0.0,0.0,0.0,0.0,0.0,-2.5893,-2.8875,-2.8783,0.0,-2.8456,0.0,0.0,0.0,0.0,0.0,0.0,0.0,0.0,0.0,0.0,0.0,0.0,0.0,0.0,0.0,0.0,0.0,0.0,0.0,0.0,0.0,0.0,0.0,0.0,0.0,0.0,0.0,0.0,0.0,0.0,0.0,0.0,0.0,0.0,0.0,0.0,0.0,0.0,0.0,0.0,0.0,0.0,0.0,0.0,0.0,0.0,0.0,0.0,0.0,0.0,0.0,0.0,0.0,0.0,0.0,0.0,0.0,0.0,0.0,0.0,0.0,0.0,0.0,0.0,0.0,0.0,0.0,0.0,0.0,0.0,0.0,0.0,0.0,0.0,0.0,0.0,0.0,0.0,0.0,0.0,0.0,0.0,0.0,0.0,0.0,0.0,0.0,0.0,0.0,0.0,0.0,0.0,0.0,0.0,0.0,0.0,0.0,0.0,0.0,0.0,0.0,0.0,0.0,0.0,0.0,0.0,0.0,0.0,0.0,0.0,0.0,-2.9855,-2.9697,-2.9532,0.0,0.0,0.0,0.0,0.0,0.0,0.0,0.0,0.0,0.0,0.0,0.0,0.0,0.0,0.0,0.0,0.0,0.0,0.0,0.0,0.0,0.0,0.0,0.0,0.0,0.0,0.0,0.0,0.0,0.0,0.0,0.0,0.0,0.0,0.0,0.0,0.0,0.0,0.0,0.0,0.0,0.0,0.0,0.0,0.0,0.0,0.0,0.0,0.0,0.0,0.0,0.0,0.0,0.0,0.0,0.0,0.0,0.0,0.0,0.0,0.0,0.0,0.0,0.0,0.0,0.0,0.0,0.0,0.0,0.0,0.0,0.0,0.0,0.0,0.0,0.0,0.0,0.0,0.0,0.0,0.0,0.0,0.0,0.0,0.0,0.0,0.0,0.0,0.0,0.0,0.0,0.0,0.0,0.0,0.0,0.0,0.0,0.0,0.0,0.0,0.0,0.0,0.0,0.0,0.0,0.0,0.0,0.0,0.0,0.0,-2.9383,0.0,-3.1455,-3.145,-3.0894,-2.9796,0.0,0.0,0.0,0.0,0.0,0.0,0.0,0.0,0.0,0.0,0.0,0.0,0.0,0.0,0.0,0.0,0.0,0.0,0.0,0.0,0.0,0.0,0.0,0.0,0.0,0.0,0.0,0.0,0.0,0.0,0.0,0.0,0.0,0.0,0.0,0.0,0.0,0.0,0.0,0.0,0.0,0.0,0.0,0.0,0.0,0.0,0.0,0.0,0.0,0.0,0.0,0.0,0.0,0.0,0.0,0.0,0.0,0.0,0.0,0.0,0.0,0.0,0.0,0.0,0.0,0.0,0.0,0.0,0.0,0.0,0.0,0.0,0.0,0.0,0.0,0.0,0.0,0.0,0.0,0.0,0.0,0.0,0.0,0.0,0.0,0.0,0.0,0.0,0.0,0.0,0.0,0.0,0.0,0.0,0.0,0.0,0.0,0.0,0.0,0.0,0.0,0.0,0.0,0.0,0.0,0.0,0.0,0.0,0.0,-3.1788,-3.1826,-3.4955,-3.5047,-3.3455,0.0,0.0,0.0,0.0,0.0,0.0,0.0,0.0,0.0,0.0,0.0,0.0,0.0,0.0,0.0,0.0,0.0,0.0,0.0,0.0,0.0,0.0,0.0,0.0,0.0,0.0,0.0,0.0,0.0,0.0,0.0,0.0,0.0,0.0,0.0,0.0,0.0,0.0,0.0,0.0,0.0,0.0,0.0,0.0,0.0,0.0,0.0,0.0,0.0,0.0,0.0,0.0,0.0,0.0,0.0,0.0,0.0,0.0,0.0,0.0,0.0,0.0,0.0,0.0,0.0,0.0,0.0,0.0,0.0,0.0,0.0,0.0,0.0,0.0,0.0,0.0,0.0,0.0,0.0,0.0,0.0,0.0,0.0,0.0,0.0,0.0,0.0,0.0,0.0,0.0,0.0,0.0,0.0,0.0,0.0,0.0,0.0,0.0,0.0,0.0,0.0,0.0,0.0,0.0,0.0,0.0,0.0,0.0,0.0,-2.8849,-2.9906,-3.3083,-3.8267,-3.4515,-3.2645,0.0,0.0,0.0,0.0,0.0,0.0,0.0,0.0,0.0,0.0,0.0,0.0,0.0,0.0,0.0,0.0,0.0,0.0,0.0,0.0,0.0,0.0,0.0,0.0,0.0,0.0,0.0,0.0,0.0,0.0,0.0,0.0,0.0,0.0,0.0,0.0,0.0,0.0,0.0,0.0,0.0,0.0,0.0,0.0,0.0,0.0,0.0,0.0,0.0,0.0,0.0,0.0,0.0,0.0,0.0,0.0,0.0,0.0,0.0,0.0,0.0,0.0,0.0,0.0,0.0,0.0,0.0,0.0,0.0,0.0,0.0,0.0,0.0,0.0,0.0,0.0,0.0,0.0,0.0,0.0,0.0,0.0,0.0,0.0,0.0,0.0,0.0,0.0,0.0,0.0,0.0,0.0,0.0,0.0,0.0,0.0,0.0,0.0,0.0,0.0,0.0,0.0,0.0,0.0,0.0,0.0,0.0,0.0,0.0,-2.8692,0.0,-3.547,0.0,-3.4584,-3.2186,0.0,0.0,0.0,0.0,0.0,0.0,0.0,0.0,0.0,0.0,0.0,0.0,0.0,0.0,0.0,0.0,0.0,0.0,0.0,0.0,0.0,0.0,0.0,0.0,0.0,0.0,0.0,0.0,0.0,0.0,0.0,0.0,0.0,0.0,0.0,0.0,0.0,0.0,0.0,0.0,0.0,0.0,0.0,0.0,0.0,0.0,0.0,0.0,0.0,0.0,0.0,0.0,0.0,0.0,0.0,0.0,0.0,0.0,0.0,0.0,0.0,0.0,0.0,0.0,0.0,0.0,0.0,0.0,0.0,0.0,0.0,0.0,0.0,0.0,0.0,0.0,0.0,0.0,0.0,0.0,0.0,0.0,0.0,0.0,0.0,0.0,0.0,0.0,0.0,0.0,0.0,0.0,0.0,0.0,0.0,0.0,0.0,0.0,0.0,0.0,0.0,0.0,0.0,0.0,0.0,0.0,0.0,0.0,-2.8753,-3.516,-3.8562,-3.8783,-3.5854,-3.5507,-3.2353,0.0,0.0,0.0,0.0,0.0,0.0,0.0,0.0,0.0,0.0,0.0,0.0,0.0,0.0,0.0,0.0,0.0,0.0,0.0,0.0,0.0,0.0,0.0,0.0,0.0,0.0,0.0,0.0,0.0,0.0,0.0,0.0,0.0,0.0,0.0,0.0,0.0,0.0,0.0,0.0,0.0,0.0,0.0,0.0,0.0,0.0,0.0,0.0,0.0,0.0,0.0,0.0,0.0,0.0,0.0,0.0,0.0,0.0,0.0,0.0,0.0,0.0,0.0,0.0,0.0,0.0,0.0,0.0,0.0,0.0,0.0,0.0,0.0,0.0,0.0,0.0,0.0,0.0,0.0,0.0,0.0,0.0,0.0,0.0,0.0,0.0,0.0,0.0,0.0,0.0,0.0,0.0,0.0,0.0,0.0,0.0,0.0,0.0,0.0,0.0,0.0,0.0,0.0,0.0,0.0,0.0,0.0,0.0,0.0,-3.2202,-3.5527,-3.8206,-3.9816,-3.4923,-3.257,0.0,0.0,0.0,0.0,0.0,0.0,0.0,0.0,0.0,0.0,0.0,0.0,0.0,0.0,0.0,0.0,0.0,0.0,0.0,0.0,0.0,0.0,0.0,0.0,0.0,0.0,0.0,0.0,0.0,0.0,0.0,0.0,0.0,0.0,0.0,0.0,0.0,0.0,0.0,0.0,0.0,0.0,0.0,0.0,0.0,0.0,0.0,0.0,0.0,0.0,0.0,0.0,0.0,0.0,0.0,0.0,0.0,0.0,0.0,0.0,0.0,0.0,0.0,0.0,0.0,0.0,0.0,0.0,0.0,0.0,0.0,0.0,0.0,0.0,0.0,0.0,0.0,0.0,0.0,0.0,0.0,0.0,0.0,0.0,0.0,0.0,0.0,0.0,0.0,0.0,0.0,0.0,0.0,0.0,0.0,0.0,0.0,0.0,0.0,0.0,0.0,0.0,0.0,0.0,0.0,0.0,0.0,0.0,0.0,-3.5118,-3.8338,-4.0731,-4.2121,-3.6833,-3.4129,-3.4458,0.0,0.0,0.0,0.0,0.0,0.0,0.0,0.0,0.0,0.0,0.0,0.0,0.0,0.0,0.0,0.0,0.0,0.0,0.0,0.0,0.0,0.0,0.0,0.0,0.0,0.0,0.0,0.0,0.0,0.0,0.0,0.0,0.0,0.0,0.0,0.0,0.0,0.0,0.0,0.0,0.0,0.0,0.0,0.0,0.0,0.0,0.0,0.0,0.0,0.0,0.0,0.0,0.0,0.0,0.0,0.0,0.0,0.0,0.0,0.0,0.0,0.0,0.0,0.0,0.0,0.0,0.0,0.0,0.0,0.0,0.0,0.0,0.0,0.0,0.0,0.0,0.0,0.0,0.0,0.0,0.0,0.0,0.0,0.0,0.0,0.0,0.0,0.0,0.0,0.0,0.0,0.0,0.0,0.0,0.0,0.0,0.0,0.0,0.0,0.0,0.0,0.0,0.0,0.0,0.0,0.0,0.0,0.0,-4.2315,-4.569,-4.587,-4.2812,-4.0682,-3.6953,0.0,0.0,0.0,0.0,0.0,0.0,0.0,0.0,0.0,0.0,0.0,0.0,0.0,0.0,0.0,0.0,0.0,0.0,0.0,0.0,0.0,0.0,0.0,0.0,0.0,0.0,0.0,0.0,0.0,0.0,0.0,0.0,0.0,0.0,0.0,0.0,0.0,0.0,0.0,0.0,0.0,0.0,0.0,0.0,0.0,0.0,0.0,0.0,0.0,0.0,0.0,0.0,0.0,0.0,0.0,0.0,0.0,0.0,0.0,0.0,0.0,0.0,0.0,0.0,0.0,0.0,0.0,0.0,0.0,0.0,0.0,0.0,0.0,0.0,0.0,0.0,0.0,0.0,0.0,0.0,0.0,0.0,0.0,0.0,0.0,0.0,0.0,0.0,0.0,0.0,0.0,0.0,0.0,0.0,0.0,0.0,0.0,0.0,0.0,0.0,0.0,0.0,0.0,0.0,0.0,0.0,0.0,0.0,0.0,-4.332,-4.7301,-4.8945,-4.7874,-4.3199,-3.9034,0.0,0.0,0.0,0.0,0.0,0.0,0.0,0.0,0.0,0.0,0.0,0.0,0.0,0.0,0.0,0.0,0.0,0.0,0.0,0.0,0.0,0.0,0.0,0.0,0.0,0.0,0.0,0.0,0.0,0.0,0.0,0.0,0.0,0.0,0.0,0.0,0.0,0.0,0.0,0.0,0.0,0.0,0.0,0.0,0.0,0.0,0.0,0.0,0.0,0.0,0.0,0.0,0.0,0.0,0.0,0.0,0.0,0.0,0.0,0.0,0.0,0.0,0.0,0.0,0.0,0.0,0.0,0.0,0.0,0.0,0.0,0.0,0.0,0.0,0.0,0.0,0.0,0.0,0.0,0.0,0.0,0.0,0.0,0.0,0.0,0.0,0.0,0.0,0.0,0.0,0.0,0.0,0.0,0.0,0.0,0.0,0.0,0.0,0.0,0.0,0.0,0.0,0.0,0.0,0.0,0.0,0.0,0.0,-4.2324,-4.6315,-4.9153,-5.0652,-5.0584,-4.6147,-4.1991,0.0,0.0,0.0,0.0,0.0,0.0,0.0,0.0,0.0,0.0,0.0,0.0,0.0,0.0,0.0,0.0,0.0,0.0,0.0,0.0,0.0,0.0,0.0,0.0,0.0,0.0,0.0,0.0,0.0,0.0,0.0,0.0,0.0,0.0,0.0,0.0,0.0,0.0,0.0,0.0,0.0,0.0,0.0,0.0,0.0,0.0,0.0,0.0,0.0,0.0,0.0,0.0,0.0,0.0,0.0,0.0,0.0,0.0,0.0,0.0,0.0,0.0,0.0,0.0,0.0,0.0,0.0,0.0,0.0,0.0,0.0,0.0,0.0,0.0,0.0,0.0,0.0,0.0,0.0,0.0,0.0,0.0,0.0,0.0,0.0,0.0,0.0,0.0,0.0,0.0,0.0,0.0,0.0,0.0,0.0,0.0,0.0,0.0,0.0,0.0,0.0,0.0,0.0,0.0,0.0,0.0,0.0,0.0,-4.4341,-4.9835,-5.0898,-5.1449,-5.1453,-4.8993,-4.5108,0.0,0.0,0.0,0.0,0.0,0.0,0.0,0.0,0.0,0.0,0.0,0.0,0.0,0.0,0.0,0.0,0.0,0.0,0.0,0.0,0.0,0.0,0.0,0.0,0.0,0.0,0.0,0.0,0.0,0.0,0.0,0.0,0.0,0.0,0.0,0.0,0.0,0.0,0.0,0.0,0.0,0.0,0.0,0.0,0.0,0.0,0.0,0.0,0.0,0.0,0.0,0.0,0.0,0.0,0.0,0.0,0.0,0.0,0.0,0.0,0.0,0.0,0.0,0.0,0.0,0.0,0.0,0.0,0.0,0.0,0.0,0.0,0.0,0.0,0.0,0.0,0.0,0.0,0.0,0.0,0.0,0.0,0.0,0.0,0.0,0.0,0.0,0.0,0.0,0.0,0.0,0.0,0.0,0.0,0.0,0.0,0.0,0.0,0.0,0.0,0.0,0.0,0.0,0.0,0.0,0.0,0.0,0.0,-4.6396,-4.9001,-5.0616,-5.1713,-5.2416,-4.9887,-4.5486,0.0,0.0,0.0,0.0,0.0,0.0,0.0,0.0,0.0,0.0,0.0,0.0,0.0,0.0,0.0,0.0,0.0,0.0,0.0,0.0,0.0,0.0,0.0,0.0,0.0,0.0,0.0,0.0,0.0,0.0,0.0,0.0,0.0,0.0,0.0,0.0,0.0,0.0,0.0,0.0,0.0,0.0,0.0,0.0,0.0,0.0,0.0,0.0,-3.3994,0.0,0.0,0.0,0.0,0.0,0.0,0.0,0.0,0.0,0.0,0.0,0.0,0.0,0.0,0.0,0.0,0.0,0.0,0.0,0.0,0.0,0.0,0.0,0.0,0.0,0.0,0.0,0.0,0.0,0.0,0.0,0.0,0.0,0.0,0.0,0.0,0.0,0.0,0.0,0.0,0.0,0.0,0.0,0.0,0.0,0.0,0.0,0.0,0.0,0.0,0.0,0.0,0.0,0.0,0.0,0.0,0.0,0.0,0.0,-4.744,-4.9931,-5.0923,-5.1435,-5.1435,-5.0117,-4.6573,0.0,0.0,0.0,0.0,0.0,0.0,0.0,0.0,0.0,0.0,0.0,0.0,0.0,0.0,0.0,0.0,0.0,0.0,0.0,0.0,0.0,0.0,0.0,0.0,0.0,0.0,0.0,0.0,0.0,0.0,0.0,0.0,0.0,0.0,0.0,0.0,0.0,0.0,0.0,0.0,0.0,0.0,0.0,0.0,0.0,0.0,0.0,0.0,0.0,0.0,0.0,0.0,0.0,0.0,0.0,0.0,0.0,0.0,0.0,0.0,0.0,0.0,0.0,0.0,0.0,0.0,0.0,0.0,0.0,0.0,0.0,0.0,0.0,0.0,0.0,0.0,0.0,0.0,0.0,0.0,0.0,0.0,0.0,0.0,0.0,0.0,0.0,0.0,0.0,0.0,0.0,0.0,0.0,0.0,0.0,0.0,0.0,0.0,0.0,0.0,0.0,0.0,0.0,0.0,0.0,0.0,0.0,-4.4158,-4.7819,-5.1375,-5.1308,-5.0923,-5.0299,-4.9879,-4.7389,-4.2588,0.0,0.0,0.0,0.0,0.0,0.0,0.0,0.0,0.0,0.0,0.0,0.0,0.0,0.0,0.0,0.0,0.0,0.0,0.0,0.0,0.0,0.0,0.0,0.0,0.0,0.0,0.0,0.0,0.0,0.0,0.0,0.0,0.0,0.0,0.0,0.0,0.0,0.0,-3.6254,-3.7218,0.0,0.0,0.0,0.0,0.0,0.0,0.0,0.0,-3.7957,0.0,0.0,0.0,0.0,0.0,0.0,0.0,0.0,0.0,0.0,0.0,0.0,0.0,0.0,0.0,0.0,0.0,0.0,0.0,0.0,0.0,0.0,0.0,0.0,0.0,0.0,0.0,0.0,0.0,0.0,0.0,0.0,0.0,0.0,0.0,0.0,0.0,0.0,0.0,0.0,0.0,0.0,0.0,0.0,0.0,0.0,0.0,0.0,0.0,0.0,0.0,0.0,0.0,0.0,0.0,0.0,-4.3958,-4.4777,-4.7495,-5.2224,-5.1037,-5.0576,-5.1005,-4.9034,-4.6197,-4.2577,0.0,0.0,0.0,0.0,0.0,0.0,0.0,0.0,0.0,0.0,0.0,0.0,0.0,0.0,0.0,0.0,0.0,0.0,0.0,0.0,0.0,0.0,0.0,0.0,0.0,0.0,0.0,0.0,0.0,0.0,0.0,0.0,0.0,0.0,0.0,0.0,0.0,0.0,0.0,-4.019,-4.0092,0.0,0.0,0.0,0.0,0.0,0.0,0.0,0.0,-3.8841,0.0,0.0,0.0,0.0,0.0,0.0,0.0,0.0,0.0,0.0,0.0,0.0,0.0,0.0,0.0,0.0,0.0,0.0,0.0,0.0,0.0,0.0,0.0,0.0,0.0,0.0,0.0,0.0,0.0,0.0,0.0,0.0,0.0,0.0,0.0,0.0,0.0,0.0,0.0,0.0,0.0,0.0,0.0,0.0,0.0,0.0,0.0,0.0,0.0,0.0,0.0,0.0,0.0,0.0,0.0,-4.272,-4.5117,-4.8107,-5.1725,-5.0283,-4.9854,-5.0569,-4.7318,-4.4324,0.0,0.0,0.0,0.0,0.0,0.0,0.0,0.0,0.0,0.0,0.0,0.0,0.0,0.0,0.0,0.0,0.0,0.0,0.0,0.0,0.0,0.0,0.0,0.0,0.0,0.0,0.0,0.0,0.0,0.0,0.0,0.0,0.0,0.0,0.0,0.0,0.0,0.0,0.0,0.0,-4.1376,-4.1754,-4.2267,0.0,0.0,0.0,0.0,0.0,0.0,-4.0405,-4.0109,0.0,0.0,0.0,0.0,0.0,0.0,0.0,0.0,0.0,0.0,0.0,0.0,0.0,0.0,0.0,0.0,0.0,0.0,0.0,0.0,0.0,0.0,0.0,0.0,0.0,0.0,0.0,0.0,0.0,0.0,0.0,0.0,0.0,0.0,0.0,0.0,0.0,0.0,0.0,0.0,0.0,0.0,0.0,0.0,0.0,0.0,0.0,0.0,0.0,0.0,0.0,0.0,0.0,0.0,0.0,-4.0812,-4.4721,-4.8022,-5.0602,-4.9496,-4.9138,-4.9744,-4.6337,-4.3426,0.0,0.0,0.0,0.0,0.0,0.0,0.0,0.0,0.0,0.0,0.0,0.0,0.0,0.0,0.0,0.0,0.0,0.0,0.0,0.0,0.0,0.0,0.0,0.0,0.0,0.0,0.0,0.0,0.0,0.0,0.0,0.0,0.0,0.0,0.0,0.0,0.0,0.0,0.0,0.0,0.0,-4.332,-4.4123,-4.3908,0.0,0.0,0.0,0.0,-4.2414,-4.2289,0.0,0.0,0.0,0.0,0.0,0.0,0.0,0.0,0.0,0.0,0.0,0.0,0.0,0.0,0.0,0.0,0.0,0.0,0.0,0.0,0.0,0.0,0.0,0.0,0.0,0.0,0.0,0.0,0.0,0.0,0.0,0.0,0.0,0.0,0.0,0.0,0.0,0.0,0.0,0.0,0.0,0.0,0.0,0.0,0.0,0.0,0.0,0.0,0.0,0.0,0.0,0.0,0.0,0.0,0.0,0.0,-3.9823,-4.266,-4.569,-4.8872,-4.8896,-4.8857,-4.8943,-4.7703,-4.5183,0.0,0.0,0.0,0.0,0.0,0.0,0.0,0.0,0.0,0.0,0.0,0.0,0.0,0.0,0.0,0.0,0.0,0.0,0.0,0.0,0.0,0.0,0.0,0.0,0.0,0.0,0.0,0.0,0.0,0.0,0.0,0.0,0.0,0.0,0.0,0.0,0.0,0.0,0.0,0.0,0.0,-4.5296,-4.4854,-4.4635,-4.4819,0.0,0.0,-4.4777,-4.5547,-4.6505,0.0,0.0,0.0,0.0,0.0,0.0,0.0,0.0,0.0,0.0,0.0,0.0,0.0,0.0,0.0,0.0,0.0,0.0,0.0,0.0,0.0,0.0,0.0,0.0,0.0,0.0,0.0,0.0,0.0,0.0,0.0,0.0,0.0,0.0,0.0,0.0,0.0,0.0,0.0,0.0,0.0,0.0,0.0,0.0,0.0,0.0,0.0,0.0,0.0,0.0,0.0,0.0,0.0,0.0,0.0,-3.6075,-3.9775,-4.3779,-4.7008,-4.9372,-4.906,-4.9021,-4.9542,-4.6352,-4.3284,0.0,0.0,0.0,0.0,0.0,0.0,0.0,0.0,0.0,0.0,0.0,0.0,0.0,0.0,0.0,0.0,0.0,0.0,0.0,0.0,0.0,0.0,0.0,0.0,0.0,0.0,0.0,0.0,0.0,0.0,0.0,0.0,0.0,0.0,0.0,0.0,0.0,0.0,0.0,0.0,0.0,0.0,-4.6837,-4.6947,0.0,0.0,0.0,-4.6613,-4.7497,0.0,0.0,0.0,0.0,0.0,0.0,0.0,0.0,0.0,0.0,0.0,0.0,0.0,0.0,0.0,0.0,0.0,0.0,0.0,0.0,0.0,0.0,0.0,0.0,0.0,0.0,0.0,0.0,0.0,0.0,0.0,0.0,0.0,0.0,0.0,0.0,0.0,0.0,0.0,0.0,0.0,0.0,0.0,0.0,0.0,0.0,0.0,0.0,0.0,0.0,0.0,0.0,0.0,0.0,0.0,0.0,0.0,-3.9496,-4.4748,-4.8093,-4.9333,-4.9216,-4.9223,-4.9354,-4.5891,0.0,0.0,0.0,0.0,0.0,0.0,0.0,0.0,0.0,0.0,0.0,0.0,0.0,0.0,0.0,0.0,0.0,0.0,0.0,0.0,0.0,0.0,0.0,0.0,0.0,0.0,0.0,-2.6967,0.0,0.0,0.0,0.0,0.0,0.0,0.0,0.0,0.0,0.0,0.0,0.0,0.0,0.0,-4.7535,-4.8826,-4.927,-4.9788,0.0,0.0,-4.853,-4.8974,-4.8345,-4.7276,0.0,0.0,0.0,0.0,0.0,0.0,0.0,0.0,0.0,0.0,0.0,0.0,0.0,0.0,0.0,0.0,0.0,0.0,0.0,0.0,0.0,0.0,0.0,0.0,0.0,0.0,0.0,0.0,0.0,0.0,0.0,0.0,0.0,0.0,0.0,0.0,0.0,0.0,0.0,0.0,0.0,0.0,0.0,0.0,0.0,0.0,0.0,0.0,0.0,0.0,0.0,0.0,0.0,0.0,0.0,-3.8727,-4.4475,-4.7579,-4.772,-4.9169,-4.9216,-4.7735,-4.8125,-4.5254,0.0,0.0,0.0,0.0,0.0,0.0,0.0,0.0,0.0,0.0,0.0,0.0,0.0,0.0,0.0,0.0,0.0,0.0,0.0,0.0,0.0,0.0,0.0,0.0,0.0,0.0,0.0,0.0,0.0,0.0,0.0,0.0,0.0,0.0,0.0,0.0,0.0,0.0,0.0,0.0,0.0,-4.9823,-5.0277,-5.1305,-5.2156,0.0,0.0,-5.075,-5.0118,-5.1194,-5.0563,-4.5934,0.0,0.0,0.0,0.0,0.0,0.0,0.0,0.0,0.0,0.0,0.0,0.0,0.0,0.0,0.0,0.0,0.0,0.0,0.0,0.0,0.0,0.0,0.0,0.0,0.0,0.0,0.0,0.0,0.0,0.0,0.0,0.0,0.0,0.0,0.0,0.0,0.0,0.0,0.0,0.0,0.0,0.0,0.0,0.0,0.0,0.0,0.0,0.0,0.0,0.0,0.0,0.0,0.0,-3.7035,-3.934,-4.5222,-4.8522,-4.9052,-5.0182,-5.0236,-4.9133,-4.8392,-4.5747,0.0,0.0,0.0,0.0,0.0,0.0,0.0,0.0,0.0,0.0,0.0,0.0,0.0,0.0,0.0,0.0,0.0,0.0,0.0,0.0,0.0,0.0,0.0,0.0,0.0,0.0,0.0,0.0,-3.5098,-3.5957,-3.7661,0.0,0.0,0.0,0.0,0.0,0.0,0.0,0.0,0.0,0.0,-5.1769,-5.2906,-5.3973,0.0,0.0,-5.4497,-5.3753,-5.32,-5.201,-5.0335,-4.7816,-4.6479,0.0,0.0,0.0,0.0,0.0,0.0,0.0,0.0,0.0,0.0,0.0,0.0,0.0,0.0,0.0,0.0,0.0,0.0,0.0,0.0,0.0,0.0,0.0,0.0,0.0,0.0,0.0,0.0,0.0,0.0,0.0,0.0,0.0,0.0,0.0,0.0,0.0,0.0,0.0,0.0,0.0,0.0,0.0,0.0,0.0,0.0,0.0,0.0,0.0,0.0,0.0,0.0,-3.7495,-4.0096,-4.5779,-4.9091,-4.9936,-5.0836,-5.0906,-5.0075,-4.8632,-4.6304,0.0,0.0,0.0,0.0,0.0,0.0,0.0,0.0,0.0,0.0,0.0,0.0,0.0,0.0,0.0,0.0,0.0,0.0,0.0,0.0,0.0,0.0,0.0,0.0,0.0,0.0,0.0,0.0,-3.7411,-3.7924,-3.8859,0.0,0.0,0.0,0.0,0.0,0.0,0.0,0.0,0.0,0.0,-5.3955,-5.5417,-5.6329,-5.6967,-5.7212,-5.6384,-5.5529,-5.4801,-5.2864,-5.1074,-4.9924,0.0,0.0,0.0,0.0,0.0,0.0,0.0,0.0,0.0,0.0,0.0,0.0,0.0,0.0,0.0,0.0,0.0,0.0,0.0,0.0,0.0,0.0,0.0,0.0,0.0,0.0,0.0,0.0,0.0,0.0,-2.5722,0.0,0.0,0.0,0.0,0.0,0.0,0.0,0.0,0.0,0.0,0.0,0.0,0.0,0.0,0.0,0.0,0.0,0.0,0.0,0.0,0.0,0.0,-3.821,-4.0792,-4.5909,-4.8915,-4.9808,-5.0782,-5.0891,-5.0034,-4.9198,-4.7184,-4.3763,0.0,0.0,0.0,0.0,0.0,0.0,0.0,0.0,0.0,0.0,0.0,0.0,0.0,0.0,0.0,0.0,0.0,0.0,0.0,0.0,0.0,0.0,0.0,0.0,0.0,0.0,-3.7861,-3.8813,-3.9044,0.0,0.0,0.0,0.0,0.0,0.0,0.0,0.0,0.0,0.0,-5.4166,-5.6501,-5.7557,-5.8252,-5.8555,-5.832,-5.6894,-5.5475,-5.4423,-5.4089,-5.3493,0.0,0.0,0.0,0.0,0.0,0.0,0.0,0.0,0.0,0.0,0.0,0.0,0.0,0.0,0.0,0.0,0.0,0.0,0.0,0.0,0.0,0.0,0.0,0.0,0.0,0.0,0.0,-3.393,-3.2031,0.0,0.0,0.0,0.0,0.0,0.0,0.0,0.0,0.0,0.0,0.0,-4.2044,-4.3737,0.0,0.0,0.0,0.0,0.0,0.0,0.0,0.0,0.0,0.0,0.0,0.0,-3.8709,-4.2362,-4.6312,-4.904,-5.041,-5.0933,-5.1035,-5.0728,-5.0024,-4.7791,-4.3829,0.0,0.0,0.0,0.0,0.0,0.0,0.0,0.0,0.0,0.0,0.0,0.0,0.0,0.0,0.0,0.0,0.0,0.0,0.0,0.0,0.0,0.0,0.0,0.0,0.0,-3.768,0.0,0.0,0.0,0.0,0.0,0.0,0.0,0.0,0.0,0.0,0.0,-5.1255,-5.3859,-5.6191,-5.8004,-5.8918,-5.9719,-6.0098,0.0,0.0,0.0,0.0,0.0,0.0,0.0,0.0,0.0,0.0,0.0,0.0,0.0,0.0,-5.6023,-5.0949,-4.909,-4.846,-4.8919,0.0,0.0,0.0,0.0,0.0,0.0,0.0,0.0,0.0,0.0,0.0,0.0,0.0,0.0,-3.8864,0.0,-3.6434,0.0,0.0,0.0,0.0,0.0,0.0,0.0,0.0,-4.4886,-4.6897,-4.7169,-4.8762,-4.8376,0.0,-4.5509,-4.2629,0.0,0.0,0.0,0.0,0.0,0.0,0.0,0.0,-4.0337,-4.397,-4.7088,-4.9316,-5.0648,-5.0883,-5.1011,-5.0977,-5.0361,-4.8412,-4.5055,-4.2776,-4.1065,0.0,0.0,0.0,0.0,0.0,0.0,0.0,0.0,0.0,0.0,0.0,0.0,0.0,0.0,0.0,0.0,0.0,0.0,0.0,0.0,0.0,0.0,0.0,-3.9985,0.0,0.0,0.0,0.0,0.0,0.0,0.0,0.0,0.0,-5.024,-5.2162,-5.4643,-5.7473,-5.868,-5.9649,-6.0498,0.0,0.0,0.0,0.0,0.0,0.0,0.0,-5.7291,-5.8023,-5.7311,-5.6911,-5.7603,-5.9512,-6.081,-6.0332,0.0,0.0,-5.5525,-5.3518,-5.2858,-5.3608,-5.3981,-5.4354,-5.5136,-5.6102,-5.6883,0.0,0.0,0.0,0.0,0.0,0.0,0.0,0.0,-4.2844,-4.2805,0.0,-4.1714,0.0,0.0,0.0,0.0,0.0,0.0,0.0,0.0,-5.0828,-5.2893,-5.2146,-5.2141,-5.2085,-5.1875,-5.1777,-4.9946,-4.633,-4.0189,0.0,0.0,0.0,0.0,0.0,0.0,-4.3,-4.5552,-4.8022,-4.9733,-5.0547,-5.072,-5.0803,-5.0778,-5.0157,-4.9021,-4.7423,-4.5874,-4.4309,-4.2552,-3.8531,0.0,0.0,0.0,0.0,0.0,0.0,0.0,0.0,0.0,0.0,0.0,0.0,0.0,0.0,0.0,0.0,0.0,0.0,0.0,0.0,-4.068,0.0,0.0,0.0,0.0,0.0,0.0,0.0,0.0,0.0,0.0,-5.5036,-5.6348,-5.8587,-6.1752,0.0,0.0,0.0,0.0,-6.2354,-6.2098,-6.2059,-6.195,-6.1617,-6.1486,-6.1486,-6.1562,0.0,0.0,-6.0835,-6.1945,-6.2557,-6.0912,-6.2748,-6.3825,-6.2459,-6.0453,-5.9399,-6.007,-5.9659,-5.9584,-6.0292,-6.1367,-6.2439,-4.9878,0.0,0.0,0.0,0.0,-4.6976,-4.9036,-5.2197,-5.2211,-5.0758,-4.8255,-4.7442,0.0,0.0,0.0,0.0,0.0,0.0,-4.772,-4.9087,-5.1876,-5.3276,-5.356,-5.4158,-5.412,-5.3436,-5.3436,-5.2279,-5.013,-4.8242,-4.4039,-3.7725,0.0,0.0,0.0,0.0,-4.4,-4.6985,-4.8493,-4.9564,-5.038,-5.0586,-5.0713,-5.0868,-5.009,-4.9484,-4.9161,-4.8181,-4.6882,-4.5207,-4.2825,0.0,0.0,0.0,0.0,0.0,0.0,0.0,0.0,0.0,0.0,0.0,0.0,0.0,0.0,0.0,0.0,0.0,0.0,0.0,-4.0025,-4.138,-4.3065,0.0,0.0,0.0,0.0,0.0,0.0,0.0,0.0,0.0,-6.0964,-6.0925,-6.1466,0.0,0.0,-6.3033,-6.3265,-6.3323,-6.3303,-6.3204,0.0,0.0,0.0,-6.2406,-6.2358,-6.3753,-6.5203,-6.6206,-6.636,-6.6746,-6.6939,-6.6399,-6.6756,-6.6957,-6.65,-6.4704,-6.3238,-6.3078,-6.3293,-6.363,-6.3846,-6.4582,-6.5291,-5.6115,-5.298,-5.0361,-5.0283,-5.196,-5.2333,-5.4012,-5.6552,-5.6559,-5.5478,-5.37,-5.2889,-5.04,-4.6838,-4.5991,0.0,0.0,0.0,-5.1628,-5.2847,-5.4311,-5.5222,-5.5619,-5.5785,-5.5632,-5.5097,-5.4753,-5.3913,-5.2575,-5.2575,-4.9519,-4.3634,0.0,0.0,-4.3825,-4.5086,-4.6959,-4.9251,-5.013,-5.0627,-5.0803,-5.0593,-5.0547,-5.064,-4.9928,-4.9598,-4.9687,-4.8737,-4.7736,-4.6743,-4.4809,-4.2201,0.0,0.0,0.0,0.0,0.0,0.0,0.0,0.0,0.0,0.0,0.0,-3.2489,0.0,0.0,0.0,0.0,-3.8817,-4.181,-4.4309,-4.5891,0.0,0.0,0.0,0.0,0.0,0.0,0.0,-5.8797,-6.1737,-6.4019,-6.5064,-6.5005,-6.5062,-6.5644,-6.5141,-6.4677,-6.4677,0.0,-6.5064,-6.4754,-6.5296,-6.5721,-6.5721,-6.5153,-6.5131,-6.632,-6.7307,-6.8119,-6.8661,-6.8777,-6.8777,-6.8794,-6.8899,-6.8935,-6.877,-6.785,-6.6788,-6.5802,-6.5955,-6.6333,-6.6257,-6.686,-6.7344,-6.0203,-5.9669,-5.5975,-5.4769,-5.5333,-5.6124,-5.6809,-5.739,-5.7404,-5.7824,-5.8414,-5.7602,-5.6386,-5.4746,-5.3049,0.0,-5.3443,-5.4905,-5.5951,-5.674,-5.7519,-5.7886,-5.7848,-5.7084,-5.6702,-5.6664,-5.5976,-5.5212,-5.4448,-5.4333,-5.311,-5.0818,-4.9977,-4.948,-4.9251,-4.9977,-5.0818,-5.1697,-5.2422,-5.2447,-5.1706,-5.0841,-5.0421,-5.0306,-4.9723,-4.9393,-4.9285,-4.8136,-4.7429,-4.7352,-4.5216,-4.3173,-4.1342,0.0,0.0,0.0,0.0,0.0,0.0,0.0,0.0,0.0,0.0,0.0,0.0,0.0,0.0,0.0,-4.4648,0.0,-5.0078,-5.2461,0.0,0.0,0.0,-5.6923,-5.7946,-6.0112,-6.2162,-6.3826,0.0,0.0,-6.7694,0.0,-6.9009,-6.9009,-6.7501,-6.6417,-6.6417,-6.7075,-6.7307,-6.6495,-6.7733,-6.8738,-6.8429,-6.8446,-6.8446,-6.87,-6.8893,-6.8932,-6.9087,-6.9087,-6.9048,-6.9087,-6.9667,-7.0142,-6.9823,-7.0387,-7.0486,-6.8693,-6.8151,-6.8012,-6.8133,-6.8679,-6.9043,-6.0777,-6.0652,-5.9663,-5.8966,-5.8579,-5.8784,-5.9243,-5.9826,-5.9855,-5.9507,-5.8911,-5.8719,-5.8067,-5.7085,-5.6652,-5.655,-5.678,-5.7149,-5.7416,-5.7607,-5.7798,-5.7898,-5.7881,-5.7668,-5.7581,-5.7581,-5.739,-5.7199,-5.6969,-5.632,-5.5708,-5.5097,-5.4295,-5.2614,-5.0168,-5.0856,-5.1697,-5.2499,-5.269,-5.269,-5.2523,-5.1775,-5.1092,-5.0457,-4.9717,-4.9122,-4.8593,-4.8251,-4.7881,-4.7416,-4.6852,-4.5479,-4.3177,-4.021,0.0,0.0,0.0,0.0,0.0,0.0,0.0,0.0,0.0,-4.2438,-3.6816,0.0,-4.6716,0.0,-4.7656,-5.0312,-5.2812,-5.3555,0.0,0.0,-5.946,-6.061,-6.3999,-6.4909,-6.5683,-6.6611,-6.839,-6.9512,-6.9396,-7.017,-7.0711,-7.0672,-6.9241,-6.8197,-6.8197,-6.8352,-6.8429,-6.8274,-6.8545,-6.8777,-6.8854,-6.8777,-6.9048,-6.9628,-6.9705,-6.9938,-7.0595,-7.0711,-7.0711,-7.075,-7.1407,-7.1888,-7.1858,-7.2553,-7.2954,-7.2417,-7.1017,-6.9916,-7.049,-7.0801,-7.1112,-6.0983,-6.0817,-6.08,-6.0509,-6.0019,-6.0113,-6.032,-6.0572,-6.0567,-6.0217,-5.9682,-5.9682,-5.9415,-5.9033,-5.8994,-5.8994,-5.8994,-5.8994,-5.8994,-5.9033,-5.8994,-5.9005,-5.8977,-5.8585,-5.8421,-5.8421,-5.8077,-5.7886,-5.7848,-5.739,-5.716,-5.716,-5.6358,-5.4982,-5.3187,-5.3225,-5.3531,-5.3951,-5.3582,-5.3353,-5.3339,-5.2226,-5.1277,-5.0457,-4.9685,-4.8718,-4.767,-4.7675,-4.7418,-4.6745,-4.6761,-4.6196,-4.4826,-4.2698,-4.1147,0.0,0.0,0.0,0.0,0.0,0.0,0.0,0.0,0.0,0.0,0.0,-5.0537,0.0,-5.2656,-5.5234,-5.7773,-5.9023,-6.082,-6.3594,-6.4091,-6.5172,-6.7486,-6.8039,-6.8606,-6.9406,-7.0293,-7.0827,-7.0672,-7.1059,-7.1369,-7.1291,-7.0518,-6.9783,-6.9473,-6.9667,-6.9783,-6.9396,-6.9667,-6.9899,-6.9938,-6.9899,-7.0054,-7.044,-7.0556,-7.075,-7.1214,-7.164,-7.1872,-7.191,-7.2568,-7.3187,-7.3226,-7.3535,-7.3883,-7.3721,-7.2855,-7.2206,-7.2486,-7.2601,-7.2765,-6.086,-6.0559,-6.0584,-6.0546,-6.0425,-6.0602,-6.0573,-6.037,-6.037,-6.037,-6.037,-6.037,-6.037,-6.037,-6.037,-6.037,-6.037,-6.037,-6.037,-6.037,-6.037,-6.037,-6.0332,-5.9606,-5.9262,-5.9262,-5.8574,-5.823,-5.8192,-5.8116,-5.8039,-5.8001,-5.7199,-5.6778,-5.674,-5.6091,-5.5632,-5.5403,-5.4626,-5.4244,-5.4256,-5.2728,-5.1514,-5.0604,-4.9695,-4.8452,-4.6897,-4.7024,-4.6815,-4.6187,-4.6494,-4.6676,-4.6566,-4.5172,-4.4341,0.0,-4.4348,0.0,0.0,0.0,0.0,0.0,0.0,0.0,0.0,-5.3205,-5.4626,-5.6015,-5.8398,-6.0859,-6.3281,-6.5547,-6.6992,-6.7226,-6.8555,-6.9484,-6.9483,-7.016,-7.0931,-7.178,-7.1855,-7.1843,-7.1881,-7.1859,-7.1816,-7.1794,-7.1756,-7.1446,-7.075,-7.0943,-7.0905,-7.0247,-7.0789,-7.1098,-7.1175,-7.133,-7.1407,-7.1446,-7.164,-7.1601,-7.1717,-7.2297,-7.2761,-7.2839,-7.3458,-7.4038,-7.4038,-7.4154,-7.427,-7.4347,-7.4247,-7.4108,-7.3992,-7.3992,-7.3968,-6.0387,-6.0352,-6.0285,-6.0275,-6.0398,-6.0468,-6.0441,-6.037,-6.037,-6.037,-6.037,-6.037,-6.037,-6.037,-6.037,-6.037,-6.037,-6.037,-6.037,-6.037,-6.037,-6.037,-6.037,-6.0217,-6.0141,-6.0141,-5.9988,-5.9911,-5.9911,-5.9224,-5.888,-5.8842,-5.8039,-5.7657,-5.7657,0.0,0.0,0.0,-5.5224,-5.5174,-5.5135,-5.4288,-5.3031,-5.1475,-5.0105,0.0,-4.7009,-4.7632,-4.7986,-4.7889,-4.929,0.0,0.0,0.0,0.0,0.0,0.0,0.0,0.0,0.0,0.0,0.0,-5.563,-5.5162,-5.4732,-5.8558,-6.0909,-6.0577,-6.2219,-6.4094,-6.5969,-6.66,-6.7734,-6.9687,-7.0234,-7.0702,-7.1363,-7.1595,-7.1986,-7.2728,-7.2834,-7.3062,-7.3535,-7.3682,-7.3618,-7.3502,-7.3596,-7.3458,-7.3148,-7.2065,-7.1291,-7.1098,-7.133,-7.133,-7.1291,-7.191,-7.2336,-7.2413,-7.2993,-7.3303,-7.3342,-7.3458,-7.3651,-7.369,-7.4309,-7.4889,-7.4889,-7.543,-7.5817,-7.5933,-7.5895,-7.5701,-7.5044,-7.4889,-7.5059,-6.1306,0.0,-6.0866,-6.0695,0.0,-6.037,-6.037,-6.037,-6.037,-6.037,-6.037,-6.037,-6.037,-6.037,-6.037,-6.037,-6.037,-6.037,-6.037,-6.037,-6.037,-6.037,-6.037,-6.037,-6.037,-6.037,-6.037,-6.037,-6.037,-5.995,-5.9759,-5.972,-5.8918,-5.8498,-5.8498,-5.8077,-5.7275,-5.6014,-5.5632,-5.5403,-5.5365,-5.4647,-5.3644,-5.2379,0.0,0.0,0.0,0.0,0.0,0.0,0.0,0.0,0.0,0.0,0.0,-5.3046,-5.3621,-5.4264,-5.5162,-5.6411,-5.7894,-5.9573,-6.09,-6.0939,-5.9222,-6.1915,-6.3638,-6.3646,-6.4818,-6.6266,-6.7945,-6.8499,-6.9445,-7.1089,-7.1361,-7.1515,-7.195,-7.2382,-7.2773,-7.3161,-7.3585,-7.3984,-7.4278,-7.4299,-7.4266,-7.4166,-7.4129,-7.4115,-7.396,-7.3226,-7.2607,-7.2607,-7.2607,-7.2568,-7.2607,-7.2916,-7.3264,-7.3303,-7.3612,-7.3844,-7.3883,-7.4231,-7.4502,-7.4579,-7.5198,-7.574,-7.5779,-7.6088,-7.6397,-7.6436,-7.6746,-7.69,-7.6475,-7.6397,-7.663,-6.2413,-6.1713,-6.1764,-6.144,-6.0828,-6.0676,-6.0523,-6.037,0.0,0.0,0.0,-6.037,-6.037,-6.037,-6.037,-6.037,-6.037,-6.037,-6.037,-6.037,-6.037,-6.037,-6.037,-6.037,-6.037,-6.037,-6.037,-6.037,-6.037,-6.037,-6.037,-6.0332,-5.9682,-5.9338,-5.93,-5.8498,-5.7772,-5.7046,-5.6243,-5.5861,-5.5823,-5.5211,-5.4456,-5.3683,-5.3596,-5.2854,-5.1433,-5.2184,-5.2338,-5.1802,-5.2133,-5.2926,-5.4194,-5.4632,-5.5737,-5.7697,-5.8805,-5.9417,-5.9573,-6.1017,-6.2071,-6.2345,-6.4375,-6.4999,-6.3555,-6.4258,-6.5116,-6.5975,-6.6678,-6.781,-6.945,-7.027,-7.1021,-7.19,-7.2002,-7.2037,-7.2248,-7.2845,-7.3395,-7.3741,-7.4427,-7.4861,-7.4959,-7.4978,-7.4843,-7.4728,-7.4789,-7.4579,-7.4502,-7.4115,-7.3728,-7.3728,-7.3651,-7.3806,-7.3883,-7.4038,-7.4115,-7.4115,-7.427,-7.4347,-7.4425,-7.4889,-7.5276,-7.5353,-7.6049,-7.6552,-7.663,-7.6823,-7.6862,-7.6862,-7.7442,-7.7983,-7.8099,-7.8138,-7.8293,-6.2503,-6.2459,-6.2552,-6.2604,-6.251,-6.1745,-6.1019,-6.0408,-6.0408,-6.0408,-6.037,-6.037,-6.037,-6.037,-6.037,-6.037,-6.037,-6.037,-6.037,0.0,-6.037,-6.037,-6.037,-6.037,-6.037,-6.037,-6.037,-6.037,-6.037,-6.037,-6.037,-6.037,-6.0255,-6.0179,-6.0141,-5.9376,-5.888,-5.8727,-5.7963,-5.7542,-5.7542,-5.7506,-5.706,-5.629,-5.5599,-5.4857,-5.401,-5.4852,-5.5259,-5.5091,-5.6559,-5.7273,-5.69,-5.7573,-5.8296,-5.8889,-5.9724,-6.0549,-6.1291,-6.2267,-6.3477,-6.4882,-6.539,-6.5468,-6.5312,-6.5975,-6.6795,-6.7654,-6.7849,-6.863,-7.027,-7.066,-7.1095,-7.1854,-7.1997,-7.226,-7.2969,-7.3247,-7.3888,-7.5233,-7.5646,-7.6008,-7.6497,-7.6661,-7.6601,-7.6591,-7.6303,-7.6405,-7.5924,-7.4889,-7.3999,-7.3883,-7.3883,-7.3883,-7.4115,-7.4541,-7.4889,-7.4928,-7.5508,-7.5856,-7.5817,-7.6049,-7.6204,-7.6204,-7.6939,-7.7442,-7.7519,-7.8177,-7.8409,-7.8448,-7.8641,-7.8989,-7.9531,-7.9685,-7.9647,-6.3682,-6.3334,-6.3459,-6.3321,-6.2892,-6.2462,-6.208,-6.1784,-6.1745,-6.1249,-6.0408,-6.037,-6.037,-6.037,-6.037,-6.037,-6.037,-6.037,-6.037,-6.037,-6.037,-6.037,-6.037,-6.037,-6.037,-6.037,-6.037,-6.037,-6.037,-6.037,-6.037,-6.037,-6.037,-6.037,-6.037,-5.9988,-5.9835,-5.9759,-5.8536,-5.7886,-5.7886,-5.7992,-5.7876,-5.7517,-5.7175,-5.6934,-5.6588,-5.6967,-5.7203,-5.7216,-5.8046,-5.8562,-5.8668,-5.911,-5.9646,-6.0224,-6.0707,-6.1413,-6.234,-6.3672,-6.4726,-6.5507,-6.6014,-6.6249,-6.6249,-6.66,-6.7146,-6.8044,-6.8513,-6.9333,-7.0582,-7.1128,-7.1563,-7.1958,-7.1993,-7.2339,-7.3158,-7.3783,-7.4496,-7.5646,-7.6258,-7.6711,-7.7101,-7.714,-7.7122,-7.7066,-7.7012,-7.691,-7.6747,-7.6005,-7.5372,-7.5282,-7.5237,-7.5276,-7.5237,-7.5508,-7.5779,-7.5779,-7.6127,-7.6359,-7.6436,-7.6707,-7.7055,-7.7171,-7.7829,-7.8332,-7.8409,-7.8718,-7.895,-7.9067,-7.9415,-7.9801,-8.015,-8.0536,-8.0769,-6.478,-6.4209,-6.4367,-6.3932,-6.3197,-6.3179,-6.3102,-6.293,-6.2862,-6.2137,-6.1058,-6.0752,-6.0561,-6.0408,-6.037,-6.037,-6.037,-6.037,-6.037,-6.037,-6.037,-6.037,-6.037,-6.037,-6.037,-6.037,-6.037,-6.037,-6.037,-6.037,-6.037,-6.037,-6.037,-6.037,-6.037,-6.037,-6.037,-6.0293,-5.9109,-5.8459,-5.8459,-5.8592,-5.8642,-5.8667,-5.8765,-5.8873,-5.8858,-5.885,-5.8902,-5.9012,-5.9032,-5.9321,-5.9939,-6.0118,-6.0522,-6.1161,-6.1584,-6.2313,-6.355,-6.4843,-6.5663,-6.5858,-6.6444,-6.6795,-6.6795,-6.699,-6.7459,-6.8318,-6.8981,-6.9801,-7.0855,-7.1597,-7.1987,-7.1987,-7.2182,-7.269,-7.3471,-7.433,-7.5188,-7.6008,-7.6711,-7.7062,-7.7101,-7.7101,-7.7073,-7.7091,-7.703,-7.698,-7.6887,-7.6809,-7.6675,-7.6555,-7.6471,-7.6382,-7.6498,-7.6397,-7.6397,-7.6436,-7.6397,-7.6514,-7.6707,-7.7287,-7.7751,-7.7983,-7.868,-7.9183,-7.9299,-7.9531,-7.9647,-7.9763,-8.0188,-8.0498,-8.0575,-8.1001,-8.1465,-6.5019,-6.5117,-6.5105,-6.478,-6.4114,-6.4046,-6.3664,-6.3045,-6.2947,-6.2871,-6.2586,-6.1822,-6.1096,-6.0446,-6.0408,-6.037,-6.037,-6.037,-6.037,-6.037,-6.037,-6.037,-6.037,-6.037,-6.037,-6.037,-6.037,-6.037,-6.037,-6.037,-6.037,-6.037,-6.037,-6.037,-6.037,-6.037,-6.037,-6.037,-6.0255,-6.0141,-6.0179,-6.0261,-6.0341,-6.0393,-6.0405,-6.0517,-6.0473,-6.0589,-6.055,-6.0573,-6.0519,-6.0646,-6.0848,-6.0904,-6.0993,-6.1264,-6.2129,-6.3444,-6.5106,-6.5507,-6.5936,-6.66,-6.6756,-6.6834,-6.6873,-6.7537,-6.8318,-6.9098,-6.9372,-7.0152,-7.1636,-7.1948,-7.2026,-7.2143,-7.269,-7.351,-7.429,-7.5149,-7.6008,-7.6867,-7.7023,-7.7101,-7.7101,-7.7101,-7.7101,-7.7107,-7.7078,-7.7103,-7.71,-7.7,-7.7056,-7.6877,-7.6754,-7.6746,-7.6798,-7.6692,-7.6815,-7.6715,-7.6552,-7.6885,-7.7427,-7.7713,-7.7906,-7.8834,-7.9531,-8.0072,-8.0266,-8.0691,-8.1155,-8.0923,-8.1117,-8.1349,-8.1387,-8.1426,-8.1504,-6.5095,-6.5232,-6.5258,-6.5161,-6.4917,-6.4917,-6.4726,-6.4382,-6.439,-6.4123,-6.3656,-6.3274,-6.2395,-6.1096,-6.0637,-6.037,-6.037,-6.037,-6.037,-6.037,-6.037,-6.037,-6.037,-6.037,-6.037,-6.037,-6.037,-6.037,-6.037,-6.037,-6.037,-6.037,-6.037,-6.037,-6.037,-6.037,-6.037,-6.037,-6.037,-6.037,-6.0398,-6.0518,-6.0597,-6.0585,-6.0685,-6.0796,-6.0781,-6.0781,-6.0781,-6.0781,-6.0781,-6.0827,-6.0877,-6.0899,-6.1175,-6.1845,-6.3378,-6.4588,-6.5363,-6.5953,-6.6444,-6.6795,-6.7264,-6.7576,-6.7615,-6.8396,-6.9215,-6.9996,-7.0191,-7.0699,-7.1792,-7.1987,-7.2182,-7.2651,-7.3119,-7.3822,-7.5149,-7.5579,-7.6125,-7.6945,-7.7101,-7.7101,-7.7101,-7.7101,-7.7101,-7.7101,-7.7101,-7.7278,-7.7651,-7.7383,-7.7499,-7.8201,-7.8044,-7.7657,-7.7623,-7.7926,-7.8046,-7.8088,-7.8085,-7.8247,-7.8379,-7.8975,-7.9337,-7.9685,-8.0382,-8.0885,-8.1001,-8.1194,-8.1504,-8.1504,-8.1504,-8.1504,-8.1504,-8.1504,-8.1504,-6.5627,-6.5503,-6.5404,-6.5352,-6.5413,-6.5413,-6.5413,-6.5413,-6.5413,-6.507,-6.4535,-6.4305,-6.3503,-6.228,-6.1211,-6.0714,-6.0714,-6.0485,-6.037,-6.037,-6.037,-6.037,-6.037,-6.037,-6.037,-6.037,-6.037,-6.037,-6.037,-6.037,-6.037,-6.037,-6.037,-6.037,-6.037,-6.037,-6.037,-6.037,-6.037,-6.037,-6.0436,-6.0545,-6.0623,-6.0623,-6.071,-6.0781,-6.0781,-6.0781,-6.0781,-6.0781,-6.0781,-6.0896,-6.1127,-6.1166,-6.1704,-6.2917,-6.4342,-6.5322,-6.5611,-6.6346,-6.6856,-6.7185,-6.7771,-6.82,-6.8552,-6.9255,-6.9996,-7.0582,-7.0894,-7.1363,-7.187,-7.2221,-7.2651,-7.3236,-7.3627,-7.4525,-7.5618,-7.5969,-7.6438,-7.6984,-7.7101,-7.7101,-7.7101,-7.7101,-7.7101,-7.7101,-7.7335,-7.7609,-7.8239,-7.8071,-7.8269,-7.9488,-7.9248,-7.8983,-7.8688,-7.8807,-7.9283,-7.9243,-7.9074,-7.9037,-7.936,-7.9927,-8.042,-8.0459,-8.1155,-8.1426,-8.1349,-8.1465,-8.1504,-8.1504,-8.1504,-8.1504,-8.1504,-8.1504,-8.1504,-6.6961,-6.6265,-6.5664,-6.549,-6.5413,-6.5452,-6.5413,-6.5413,-6.5413,-6.5375,-6.5184,-6.4573,-6.4153,-6.3923,-6.2357,-6.1554,-6.144,-6.0828,-6.0523,-6.0485,-6.0446,-6.0408,-6.037,-6.037,-6.037,-6.037,-6.037,-6.037,-6.037,-6.037,-6.037,-6.037,-6.037,-6.037,-6.037,-6.037,-6.037,-6.037,-6.037,-6.037,-6.0398,-6.0506,-6.0623,-6.0661,-6.071,-6.0781,-6.0781,-6.0781,-6.0781,-6.0781,-6.0819,-6.1204,-6.1897,-6.205,-6.286,-6.4366,-6.4774,-6.5342,-6.6307,-6.6595,-6.7032,-6.7832,-6.8156,-6.8513,-6.9294,-7.0113,-7.066,-7.0738,-7.1441,-7.1909,-7.2143,-7.2729,-7.3197,-7.3549,-7.4759,-7.554,-7.5813,-7.6516,-7.6984,-7.7062,-7.7101,-7.7101,-7.7101,-7.7101,-7.714,-7.7296,-7.7804,-7.839,-7.8663,-7.9098,-7.9488,-7.9918,-8.0269,-8.0548,-7.9851,-7.9881,-7.9743,-7.9754,-7.9922,-7.9576,-7.995,-8.0377,-8.0779,-8.1103,-8.1349,-8.1504,-8.1504,-8.1504,-8.1504,-8.1504,-8.1504,-8.1504,-8.1504,-8.1504,-8.1504,-6.7382,-6.7216,-6.707,-6.6713,-6.6254,-6.6246,-6.5902,-6.5413,-6.5413,-6.5413,-6.5375,-6.507,-6.4955,-6.4917,-6.377,-6.2968,-6.2433,-6.2128,-6.1707,-6.1211,-6.1172,-6.0905,-6.0408,-6.037,-6.037,-6.037,-6.037,-6.037,-6.037,-6.037,-6.037,-6.037,-6.037,-6.037,-6.037,-6.037,-6.037,-6.0408,-6.037,-6.037,-6.0474,-6.0518,-6.0865,-6.1352,-6.1017,-6.0781,-6.0781,-6.0781,-6.0781,-6.0781,-6.132,-6.1781,-6.2127,-6.3128,-6.3984,-6.4617,-6.5252,-6.5819,-6.6273,-6.6888,-6.7424,-6.7959,-6.899,-6.9717,-7.0258,-7.1011,-7.1519,-7.1597,-7.1753,-7.2182,-7.2768,-7.3119,-7.3744,-7.4759,-7.5423,-7.6047,-7.6516,-7.6906,-7.7101,-7.7101,-7.7101,-7.7101,-7.7101,-7.7101,-7.7335,-7.7843,-7.8194,-7.8858,-7.9717,-7.9912,-8.0107,-8.1005,-8.1161,-8.1083,-8.1474,-8.1284,-8.124,-8.1173,-8.1195,-8.1065,-8.1265,-8.1092,-8.1375,-8.1344,-8.149,-8.1504,-8.1504,-8.1504,-8.1504,-8.1504,-8.1504,-8.1504,-8.1504,-8.1504,-8.1504,-6.8019,-6.8155,-6.798,-6.7591,-6.7095,-6.708,-6.6774,-6.6178,-6.591,-6.5796,-6.5757,-6.5528,-6.5413,-6.5299,-6.484,-6.4305,-6.3656,-6.3197,-6.2586,-6.2051,-6.2013,-6.1745,-6.1287,-6.1211,-6.1211,-6.1134,-6.0867,-6.079,-6.0752,-6.0523,-6.0676,-6.1172,-6.0943,-6.0943,-6.1134,-6.1211,-6.1211,-6.1172,-6.1201,-6.1239,-6.1201,-6.1322,-6.167,-6.2145,-6.1824,-6.1589,-6.1627,-6.1589,-6.1589,-6.1666,-6.2204,-6.2627,-6.2974,-6.4243,-6.5013,-6.5114,-6.5643,-6.62,-6.6533,-6.7154,-6.7884,-6.8678,-6.9712,-7.0571,-7.1078,-7.1675,-7.1948,-7.1987,-7.1987,-7.2378,-7.3393,-7.3705,-7.4251,-7.554,-7.6047,-7.6438,-7.7023,-7.7062,-7.7101,-7.7101,-7.7101,-7.7101,-7.714,-7.7375,-7.7804,-7.835,-7.8819,-7.9795,-8.0615,-8.0849,-8.0849,-8.1981,-8.1747,-8.1747,-8.1903,-8.1894,-8.1835,-8.1831,-8.1777,-8.1898,-8.1895,-8.1756,-8.1674,-8.1608,-8.1577,-8.1528,-8.1504,-8.1504,-8.1504,-8.1504,-8.1504,-8.1504,-8.1504,-8.1504,-8.1504,-6.906,-6.9049,-6.8279,-6.8012,-6.7935,-6.7921,-6.7883,-6.7591,-6.7011,-6.6705,-6.6598,-6.5834,-6.5528,-6.5452,-6.5337,-6.5299,-6.4955,-6.377,-6.3083,-6.293,-6.2892,-6.2853,-6.2662,-6.2653,-6.2653,-6.2624,-6.1975,-6.1631,-6.1593,-6.1058,-6.1363,-6.2433,-6.1936,-6.1936,-6.2815,-6.2662,-6.2739,-6.2691,-6.2615,-6.273,-6.2911,-6.2842,-6.2935,-6.3115,-6.3169,-6.3243,-6.332,-6.3243,-6.3089,-6.3166,-6.3243,-6.3705,-6.4474,-6.532,-6.5859,-6.5897,-6.5961,-6.6429,-6.7265,-6.7518,-6.8488,-6.9733,-7.0353,-7.0902,-7.165,-7.1903,-7.1987,-7.1987,-7.2143,-7.269,-7.4056,-7.4486,-7.4876,-7.5735,-7.6516,-7.6984,-7.7062,-7.7101,-7.7101,-7.7179,-7.7257,-7.714,-7.7335,-7.7921,-7.8507,-7.8936,-7.9834,-8.081,-8.1161,-8.1591,-8.2137,-8.2254,-8.2137,-8.2137,-8.2215,-8.2299,-8.225,-8.2186,-8.2109,-8.2129,-8.1977,-8.1851,-8.1757,-8.1656,-8.1577,-8.1528,-8.1504,-8.1504,-8.1504,-8.1504,-8.1504,-8.1504,-8.1504,-8.1504,-8.1504,-6.987,-6.99,-6.9737,-6.9311,-6.8814,-6.8776,-6.8508,-6.7897,-6.7598,-6.7522,-6.74,-6.6674,-6.6292,-6.6139,-6.5681,-6.5413,-6.5337,-6.4802,-6.4344,-6.3847,-6.3809,-6.3465,-6.3045,-6.293,-6.2892,-6.2853,-6.2624,-6.251,-6.2433,-6.2204,-6.2433,-6.2739,-6.2662,-6.2624,-6.2968,-6.2892,-6.2892,-6.2882,-6.2921,-6.2892,-6.2892,-6.3016,-6.3406,-6.3921,-6.4129,-6.4474,-6.5013,-6.3974,-6.3358,-6.3358,-6.3897,-6.4589,-6.5359,-6.5743,-6.6128,-6.6667,-6.6705,-6.7116,-6.8,-6.8602,-6.9208,-7.006,-7.072,-7.1278,-7.1741,-7.1924,-7.1987,-7.2104,-7.2534,-7.3393,-7.429,-7.5071,-7.5696,-7.6594,-7.6945,-7.7101,-7.7101,-7.7101,-7.7414,-7.7882,-7.7999,-7.8233,-7.8702,-7.9209,-7.9483,-7.999,-8.0654,-8.12,-8.1786,-8.2059,-8.2293,-8.2293,-8.2293,-8.2293,-8.2293,-8.2293,-8.2271,-8.225,-8.2221,-8.2187,-8.2053,-8.1948,-8.1843,-8.1698,-8.1585,-8.1553,-8.1504,-8.1504,-8.1504,-8.1504,-8.1504,-8.1504,-8.1504,-8.1504,-8.1504,-7.0289,-7.0353,-7.0386,-7.0151,-6.9655,-6.966,-6.9355,-6.8814,-6.8521,-6.8368,-6.8241,-6.7515,-6.7133,-6.698,-6.6254,-6.591,-6.5834,-6.5566,-6.5146,-6.4688,-6.4649,-6.4305,-6.3847,-6.3847,-6.3618,-6.3427,-6.3388,-6.3388,-6.335,-6.3083,-6.3197,-6.3694,-6.3541,-6.3579,-6.3809,-6.3847,-6.3809,-6.3838,-6.3885,-6.3876,-6.3906,-6.4029,-6.4392,-6.4857,-6.5,-6.5359,-6.5782,-6.482,-6.4282,-6.4397,-6.5051,-6.5782,-6.632,-6.6667,-6.7051,-6.7436,-6.7628,-6.7975,-6.8783,-6.9321,-6.9951,-7.038,-7.1066,-7.1559,-7.1689,-7.187,-7.2065,-7.2534,-7.2963,-7.3744,-7.4798,-7.5423,-7.6164,-7.6984,-7.7062,-7.7101,-7.714,-7.7414,-7.7765,-7.8272,-7.8663,-7.9131,-7.9522,-8.0107,-8.0341,-8.0927,-8.1278,-8.1591,-8.2137,-8.2293,-8.2293,-8.2293,-8.2293,-8.2293,-8.2293,-8.2293,-8.2293,-8.2271,-8.2281,-8.2226,-8.2129,-8.2016,-8.189,-8.1698,-8.1577,-8.1528,-8.1504,-8.1504,-8.1504,-8.1504,-8.1504,-8.1504,-8.1504,-8.1504,-8.1504,-7.0319,-7.0419,-7.0419,-7.0381,-7.0342,-7.0342,-7.0266,-7.0228,-6.9622,-6.924,-6.9082,-6.8356,-6.7973,-6.7782,-6.7133,-6.6713,-6.656,-6.591,-6.549,-6.5337,-6.5299,-6.5184,-6.5108,-6.507,-6.4764,-6.4344,-6.4229,-6.4229,-6.4191,-6.3618,-6.3809,-6.4993,-6.4573,-6.4573,-6.5031,-6.5337,-6.5184,-6.5146,-6.5261,-6.5282,-6.5322,-6.5531,-6.5751,-6.5832,-6.591,-6.6051,-6.6205,-6.6128,-6.5974,-6.6051,-6.6628,-6.709,-6.7321,-6.7975,-6.8244,-6.8436,-6.8475,-6.8936,-6.9552,-6.986,-7.0196,-7.0954,-7.1242,-7.1622,-7.1821,-7.2071,-7.2522,-7.3275,-7.3549,-7.4173,-7.5384,-7.593,-7.636,-7.7023,-7.7335,-7.7296,-7.7257,-7.796,-7.8546,-7.878,-7.9287,-7.9834,-8.0029,-8.0693,-8.1005,-8.1278,-8.1747,-8.2137,-8.2254,-8.2293,-8.2293,-8.2293,-8.2293,-8.2293,-8.2293,-8.2293,-8.2293,-8.2299,-8.2271,-8.2221,-8.2175,-8.2036,-8.1913,-8.1716,-8.1553,-8.1528,-8.1504,-8.1504,-8.1504,-8.1504,-8.1504,-8.1504,-8.1504,-8.1504,-8.1504,-7.0286,-7.0419,-7.0419,-7.0419,-7.0419,-7.0419,-7.0419,-7.0381,-7.0157,-7.0004,-6.9884,-6.9196,-6.8852,-6.8738,-6.7973,-6.7286,-6.6827,-6.6483,-6.5948,-6.5452,-6.5413,-6.5413,-6.5413,-6.5413,-6.5299,-6.507,-6.4993,-6.507,-6.507,-6.4726,-6.4917,-6.5375,-6.5184,-6.5146,-6.5375,-6.5413,-6.5413,-6.5413,-6.5413,-6.5512,-6.559,-6.569,-6.6012,-6.6638,-6.6756,-6.709,-6.7628,-6.7744,-6.7398,-6.6898,-6.759,-6.8052,-6.809,-6.8359,-6.8783,-6.9244,-6.9398,-6.9706,-7.036,-7.0591,-7.076,-7.0928,-7.1347,-7.163,-7.2384,-7.2612,-7.3172,-7.4038,-7.472,-7.5266,-7.5813,-7.6399,-7.714,-7.7882,-7.8077,-7.8116,-7.8194,-7.8819,-7.9561,-8.0185,-8.0459,-8.0888,-8.1356,-8.1669,-8.1864,-8.1942,-8.2098,-8.2293,-8.2293,-8.2293,-8.2293,-8.2293,-8.2293,-8.2293,-8.2293,-8.2293,-8.2293,-8.2293,-8.2271,-8.2253,-8.2132,-8.1984,-8.1887,-8.174,-8.163,-8.1542,-8.1542,-8.1504,-8.1504,-8.1504,-8.1504,-8.1504,-8.1504,-8.1504,-8.1504,-7.0251,-7.0419,-7.0419,-7.0419,-7.0419,-7.0419,-7.0419,-7.0419,-7.0419,-7.0419,-7.0304,-6.9922,-6.9693,-6.9616,-6.8814,-6.8203,-6.7744,-6.7362,-6.6942,-6.6522,-6.6139,-6.5796,-6.549,-6.5413,-6.5413,-6.5413,-6.5413,-6.5375,-6.5375,-6.5413,-6.5413,-6.5413,-6.5413,-6.5413,-6.5375,-6.5413,-6.5605,-6.5872,-6.5987,-6.6162,-6.6615,-6.6688,-6.6999,-6.7499,-6.7628,-6.7936,-6.8398,-6.8706,-6.8552,-6.8013,-6.8436,-6.8936,-6.8975,-6.9283,-6.9667,-7.0206,-7.0206,-7.0437,-7.086,-7.1206,-7.1437,-7.1568,-7.1888,-7.2499,-7.3135,-7.3419,-7.3963,-7.4942,-7.554,-7.593,-7.6438,-7.714,-7.7804,-7.835,-7.9053,-7.9287,-7.9014,-7.9717,-8.0381,-8.0927,-8.1317,-8.1669,-8.2254,-8.2293,-8.2293,-8.2293,-8.2254,-8.2293,-8.2293,-8.2293,-8.2293,-8.2293,-8.2293,-8.2293,-8.2293,-8.2293,-8.2293,-8.2293,-8.2305,-8.225,-8.2145,-8.2026,-8.189,-8.1796,-8.1662,-8.1581,-8.1542,-8.1504,-8.1504,-8.1504,-8.1504,-8.1504,-8.1504,-8.1504,-8.1504,-7.0251,-7.0419,-7.0419,-7.0419,-7.0419,-7.0419,-7.0419,-7.0419,-7.0419,-7.0419,-7.0381,-7.0419,-7.0304,-7.0342,-6.9616,-6.9234,-6.9082,-6.8317,-6.7973,-6.7553,-6.7095,-6.6522,-6.5948,-6.5528,-6.5413,-6.5413,-6.5413,-6.5413,-6.5413,-6.5413,-6.5413,-6.5452,-6.549,-6.5566,-6.5757,-6.5719,-6.6139,-6.6681,-6.6834,-6.7194,-6.7735,-6.7937,-6.8098,-6.8475,-6.8744,-6.8783,-6.9052,-6.9398,-6.9475,-6.8706,-6.9398,-6.9783,-6.9898,-7.0514,-7.0783,-7.0783,-7.0783,-7.086,-7.1129,-7.1783,-7.2245,-7.2415,-7.3112,-7.3812,-7.4013,-7.4257,-7.4789,-7.578,-7.5924,-7.6438,-7.714,-7.796,-7.8507,-7.8975,-8.0185,-8.0459,-8.0341,-8.0654,-8.1122,-8.1161,-8.1864,-8.2215,-8.2293,-8.2293,-8.2293,-8.2293,-8.2293,-8.2293,-8.2293,-8.2293,-8.2293,-8.2293,-8.2293,-8.2293,-8.2293,-8.2293,-8.2293,-8.2293,-8.2305,-8.2285,-8.2221,-8.2081,-8.1967,-8.1836,-8.1695,-8.1615,-8.1542,-8.1504,-8.1504,-8.1504,-8.1504,-8.1504,-8.1504,-8.1504,-8.1504,-7.0319,-7.0419,-7.0419,-7.0419,-7.0419,-7.0419,-7.0419,-7.0419,-7.0419,-7.0419,-7.0419,-7.0419,-7.0419,-7.0381,-7.0151,-6.9807,-6.9311,-6.8967,-6.8585,-6.7897,-6.7782,-6.7591,-6.7018,-6.6178,-6.549,-6.549,-6.5452,-6.5452,-6.5452,-6.5605,-6.5413,-6.5566,-6.6178,-6.6445,-6.6483,-6.6904,-6.74,-6.763,-6.7636,-6.7883,-6.8233,-6.8397,-6.8751,-6.936,-6.9937,-7.0283,-7.036,-7.0552,-7.0552,-7.0475,-7.0475,-7.0552,-7.0591,-7.0744,-7.0898,-7.0898,-7.0975,-7.1206,-7.1822,-7.2168,-7.2514,-7.3168,-7.3597,-7.3922,-7.4724,-7.4981,-7.5532,-7.6359,-7.6755,-7.7095,-7.7882,-7.8233,-7.9053,-8.0068,-8.0732,-8.1239,-8.163,-8.1864,-8.1903,-8.202,-8.2137,-8.2293,-8.2293,-8.2293,-8.2293,-8.2293,-8.2293,-8.2293,-8.2293,-8.2293,-8.2293,-8.2293,-8.2293,-8.2293,-8.2293,-8.2293,-8.2293,-8.2293,-8.2305,-8.232,-8.2258,-8.2187,-8.2059,-8.1883,-8.1775,-8.1685,-8.1581,-8.1504,-8.1504,-8.1504,-8.1504,-8.1504,-8.1504,-8.1504,-8.1504,-7.0319,-7.0419,-7.0419,-7.0419,-7.0419,-7.0419,-7.0419,-7.0419,-7.0419,-7.0419,-7.0419,-7.0419,-7.0419,-7.0419,-7.0381,-7.0113,-6.9884,-6.9769,-6.954,-6.9082,-6.8776,-6.8508,-6.8279,-6.7324,-6.656,-6.656,-6.6598,-6.656,-6.656,-6.6522,-6.6674,-6.656,-6.7056,-6.7247,-6.7247,-6.7706,-6.805,-6.8432,-6.8508,-6.8769,-6.9253,-6.9374,-6.9568,-7.0179,-7.0667,-7.0898,-7.086,-7.086,-7.0898,-7.0898,-7.0898,-7.0898,-7.0898,-7.0898,-7.0898,-7.0937,-7.136,-7.1629,-7.2168,-7.2937,-7.3591,-7.4014,-7.4399,-7.495,-7.5461,-7.5718,-7.6065,-7.6599,-7.6936,-7.7333,-7.8305,-7.9366,-8.0146,-8.0732,-8.1396,-8.1825,-8.2176,-8.2293,-8.2293,-8.2293,-8.2293,-8.2293,-8.2293,-8.2293,-8.2293,-8.2293,-8.2293,-8.2293,-8.2293,-8.2293,-8.2293,-8.2293,-8.2293,-8.2293,-8.2293,-8.2293,-8.2293,-8.2293,-8.2293,-8.2315,-8.2292,-8.2226,-8.2145,-8.2015,-8.1875,-8.174,-8.1658,-8.1581,-8.1542,-8.1504,-8.1504,-8.1504,-8.1504,-8.1504,-8.1504,-7.0353,-7.0419,-7.0419,-7.0419,-7.0419,-7.0419,-7.0419,-7.0419,-7.0419,-7.0419,-7.0419,-7.0419,-7.0419,-7.0419,-7.0419,-7.0419,-7.0381,-7.0381,-7.0151,-7.0075,-6.9616,-6.9425,-6.9158,-6.8661,-6.8279,-6.8279,-6.7821,-6.7744,-6.7744,-6.7897,-6.7591,-6.7821,-6.805,-6.8088,-6.8088,-6.8317,-6.8738,-6.9311,-6.9419,-6.9725,-7.0369,-7.0494,-7.0633,-7.0755,-7.086,-7.0898,-7.0898,-7.0898,-7.0975,-7.1091,-7.1091,-7.1168,-7.1245,-7.1129,-7.1091,-7.1168,-7.1937,-7.2514,-7.2976,-7.3822,-7.463,-7.4861,-7.5476,-7.5975,-7.616,-7.6165,-7.6361,-7.6638,-7.7014,-7.7648,-7.8728,-7.9873,-8.081,-8.1317,-8.1903,-8.2254,-8.2293,-8.2293,-8.2293,-8.2293,-8.2293,-8.2293,-8.2293,-8.2293,-8.2293,-8.2293,-8.2293,-8.2293,-8.2293,-8.2293,-8.2293,-8.2293,-8.2293,-8.2293,-8.2293,-8.2293,-8.2293,-8.2293,-8.2293,-8.231,-8.2289,-8.2264,-8.2186,-8.209,-8.1967,-8.1852,-8.1708,-8.1581,-8.1542,-8.1542,-8.1504,-8.1504,-8.1504,-8.1504,-8.1504,-7.0386,-7.0419,-7.0419,-7.0419,-7.0419,-7.0419,-7.0419,-7.0419,-7.0419,-7.0419,-7.0419,-7.0419,-7.0419,-7.0419,-7.0419,-7.0419,-7.0419,-7.0419,-7.0419,-7.0419,-7.0151,-7.0113,-6.9999,-6.9846,-6.9807,-6.9578,-6.8814,-6.8126,-6.805,-6.7897,-6.8203,-6.8126,-6.8623,-6.8967,-6.9158,-6.9578,-6.9807,-6.9999,-7.0107,-7.0407,-7.063,-7.0746,-7.0815,-7.0898,-7.0898,-7.0898,-7.0898,-7.0937,-7.1206,-7.1898,-7.1975,-7.236,-7.2629,-7.2322,-7.2091,-7.2168,-7.2783,-7.3476,-7.4014,-7.4437,-7.513,-7.5592,-7.5899,-7.5976,-7.6079,-7.6276,-7.6521,-7.6905,-7.7594,-7.8613,-8.0374,-8.0888,-8.1356,-8.1864,-8.2137,-8.2293,-8.2293,-8.2293,-8.2293,-8.2293,-8.2293,-8.2293,-8.2293,-8.2293,-8.2293,-8.2293,-8.2293,-8.2293,-8.2293,-8.2293,-8.2293,-8.2293,-8.2293,-8.2293,-8.2293,-8.2293,-8.2293,-8.2293,-8.2293,-8.2305,-8.2324,-8.2301,-8.2226,-8.2148,-8.2031,-8.1866,-8.1718,-8.1615,-8.1542,-8.1542,-8.1504,-8.1504,-8.1504,-8.1504,-8.1504,-7.0419,-7.0419,-7.0419,-7.0419,-7.0419,-7.0419,-7.0419,-7.0419,-7.0419,-7.0419,-7.0419,-7.0419,-7.0419,-7.0419,-7.0419,-7.0419,-7.0419,-7.0419,-7.0419,-7.0419,-7.0419,-7.0419,-7.0419,-7.0419,-7.0419,-7.019,-6.954,-6.912,-6.9196,-6.9234,-6.912,-6.9311,-6.9655,-6.9807,-6.9884,-7.0151,-7.0419,-7.0419,-7.049,-7.0592,-7.0693,-7.0796,-7.0871,-7.0898,-7.0898,-7.0898,-7.0975,-7.1437,-7.1745,-7.2168,-7.2629,-7.3053,-7.336,-7.3553,-7.3322,-7.3129,-7.3668,-7.4245,-7.4745,-7.5053,-7.5592,-7.5899,-7.6015,-7.5976,-7.6159,-7.6465,-7.7084,-7.7855,-7.8754,-7.9812,-8.0843,-8.1356,-8.1864,-8.2176,-8.2293,-8.2293,-8.2293,-8.2293,-8.2293,-8.2293,-8.2293,-8.2293,-8.2293,-8.2293,-8.2293,-8.2293,-8.2293,-8.2293,-8.2293,-8.2293,-8.2293,-8.2293,-8.2293,-8.2293,-8.2293,-8.2293,-8.2293,-8.2293,-8.2293,-8.2305,-8.232,-8.2297,-8.2265,-8.2226,-8.207,-8.1953,-8.1815,-8.1722,-8.162,-8.1542,-8.1504,-8.1504,-8.1504,-8.1504,-8.1542,-7.0419,-7.0419,-7.0419,-7.0419,-7.0419,-7.0419,-7.0419,-7.0419,-7.0419,-7.0419,-7.0419,-7.0419,-7.0419,-7.0419,-7.0419,-7.0419,-7.0419,-7.0419,-7.0419,-7.0419,-7.0419,-7.0419,-7.0419,-7.0419,-7.0419,-7.0381,-7.0266,-7.0419,-7.019,-7.019,-7.0342,-7.0228,-7.0342,-7.0419,-7.0381,-7.0381,-7.0419,-7.0419,-7.0451,-7.0515,-7.0699,-7.0815,-7.0898,-7.0975,-7.1052,-7.1206,-7.1321,-7.2052,-7.2552,-7.2937,-7.3399,-7.386,-7.4091,-7.463,-7.463,-7.4245,-7.4668,-7.4899,-7.5168,-7.5515,-7.5899,-7.5976,-7.6226,-7.6293,-7.658,-7.7293,-7.8162,-7.9308,-8.0036,-8.0797,-8.1343,-8.1903,-8.2215,-8.2293,-8.2293,-8.2293,-8.2293,-8.2293,-8.2293,-8.2293,-8.2293,-8.2293,-8.2293,-8.2293,-8.2293,-8.2293,-8.2293,-8.2293,-8.2293,-8.2293,-8.2293,-8.2293,-8.2293,-8.2293,-8.2293,-8.2293,-8.2293,-8.2293,-8.2293,-8.2299,-8.231,-8.2324,-8.2265,-8.2265,-8.2226,-8.207,-8.1953,-8.1785,-8.1658,-8.1542,-8.1542,-8.1504,-8.1504,-8.1581,-8.1658,-7.0419,-7.0419,-7.0419,-7.0419,-7.0419,-7.0419,-7.0419,-7.0419,-7.0419,-7.0419,-7.0419,-7.0419,-7.0419,-7.0419,-7.0419,-7.0419,-7.0419,-7.0419,-7.0419,-7.0419,-7.0419,-7.0419,-7.0419,-7.0419,-7.0419,-7.0419,-7.0419,-7.0419,-7.0419,-7.0419,-7.0419,-7.0419,-7.0419,-7.0419,-7.0419,-7.0419,-7.0419,-7.0419,-7.0522,-7.0647,-7.0834,-7.0958,-7.1014,-7.1206,-7.1657,-7.2041,-7.2168,-7.286,-7.3581,-7.4207,-7.4399,-7.4938,-7.5553,-7.5745,-7.5822,-7.5745,-7.5822,-7.5822,-7.5822,-7.6015,-7.6169,-7.6342,-7.6828,-7.7292,-7.7727,-7.8314,-7.9271,-8.039,-8.074,-8.1148,-8.1804,-8.2176,-8.2293,-8.2293,-8.2293,-8.2293,-8.2293,-8.2293,-8.2293,-8.2293,-8.2293,-8.2293,-8.2293,-8.2293,-8.2293,-8.2293,-8.2293,-8.2293,-8.2293,-8.2293,-8.2293,-8.2293,-8.2293,-8.2293,-8.2293,-8.2293,-8.2293,-8.2293,-8.2299,-8.2299,-8.2305,-8.232,-8.2304,-8.2265,-8.2265,-8.2187,-8.1992,-8.183,-8.1685,-8.162,-8.1581,-8.1581,-8.1504,-8.162,-8.189,-7.0419,-7.0419,-7.0419,-7.0419,-7.0419,-7.0419,-7.0419,-7.0419,-7.0419,-7.0419,-7.0419,-7.0419,-7.0419,-7.0419,-7.0419,-7.0419,-7.0419,-7.0419,-7.0419,-7.0419,-7.0419,-7.0419,-7.0419,-7.0419,-7.0419,-7.0419,-7.0419,-7.0419,-7.0419,-7.0419,-7.0419,-7.0419,-7.0419,-7.0419,-7.0419,-7.0419,-7.0419,-7.0451,-7.0592,-7.0954,-7.1343,-7.1583,-7.186,-7.2322,-7.2734,-7.2888,-7.3129,-7.3707,-7.4284,-7.4784,-7.5091,-7.5553,-7.5899,-7.5976,-7.5976,-7.6015,-7.6476,-7.6476,-7.613,-7.6476,-7.6669,-7.6929,-7.7582,-7.8309,-7.8912,-7.9504,-8.0287,-8.1351,-8.1442,-8.1743,-8.2117,-8.2293,-8.2293,-8.2293,-8.2293,-8.2293,-8.2293,-8.2293,-8.2293,-8.2293,-8.2293,-8.2293,-8.2293,-8.2293,-8.2293,-8.2293,-8.2293,-8.2293,-8.2293,-8.2293,-8.2293,-8.2293,-8.2293,-8.2293,-8.2293,-8.2293,-8.2293,-8.2299,-8.232,-8.2315,-8.2305,-8.232,-8.2304,-8.2304,-8.2304,-8.2187,-8.2031,-8.1961,-8.185,-8.1755,-8.1658,-8.1644,-8.1669,-8.2238,-8.2664,-7.0419,-7.0419,-7.0419,-7.0419,-7.0419,-7.0419,-7.0419,-7.0419,-7.0419,-7.0419,-7.0419,-7.0419,-7.0419,-7.0419,-7.0419,-7.0419,-7.0419,-7.0419,-7.0419,-7.0419,-7.0419,-7.0419,-7.0419,-7.0419,-7.0419,-7.0419,-7.0419,-7.0419,-7.0419,-7.0419,-7.0419,-7.0419,-7.0419,-7.0419,-7.0419,-7.0457,-7.0495,-7.0839,-7.0974,-7.149,-7.2157,-7.24,-7.2832,-7.3283,-7.363,-7.3812,-7.3899,-7.4591,-7.5014,-7.5207,-7.5592,-7.5899,-7.5976,-7.5976,-7.5976,-7.6169,-7.6707,-7.6938,-7.6823,-7.7053,-7.7476,-7.7882,-7.8513,-7.9478,-8.0376,-8.0763,-8.1049,-8.1967,-8.2006,-8.2084,-8.2273,-8.2293,-8.2293,-8.2293,-8.2293,-8.2293,-8.2293,-8.2293,-8.2293,-8.2293,-8.2293,-8.2293,-8.2293,-8.2293,-8.2293,-8.2293,-8.2293,-8.2293,-8.2293,-8.2293,-8.2293,-8.2293,-8.2293,-8.2293,-8.2293,-8.2293,-8.2293,-8.2299,-8.232,-8.2292,-8.2289,-8.2304,-8.2304,-8.2304,-8.2304,-8.2265,-8.2148,-8.2109,-8.2048,-8.1912,-8.1757,-8.1724,-8.191,-8.2598,-8.3438,-7.0419,-7.0419,-7.0419,-7.0419,-7.0419,-7.0419,-7.0419,-7.0419,-7.0419,-7.0419,-7.0419,-7.0419,-7.0419,-7.0419,-7.0419,-7.0419,-7.0419,-7.0419,-7.0419,-7.0419,-7.0419,-7.0419,-7.0419,-7.0419,-7.0419,-7.0419,-7.0419,-7.0419,-7.0419,-7.0419,-7.0419,-7.0419,-7.0457,-7.0419,-7.0495,-7.0572,-7.103,-7.1445,-7.1701,-7.2256,-7.2893,-7.3215,-7.3457,-7.3745,-7.4245,-7.4658,-7.4668,-7.5361,-7.5745,-7.5745,-7.5899,-7.5976,-7.5976,-7.5976,-7.6015,-7.6399,-7.7015,-7.7361,-7.7592,-7.7977,-7.8361,-7.8805,-7.9531,-8.0553,-8.1359,-8.1928,-8.2234,-8.2195,-8.2226,-8.2234,-8.2287,-8.2293,-8.2293,-8.2293,-8.2293,-8.2293,-8.2293,-8.2293,-8.2293,-8.2293,-8.2293,-8.2293,-8.2293,-8.2293,-8.2293,-8.2293,-8.2293,-8.2293,-8.2293,-8.2293,-8.2293,-8.2293,-8.2293,-8.2293,-8.2293,-8.2293,-8.2293,-8.2305,-8.232,-8.2297,-8.2303,-8.2304,-8.2304,-8.2304,-8.2304,-8.2304,-8.2265,-8.2187,-8.2109,-8.1992,-8.1934,-8.202,-8.2566,-8.3347,-8.4173,-7.0419,-7.0419,-7.0419,-7.0419,-7.0419,-7.0419,-7.0419,-7.0419,-7.0419,-7.0419,-7.0419,-7.0419,-7.0419,-7.0419,-7.0419,-7.0419,-7.0419,-7.0419,-7.0419,-7.0419,-7.0419,-7.0419,-7.0419,-7.0419,-7.0419,-7.0419,-7.0419,-7.0419,-7.0419,-7.0572,-7.0877,-7.0916,-7.0763,-7.0457,-7.0495,-7.103,-7.168,-7.2286,-7.2652,-7.3092,-7.3814,-7.4166,-7.4447,-7.5091,-7.5207,-7.5476,-7.5553,-7.5784,-7.5938,-7.5976,-7.5976,-7.6015,-7.6092,-7.6053,-7.6322,-7.6784,-7.7592,-7.8169,-7.8669,-7.9131,-7.9477,-8.0136,-8.0802,-8.1385,-8.1836,-8.2084,-8.228,-8.2293,-8.2293,-8.2293,-8.2293,-8.2293,-8.2293,-8.2293,-8.2293,-8.2293,-8.2293,-8.2293,-8.2293,-8.2293,-8.2293,-8.2293,-8.2293,-8.2293,-8.2293,-8.2293,-8.2293,-8.2293,-8.2293,-8.2293,-8.2293,-8.2293,-8.2293,-8.2293,-8.2293,-8.2293,-8.2293,-8.2305,-8.2315,-8.2295,-8.2304,-8.2304,-8.2304,-8.2304,-8.2304,-8.2304,-8.2265,-8.2265,-8.2187,-8.2109,-8.2226,-8.2435,-8.3165,-8.4103,-8.4908,-7.0419,-7.0419,-7.0419,-7.0419,-7.0419,-7.0419,-7.0419,-7.0419,-7.0419,-7.0419,-7.0419,-7.0419,-7.0419,-7.0419,-7.0419,-7.0419,-7.0419,-7.0419,-7.0419,-7.0419,-7.0419,-7.0419,-7.0419,-7.0419,-7.0419,-7.0457,-7.0692,-7.0806,-7.0916,-7.1068,-7.1565,-7.1756,-7.1527,-7.1336,-7.1412,-7.1756,-7.252,-7.3165,-7.35,-7.3974,-7.4734,-7.4981,-7.5216,-7.5793,-7.5899,-7.5899,-7.5899,-7.5976,-7.5976,-7.5976,-7.6015,-7.6169,-7.6284,-7.6515,-7.6861,-7.7592,-7.84,-7.9169,-7.9631,-8.0169,-8.0439,-8.0876,-8.1208,-8.154,-8.177,-8.2038,-8.2171,-8.2293,-8.2293,-8.2293,-8.2293,-8.2293,-8.2293,-8.2293,-8.2293,-8.2293,-8.2293,-8.2293,-8.2293,-8.2293,-8.2293,-8.2293,-8.2293,-8.2293,-8.2293,-8.2293,-8.2293,-8.2293,-8.2293,-8.2293,-8.2293,-8.2293,-8.2293,-8.2293,-8.2293,-8.2293,-8.2293,-8.2293,-8.231,-8.2292,-8.2304,-8.2304,-8.2304,-8.2304,-8.2304,-8.2304,-8.2304,-8.2265,-8.2304,-8.2304,-8.2578,-8.2969,-8.38,-8.4704,-8.5473,-7.0419,-7.0419,-7.0419,-7.0419,-7.0419,-7.0419,-7.0419,-7.0419,-7.0419,-7.0419,-7.0419,-7.0419,-7.0419,-7.0419,-7.0419,-7.0419,-7.0419,-7.0419,-7.0419,-7.0419,-7.0419,-7.0419,-7.0419,-7.0419,-7.0419,-7.0648,-7.0882,-7.1226,-7.1565,-7.1947,-7.2482,-7.2979,-7.2902,-7.2826,-7.2941,-7.2941,-7.3399,-7.4049,-7.4197,-7.4796,-7.5315,-7.5533,-7.5741,-7.5908,-7.5976,-7.5976,-7.5976,-7.5976,-7.5976,-7.5976,-7.6169,-7.6476,-7.6976,-7.7169,-7.7669,-7.8438,-7.9208,-7.9708,-7.99,-8.0631,-8.0977,-8.1085,-8.135,-8.1491,-8.1698,-8.192,-8.2143,-8.228,-8.2293,-8.2293,-8.2293,-8.2293,-8.2293,-8.2293,-8.2293,-8.2293,-8.2293,-8.2293,-8.2293,-8.2293,-8.2293,-8.2293,-8.2293,-8.2293,-8.2293,-8.2293,-8.2293,-8.2293,-8.2293,-8.2293,-8.2293,-8.2293,-8.2293,-8.2293,-8.2293,-8.2293,-8.2293,-8.2293,-8.2305,-8.2289,-8.2304,-8.2304,-8.2304,-8.2304,-8.2304,-8.2304,-8.2304,-8.2304,-8.2422,-8.2656,-8.3203,-8.3711,-8.4492,-8.5247,-8.6049,-7.0419,-7.0419,-7.0419,-7.0419,-7.0419,-7.0419,-7.0419,-7.0419,-7.0419,-7.0419,-7.0419,-7.0419,-7.0419,-7.0419,-7.0419,-7.0419,-7.0419,-7.0419,-7.0419,-7.0419,-7.0419,-7.0419,-7.0419,-7.0419,-7.0419,-7.0495,-7.0806,-7.1379,-7.1642,-7.2367,-7.3055,-7.3514,-7.4163,-7.4278,-7.3934,-7.3858,-7.4201,-7.4889,-7.5149,-7.5332,-7.5692,-7.5794,-7.5856,-7.5976,-7.5976,-7.5976,-7.5976,-7.5976,-7.5976,-7.6092,-7.6322,-7.6976,-7.7438,-7.7669,-7.8515,-7.9131,-7.9823,-8.0092,-8.0477,-8.1016,-8.1054,-8.1146,-8.128,-8.1484,-8.1679,-8.1905,-8.2084,-8.2234,-8.2293,-8.2293,-8.2293,-8.2293,-8.2293,-8.2293,-8.2293,-8.2293,-8.2293,-8.2293,-8.2293,-8.2293,-8.2293,-8.2293,-8.2293,-8.2293,-8.2293,-8.2293,-8.2293,-8.2293,-8.2293,-8.2293,-8.2293,-8.2293,-8.2293,-8.2293,-8.2293,-8.2293,-8.2299,-8.231,-8.231,-8.232,-8.2304,-8.2304,-8.2304,-8.2304,-8.2304,-8.2304,-8.2461,-8.2578,-8.2773,-8.3086,-8.3828,-8.4297,-8.4765,-8.5634,-8.6549,-7.0419,-7.0419,-7.0419,-7.0419,-7.0419,-7.0419,-7.0419,-7.0419,-7.0419,-7.0419,-7.0419,-7.0419,-7.0419,-7.0419,-7.0419,-7.0419,-7.0419,-7.0419,-7.0419,-7.0419,-7.0419,-7.0419,-7.0419,-7.0419,-7.0419,-7.0533,-7.1107,-7.1718,-7.2291,-7.2788,-7.3667,-7.4584,-7.5195,-7.5004,-7.4736,-7.4736,-7.4851,-7.5344,-7.5455,-7.5523,-7.5699,-7.5794,-7.5856,-7.5947,-7.5976,-7.5976,-7.5976,-7.5976,-7.6015,-7.6245,-7.6746,-7.7438,-7.7823,-7.8515,-7.9323,-7.9977,-8.0323,-8.0592,-8.0939,-8.1054,-8.1093,-8.1124,-8.1224,-8.1412,-8.164,-8.1804,-8.205,-8.221,-8.2287,-8.2293,-8.2293,-8.2293,-8.2293,-8.2293,-8.2293,-8.2293,-8.2293,-8.2293,-8.2293,-8.2293,-8.2293,-8.2293,-8.2293,-8.2293,-8.2293,-8.2293,-8.2293,-8.2293,-8.2293,-8.2293,-8.2293,-8.2293,-8.2293,-8.2293,-8.2293,-8.2293,-8.2305,-8.232,-8.2304,-8.2304,-8.2304,-8.2304,-8.2304,-8.2304,-8.2344,-8.2422,-8.2734,-8.2929,-8.332,-8.3945,-8.4765,-8.5078,-8.5195,-8.5942,-8.691,-7.0419,-7.0419,-7.0419,-7.0419,-7.0419,-7.0419,-7.0419,-7.0419,-7.0419,-7.0419,-7.0419,-7.0419,-7.0419,-7.0419,-7.0419,-7.0419,-7.0419,-7.0419,-7.0419,-7.0419,-7.0419,-7.0419,-7.0419,-7.0419,-7.0419,-7.0954,-7.1642,-7.2291,-7.3093,-7.4125,-7.5004,-7.531,-7.5386,-7.5348,-7.531,-7.531,-7.5348,-7.5462,-7.5497,-7.5566,-7.5699,-7.5692,-7.5826,-7.5917,-7.5976,-7.5976,-7.6053,-7.613,-7.6169,-7.6476,-7.7015,-7.7784,-7.8554,-7.9361,-8.0246,-8.0785,-8.0977,-8.1054,-8.1054,-8.1093,-8.1093,-8.1093,-8.1124,-8.135,-8.1536,-8.1717,-8.1934,-8.2143,-8.228,-8.2287,-8.2293,-8.2293,-8.2293,-8.2293,-8.2293,-8.2293,-8.2293,-8.2293,-8.2293,-8.2293,-8.2293,-8.2293,-8.2293,-8.2293,-8.2293,-8.2293,-8.2293,-8.2293,-8.2293,-8.2293,-8.2293,-8.2293,-8.2293,-8.2293,-8.2293,-8.2299,-8.231,-8.2324,-8.2304,-8.2304,-8.2304,-8.2304,-8.2304,-8.2344,-8.2383,-8.2578,-8.3008,-8.3515,-8.4062,-8.4765,-8.5508,-8.5664,-8.5703,-8.6367,-8.7095,-7.0419,-7.0419,-7.0419,-7.0419,-7.0419,-7.0419,-7.0419,-7.0419,-7.0419,-7.0419,-7.0419,-7.0419,-7.0419,-7.0419,-7.0419,-7.0419,-7.0419,-7.0419,-7.0419,-7.0419,-7.0419,-7.0419,-7.0419,-7.0419,-7.0419,-7.0801,-7.1494,-7.2597,-7.3246,-7.466,-7.5462,-7.5462,-7.5501,-7.5501,-7.5501,-7.5501,-7.5501,-7.5501,-7.5501,-7.5604,-7.5666,-7.566,-7.5826,-7.5917,-7.5976,-7.6015,-7.613,-7.663,-7.6784,-7.7092,-7.8323,-7.9246,-7.94,-8.0208,-8.0977,-8.1016,-8.1093,-8.1093,-8.1093,-8.1093,-8.1093,-8.1093,-8.1093,-8.1224,-8.1437,-8.162,-8.1804,-8.205,-8.2234,-8.2287,-8.2293,-8.2293,-8.2293,-8.2293,-8.2293,-8.2293,-8.2293,-8.2293,-8.2293,-8.2293,-8.2293,-8.2293,-8.2293,-8.2293,-8.2293,-8.2293,-8.2293,-8.2293,-8.2293,-8.2293,-8.2293,-8.2293,-8.2293,-8.2293,-8.2305,-8.2305,-8.232,-8.2304,-8.2304,-8.2304,-8.2304,-8.2304,-8.2304,-8.2422,-8.2578,-8.2969,-8.3437,-8.3984,-8.4531,-8.5351,-8.6054,-8.6133,-8.6328,-8.6875,-8.7187,-7.0419,-7.0419,-7.0419,-7.0419,-7.0419,-7.0419,-7.0419,-7.0419,-7.0419,-7.0419,-7.0419,-7.0419,-7.0419,-7.0419,-7.0419,-7.0419,-7.0419,-7.0419,-7.0419,-7.0419,-7.0419,-7.0419,-7.0419,-7.0419,-7.0419,-7.0768,-7.1532,-7.2673,-7.3399,-7.4545,-7.5501,-7.5501,-7.5501,-7.5501,-7.5501,-7.5501,-7.5501,-7.5501,-7.5535,-7.557,-7.5633,-7.5699,-7.5826,-7.5947,-7.5976,-7.613,-7.6476,-7.71,-7.74,-7.7823,-7.9208,-7.9785,-7.9939,-8.0554,-8.1054,-8.1093,-8.1093,-8.1093,-8.1093,-8.1093,-8.1093,-8.1093,-8.1093,-8.1146,-8.1323,-8.1514,-8.1753,-8.1987,-8.2162,-8.2293,-8.2293,-8.2293,-8.2293,-8.2293,-8.2293,-8.2293,-8.2293,-8.2293,-8.2293,-8.2293,-8.2293,-8.2293,-8.2293,-8.2293,-8.2293,-8.2293,-8.2293,-8.2293,-8.2293,-8.2293,-8.2293,-8.2293,-8.2293,-8.2293,-8.2305,-8.231,-8.232,-8.2292,-8.2304,-8.2304,-8.2304,-8.2383,-8.2461,-8.2656,-8.289,-8.3476,-8.4219,-8.4492,-8.5039,-8.5898,-8.6601,-8.6758,-8.6875,-8.7109,-8.7304,-7.0419,-7.0419,-7.0419,-7.0419,-7.0419,-7.0419,-7.0419,-7.0419,-7.0419,-7.0419,-7.0419,-7.0419,-7.0419,-7.0419,-7.0419,-7.0419,-7.0419,-7.0419,-7.0419,-7.0419,-7.0419,-7.0419,-7.0419,-7.0419,-7.0419,-7.0992,-7.1947,-7.3093,-7.3628,-7.466,-7.5501,-7.5501,-7.5501,-7.5501,-7.5501,-7.5501,-7.5501,-7.5501,-7.5535,-7.557,-7.5671,-7.5731,-7.5826,-7.5947,-7.6092,-7.6322,-7.7015,-7.7476,-7.7784,-7.8592,-7.9361,-7.9939,-8.0285,-8.0631,-8.0977,-8.1093,-8.1093,-8.1093,-8.1093,-8.1093,-8.1093,-8.1093,-8.1093,-8.1124,-8.1253,-8.1491,-8.177,-8.1934,-8.2123,-8.228,-8.2293,-8.2293,-8.2293,-8.2293,-8.2293,-8.2293,-8.2293,-8.2293,-8.2293,-8.2293,-8.2293,-8.2293,-8.2293,-8.2293,-8.2293,-8.2293,-8.2293,-8.2293,-8.2293,-8.2293,-8.2293,-8.2293,-8.2293,-8.2293,-8.2293,-8.2305,-8.232,-8.2295,-8.2304,-8.2304,-8.2304,-8.2461,-8.2617,-8.3008,-8.3437,-8.4375,-8.5078,-8.5429,-8.5937,-8.6679,-8.7226,-8.7383,-8.7461,-8.7422,-8.7383,-7.0419,-7.0419,-7.0419,-7.0419,-7.0419,-7.0419,-7.0419,-7.0419,-7.0419,-7.0419,-7.0419,-7.0419,-7.0419,-7.0419,-7.0419,-7.0419,-7.0419,-7.0419,-7.0419,-7.0419,-7.0419,-7.0419,-7.0419,-7.0419,-7.0419,-7.0992,-7.2062,-7.359,-7.4469,-7.5157,-7.5501,-7.5501,-7.5501,-7.5501,-7.5501,-7.5501,-7.5501,-7.5501,-7.5574,-7.5638,-7.5731,-7.5833,-7.5925,-7.5985,-7.6092,-7.6515,-7.7207,-7.7938,-7.8592,-7.9477,-8.0323,-8.0708,-8.0823,-8.1016,-8.1054,-8.1093,-8.1093,-8.1093,-8.1093,-8.1093,-8.1093,-8.1093,-8.1093,-8.1093,-8.1224,-8.1514,-8.1735,-8.189,-8.205,-8.221,-8.2293,-8.2293,-8.2293,-8.2293,-8.2293,-8.2293,-8.2293,-8.2293,-8.2293,-8.2293,-8.2293,-8.2293,-8.2293,-8.2293,-8.2293,-8.2293,-8.2293,-8.2293,-8.2293,-8.2293,-8.2293,-8.2293,-8.2293,-8.2293,-8.2293,-8.2299,-8.2315,-8.2292,-8.2301,-8.2304,-8.2304,-8.2422,-8.2578,-8.3437,-8.4101,-8.4804,-8.5586,-8.6562,-8.707,-8.7304,-8.75,-8.75,-8.75,-8.7461,-8.7461,-7.0419,-7.0419,-7.0419,-7.0419,-7.0419,-7.0419,-7.0419,-7.0419,-7.0419,-7.0419,-7.0419,-7.0419,-7.0419,-7.0419,-7.0419,-7.0419,-7.0419,-7.0419,-7.0419,-7.0419,-7.0419,-7.0419,-7.0419,-7.0419,-7.0419,-7.0877,-7.2253,-7.3667,-7.4851,-7.5386,-7.5501,-7.5501,-7.5501,-7.5501,-7.5501,-7.5501,-7.5501,-7.5539,-7.5574,-7.5704,-7.5756,-7.5856,-7.5925,-7.5985,-7.613,-7.6669,-7.7592,-7.84,-7.9169,-8.0015,-8.0862,-8.0977,-8.1016,-8.1054,-8.1093,-8.1093,-8.1093,-8.1093,-8.1093,-8.1093,-8.1093,-8.1093,-8.1093,-8.1093,-8.1176,-8.1437,-8.1679,-8.182,-8.2133,-8.2287,-8.2293,-8.2293,-8.2293,-8.2293,-8.2293,-8.2293,-8.2293,-8.2293,-8.2293,-8.2293,-8.2293,-8.2293,-8.2293,-8.2293,-8.2293,-8.2293,-8.2293,-8.2293,-8.2293,-8.2293,-8.2293,-8.2293,-8.2293,-8.2305,-8.2315,-8.2315,-8.231,-8.2289,-8.2304,-8.2304,-8.2304,-8.2344,-8.2617,-8.3672,-8.4414,-8.4804,-8.5664,-8.6679,-8.6836,-8.6719,-8.7109,-8.75,-8.75,-8.75,-8.75,-7.0419,-7.0419,-7.0419,-7.0419,-7.0419,-7.0419,-7.0419,-7.0419,-7.0419,-7.0419,-7.0419,-7.0419,-7.0419,-7.0419,-7.0419,-7.0419,-7.0419,-7.0419,-7.0419,-7.0419,-7.0419,-7.0419,-7.0419,-7.0419,-7.0533,-7.1145,-7.2329,-7.3323,-7.4354,-7.5004,-7.5501,-7.5501,-7.5501,-7.5501,-7.5501,-7.5501,-7.5501,-7.5574,-7.5676,-7.5801,-7.5826,-7.5887,-7.5955,-7.5985,-7.6245,-7.7015,-7.7977,-7.8861,-7.9592,-8.0323,-8.1054,-8.1054,-8.1093,-8.1093,-8.1093,-8.1093,-8.1093,-8.1093,-8.1093,-8.1093,-8.1093,-8.1093,-8.1093,-8.1116,-8.1234,-8.1426,-8.162,-8.1851,-8.2153,-8.2287,-8.2293,-8.2293,-8.2293,-8.2293,-8.2293,-8.2293,-8.2293,-8.2293,-8.2293,-8.2293,-8.2293,-8.2293,-8.2293,-8.2293,-8.2293,-8.2293,-8.2293,-8.2293,-8.2293,-8.2293,-8.2293,-8.2293,-8.2293,-8.231,-8.2328,-8.2304,-8.2304,-8.2304,-8.2304,-8.2304,-8.2461,-8.2929,-8.3476,-8.4219,-8.4883,-8.5234,-8.5703,-8.6562,-8.6484,-8.6367,-8.6953,-8.75,-8.75,-8.75,-8.75,-7.0419,-7.0419,-7.0419,-7.0419,-7.0419,-7.0419,-7.0419,-7.0419,-7.0419,-7.0419,-7.0419,-7.0419,-7.0419,-7.0419,-7.0419,-7.0419,-7.0419,-7.0419,-7.0419,-7.0419,-7.0419,-7.0419,-7.0419,-7.0457,-7.0877,-7.1527,-7.2367,-7.3323,-7.4087,-7.4927,-7.5501,-7.5501,-7.5501,-7.5501,-7.5501,-7.5501,-7.5535,-7.5608,-7.5709,-7.5763,-7.5895,-7.5925,-7.5985,-7.6245,-7.6707,-7.7515,-7.84,-7.9169,-8.0054,-8.0746,-8.1093,-8.1093,-8.1093,-8.1093,-8.1093,-8.1093,-8.1093,-8.1093,-8.1093,-8.1093,-8.1093,-8.1093,-8.1124,-8.1176,-8.1296,-8.153,-8.1735,-8.1934,-8.2153,-8.228,-8.2293,-8.2293,-8.2293,-8.2293,-8.2293,-8.2293,-8.2293,-8.2293,-8.2293,-8.2293,-8.2293,-8.2293,-8.2293,-8.2293,-8.2293,-8.2293,-8.2293,-8.2293,-8.2293,-8.2293,-8.2293,-8.2293,-8.2293,-8.231,-8.2304,-8.2304,-8.2304,-8.2304,-8.2422,-8.2695,-8.3125,-8.3906,-8.4531,-8.5039,-8.5429,-8.5781,-8.625,-8.6484,-8.6484,-8.6484,-8.707,-8.7461,-8.75,-8.75,-8.75]}]]